<?xml version="1.0" encoding="UTF-8" standalone="no" ?>
<gpx xmlns="http://www.topografix.com/GPX/1/1" xmlns:xsi="http://www.w3.org/2001/XMLSchema-instance" creator="Kurviger.de" version="1.1" xmlns:gh="https://kurviger.de/public/schema/gpx/1.1">
<metadata>
<name>SauerlandTourWest_Kurviger2 (1)</name>
<copyright author="OpenStreetMap contributors"/>
<link href="https://kurviger.de">
<text>Kurviger.de GPX</text>
</link>
<time>2020-08-16T15:56:19Z</time>
</metadata>
<trk><name>SauerlandTourWest_Kurviger2 (1)</name><trkseg>
<trkpt lat="51.192574" lon="7.671368"><ele>419.4</ele><time>2020-08-16T15:56:19Z</time></trkpt>
<trkpt lat="51.19151" lon="7.672388"><ele>425.2</ele><time>2020-08-16T15:56:29Z</time></trkpt>
<trkpt lat="51.191167" lon="7.672753"><ele>425.0</ele><time>2020-08-16T15:56:32Z</time></trkpt>
<trkpt lat="51.19096" lon="7.673024"><ele>425.0</ele><time>2020-08-16T15:56:34Z</time></trkpt>
<trkpt lat="51.190819" lon="7.673304"><ele>428.8</ele><time>2020-08-16T15:56:35Z</time></trkpt>
<trkpt lat="51.190718" lon="7.673587"><ele>424.6</ele><time>2020-08-16T15:56:37Z</time></trkpt>
<trkpt lat="51.189923" lon="7.673045"><ele>435.8</ele><time>2020-08-16T15:56:46Z</time></trkpt>
<trkpt lat="51.189834" lon="7.673025"><ele>435.8</ele><time>2020-08-16T15:56:47Z</time></trkpt>
<trkpt lat="51.189605" lon="7.673081"><ele>435.8</ele><time>2020-08-16T15:56:49Z</time></trkpt>
<trkpt lat="51.189488" lon="7.673171"><ele>435.8</ele><time>2020-08-16T15:56:50Z</time></trkpt>
<trkpt lat="51.189392" lon="7.673271"><ele>435.8</ele><time>2020-08-16T15:56:51Z</time></trkpt>
<trkpt lat="51.189252" lon="7.673549"><ele>431.6</ele><time>2020-08-16T15:56:54Z</time></trkpt>
<trkpt lat="51.189199" lon="7.673804"><ele>431.6</ele><time>2020-08-16T15:56:56Z</time></trkpt>
<trkpt lat="51.189045" lon="7.675126"><ele>445.4</ele><time>2020-08-16T15:57:04Z</time></trkpt>
<trkpt lat="51.188923" lon="7.675762"><ele>445.4</ele><time>2020-08-16T15:57:09Z</time></trkpt>
<trkpt lat="51.18845" lon="7.677318"><ele>432.2</ele><time>2020-08-16T15:57:20Z</time></trkpt>
<trkpt lat="51.188281" lon="7.677696"><ele>439.2</ele><time>2020-08-16T15:57:23Z</time></trkpt>
<trkpt lat="51.187959" lon="7.678324"><ele>439.2</ele><time>2020-08-16T15:57:28Z</time></trkpt>
<trkpt lat="51.187892" lon="7.678553"><ele>429.6</ele><time>2020-08-16T15:57:30Z</time></trkpt>
<trkpt lat="51.187869" lon="7.678804"><ele>429.6</ele><time>2020-08-16T15:57:31Z</time></trkpt>
<trkpt lat="51.187895" lon="7.679645"><ele>423.4</ele><time>2020-08-16T15:57:37Z</time></trkpt>
<trkpt lat="51.187891" lon="7.679962"><ele>423.4</ele><time>2020-08-16T15:57:39Z</time></trkpt>
<trkpt lat="51.187616" lon="7.680944"><ele>415.2</ele><time>2020-08-16T15:57:46Z</time></trkpt>
<trkpt lat="51.187105" lon="7.682262"><ele>427.4</ele><time>2020-08-16T15:57:56Z</time></trkpt>
<trkpt lat="51.186615" lon="7.682648"><ele>416.0</ele><time>2020-08-16T15:58:01Z</time></trkpt>
<trkpt lat="51.186391" lon="7.682632"><ele>416.0</ele><time>2020-08-16T15:58:04Z</time></trkpt>
<trkpt lat="51.186391" lon="7.682632"><ele>416.0</ele><time>2020-08-16T15:58:04Z</time></trkpt>
<trkpt lat="51.186096" lon="7.682611"><ele>416.0</ele><time>2020-08-16T15:58:08Z</time></trkpt>
<trkpt lat="51.185462" lon="7.682327"><ele>420.4</ele><time>2020-08-16T15:58:16Z</time></trkpt>
<trkpt lat="51.184832" lon="7.681962"><ele>405.0</ele><time>2020-08-16T15:58:25Z</time></trkpt>
<trkpt lat="51.184369" lon="7.681534"><ele>415.8</ele><time>2020-08-16T15:58:32Z</time></trkpt>
<trkpt lat="51.183915" lon="7.68104"><ele>398.4</ele><time>2020-08-16T15:58:40Z</time></trkpt>
<trkpt lat="51.183461" lon="7.6803"><ele>407.4</ele><time>2020-08-16T15:58:49Z</time></trkpt>
<trkpt lat="51.182525" lon="7.678438"><ele>409.2</ele><time>2020-08-16T15:59:08Z</time></trkpt>
<trkpt lat="51.182063" lon="7.677364"><ele>404.8</ele><time>2020-08-16T15:59:19Z</time></trkpt>
<trkpt lat="51.181584" lon="7.676161"><ele>390.0</ele><time>2020-08-16T15:59:31Z</time></trkpt>
<trkpt lat="51.181399" lon="7.67558"><ele>391.2</ele><time>2020-08-16T15:59:36Z</time></trkpt>
<trkpt lat="51.181356" lon="7.67538"><ele>391.2</ele><time>2020-08-16T15:59:38Z</time></trkpt>
<trkpt lat="51.18133" lon="7.675108"><ele>391.2</ele><time>2020-08-16T15:59:40Z</time></trkpt>
<trkpt lat="51.181333" lon="7.674829"><ele>391.4</ele><time>2020-08-16T15:59:42Z</time></trkpt>
<trkpt lat="51.181357" lon="7.674556"><ele>391.4</ele><time>2020-08-16T15:59:45Z</time></trkpt>
<trkpt lat="51.181422" lon="7.674199"><ele>391.4</ele><time>2020-08-16T15:59:48Z</time></trkpt>
<trkpt lat="51.181535" lon="7.673709"><ele>393.2</ele><time>2020-08-16T15:59:52Z</time></trkpt>
<trkpt lat="51.181584" lon="7.673356"><ele>393.2</ele><time>2020-08-16T15:59:55Z</time></trkpt>
<trkpt lat="51.181588" lon="7.67318"><ele>397.4</ele><time>2020-08-16T15:59:57Z</time></trkpt>
<trkpt lat="51.181494" lon="7.672728"><ele>397.4</ele><time>2020-08-16T16:00:00Z</time></trkpt>
<trkpt lat="51.181411" lon="7.672541"><ele>397.4</ele><time>2020-08-16T16:00:02Z</time></trkpt>
<trkpt lat="51.181276" lon="7.672354"><ele>402.0</ele><time>2020-08-16T16:00:05Z</time></trkpt>
<trkpt lat="51.181181" lon="7.672264"><ele>402.0</ele><time>2020-08-16T16:00:06Z</time></trkpt>
<trkpt lat="51.181" lon="7.672165"><ele>402.0</ele><time>2020-08-16T16:00:09Z</time></trkpt>
<trkpt lat="51.180756" lon="7.672156"><ele>387.8</ele><time>2020-08-16T16:00:12Z</time></trkpt>
<trkpt lat="51.178161" lon="7.672999"><ele>402.0</ele><time>2020-08-16T16:00:47Z</time></trkpt>
<trkpt lat="51.177765" lon="7.673084"><ele>402.0</ele><time>2020-08-16T16:00:52Z</time></trkpt>
<trkpt lat="51.177555" lon="7.672945"><ele>402.0</ele><time>2020-08-16T16:00:55Z</time></trkpt>
<trkpt lat="51.177466" lon="7.672849"><ele>397.8</ele><time>2020-08-16T16:00:57Z</time></trkpt>
<trkpt lat="51.177247" lon="7.672516"><ele>397.8</ele><time>2020-08-16T16:01:01Z</time></trkpt>
<trkpt lat="51.177169" lon="7.672337"><ele>405.8</ele><time>2020-08-16T16:01:03Z</time></trkpt>
<trkpt lat="51.176919" lon="7.671613"><ele>415.0</ele><time>2020-08-16T16:01:10Z</time></trkpt>
<trkpt lat="51.176811" lon="7.671435"><ele>415.0</ele><time>2020-08-16T16:01:12Z</time></trkpt>
<trkpt lat="51.176659" lon="7.671299"><ele>413.0</ele><time>2020-08-16T16:01:14Z</time></trkpt>
<trkpt lat="51.176489" lon="7.671213"><ele>413.0</ele><time>2020-08-16T16:01:16Z</time></trkpt>
<trkpt lat="51.176294" lon="7.671204"><ele>413.0</ele><time>2020-08-16T16:01:19Z</time></trkpt>
<trkpt lat="51.176094" lon="7.671311"><ele>413.0</ele><time>2020-08-16T16:01:22Z</time></trkpt>
<trkpt lat="51.176094" lon="7.671311"><ele>413.0</ele><time>2020-08-16T16:01:22Z</time></trkpt>
<trkpt lat="51.176013" lon="7.671379"><ele>413.0</ele><time>2020-08-16T16:01:23Z</time></trkpt>
<trkpt lat="51.17591" lon="7.671552"><ele>413.0</ele><time>2020-08-16T16:01:25Z</time></trkpt>
<trkpt lat="51.175832" lon="7.671736"><ele>432.8</ele><time>2020-08-16T16:01:27Z</time></trkpt>
<trkpt lat="51.17574" lon="7.672024"><ele>432.8</ele><time>2020-08-16T16:01:30Z</time></trkpt>
<trkpt lat="51.175736" lon="7.672211"><ele>432.8</ele><time>2020-08-16T16:01:31Z</time></trkpt>
<trkpt lat="51.175825" lon="7.67313"><ele>434.4</ele><time>2020-08-16T16:01:37Z</time></trkpt>
<trkpt lat="51.175827" lon="7.673317"><ele>434.4</ele><time>2020-08-16T16:01:39Z</time></trkpt>
<trkpt lat="51.175798" lon="7.673518"><ele>431.4</ele><time>2020-08-16T16:01:40Z</time></trkpt>
<trkpt lat="51.17527" lon="7.674918"><ele>420.8</ele><time>2020-08-16T16:01:51Z</time></trkpt>
<trkpt lat="51.175171" lon="7.675072"><ele>407.8</ele><time>2020-08-16T16:01:53Z</time></trkpt>
<trkpt lat="51.175053" lon="7.675182"><ele>407.8</ele><time>2020-08-16T16:01:55Z</time></trkpt>
<trkpt lat="51.174226" lon="7.675392"><ele>424.2</ele><time>2020-08-16T16:02:04Z</time></trkpt>
<trkpt lat="51.173862" lon="7.675631"><ele>441.4</ele><time>2020-08-16T16:02:09Z</time></trkpt>
<trkpt lat="51.173543" lon="7.675896"><ele>425.8</ele><time>2020-08-16T16:02:13Z</time></trkpt>
<trkpt lat="51.173111" lon="7.676605"><ele>445.8</ele><time>2020-08-16T16:02:20Z</time></trkpt>
<trkpt lat="51.172704" lon="7.677037"><ele>430.2</ele><time>2020-08-16T16:02:25Z</time></trkpt>
<trkpt lat="51.172018" lon="7.677703"><ele>424.2</ele><time>2020-08-16T16:02:34Z</time></trkpt>
<trkpt lat="51.171434" lon="7.678338"><ele>416.4</ele><time>2020-08-16T16:02:42Z</time></trkpt>
<trkpt lat="51.170961" lon="7.678373"><ele>416.4</ele><time>2020-08-16T16:02:47Z</time></trkpt>
<trkpt lat="51.17077" lon="7.678481"><ele>428.6</ele><time>2020-08-16T16:02:50Z</time></trkpt>
<trkpt lat="51.170638" lon="7.678585"><ele>428.6</ele><time>2020-08-16T16:02:51Z</time></trkpt>
<trkpt lat="51.170436" lon="7.678923"><ele>428.6</ele><time>2020-08-16T16:02:54Z</time></trkpt>
<trkpt lat="51.170351" lon="7.679306"><ele>423.4</ele><time>2020-08-16T16:02:57Z</time></trkpt>
<trkpt lat="51.170321" lon="7.680329"><ele>417.2</ele><time>2020-08-16T16:03:04Z</time></trkpt>
<trkpt lat="51.17015" lon="7.680846"><ele>408.0</ele><time>2020-08-16T16:03:08Z</time></trkpt>
<trkpt lat="51.170013" lon="7.681107"><ele>408.0</ele><time>2020-08-16T16:03:11Z</time></trkpt>
<trkpt lat="51.169759" lon="7.681354"><ele>422.0</ele><time>2020-08-16T16:03:14Z</time></trkpt>
<trkpt lat="51.169098" lon="7.681758"><ele>427.0</ele><time>2020-08-16T16:03:22Z</time></trkpt>
<trkpt lat="51.168903" lon="7.681987"><ele>427.0</ele><time>2020-08-16T16:03:25Z</time></trkpt>
<trkpt lat="51.168675" lon="7.682479"><ele>427.0</ele><time>2020-08-16T16:03:29Z</time></trkpt>
<trkpt lat="51.167951" lon="7.684389"><ele>412.4</ele><time>2020-08-16T16:03:44Z</time></trkpt>
<trkpt lat="51.167546" lon="7.685568"><ele>409.2</ele><time>2020-08-16T16:03:53Z</time></trkpt>
<trkpt lat="51.167365" lon="7.686857"><ele>421.4</ele><time>2020-08-16T16:04:02Z</time></trkpt>
<trkpt lat="51.167308" lon="7.687122"><ele>421.4</ele><time>2020-08-16T16:04:04Z</time></trkpt>
<trkpt lat="51.167248" lon="7.687699"><ele>420.0</ele><time>2020-08-16T16:04:08Z</time></trkpt>
<trkpt lat="51.167245" lon="7.687931"><ele>420.0</ele><time>2020-08-16T16:04:10Z</time></trkpt>
<trkpt lat="51.167411" lon="7.689242"><ele>420.8</ele><time>2020-08-16T16:04:19Z</time></trkpt>
<trkpt lat="51.167532" lon="7.689787"><ele>405.8</ele><time>2020-08-16T16:04:23Z</time></trkpt>
<trkpt lat="51.167819" lon="7.690618"><ele>408.8</ele><time>2020-08-16T16:04:30Z</time></trkpt>
<trkpt lat="51.167871" lon="7.690947"><ele>411.4</ele><time>2020-08-16T16:04:32Z</time></trkpt>
<trkpt lat="51.167878" lon="7.691333"><ele>411.4</ele><time>2020-08-16T16:04:35Z</time></trkpt>
<trkpt lat="51.167775" lon="7.691709"><ele>411.4</ele><time>2020-08-16T16:04:38Z</time></trkpt>
<trkpt lat="51.167434" lon="7.692739"><ele>414.8</ele><time>2020-08-16T16:04:46Z</time></trkpt>
<trkpt lat="51.167238" lon="7.693107"><ele>414.8</ele><time>2020-08-16T16:04:49Z</time></trkpt>
<trkpt lat="51.166964" lon="7.693316"><ele>414.8</ele><time>2020-08-16T16:04:52Z</time></trkpt>
<trkpt lat="51.166789" lon="7.693395"><ele>412.2</ele><time>2020-08-16T16:04:55Z</time></trkpt>
<trkpt lat="51.166789" lon="7.693395"><ele>412.2</ele><time>2020-08-16T16:04:55Z</time></trkpt>
<trkpt lat="51.166591" lon="7.693397"><ele>410.2</ele><time>2020-08-16T16:04:57Z</time></trkpt>
<trkpt lat="51.166394" lon="7.693356"><ele>410.2</ele><time>2020-08-16T16:04:59Z</time></trkpt>
<trkpt lat="51.165712" lon="7.693124"><ele>421.2</ele><time>2020-08-16T16:05:06Z</time></trkpt>
<trkpt lat="51.165398" lon="7.693158"><ele>421.2</ele><time>2020-08-16T16:05:09Z</time></trkpt>
<trkpt lat="51.164958" lon="7.693345"><ele>411.0</ele><time>2020-08-16T16:05:14Z</time></trkpt>
<trkpt lat="51.164745" lon="7.693276"><ele>423.8</ele><time>2020-08-16T16:05:17Z</time></trkpt>
<trkpt lat="51.164287" lon="7.693046"><ele>423.8</ele><time>2020-08-16T16:05:21Z</time></trkpt>
<trkpt lat="51.163784" lon="7.692893"><ele>421.8</ele><time>2020-08-16T16:05:27Z</time></trkpt>
<trkpt lat="51.163259" lon="7.692883"><ele>419.2</ele><time>2020-08-16T16:05:32Z</time></trkpt>
<trkpt lat="51.163009" lon="7.692907"><ele>419.2</ele><time>2020-08-16T16:05:35Z</time></trkpt>
<trkpt lat="51.162807" lon="7.692937"><ele>419.2</ele><time>2020-08-16T16:05:37Z</time></trkpt>
<trkpt lat="51.161895" lon="7.693183"><ele>420.2</ele><time>2020-08-16T16:05:46Z</time></trkpt>
<trkpt lat="51.161615" lon="7.693213"><ele>418.8</ele><time>2020-08-16T16:05:49Z</time></trkpt>
<trkpt lat="51.161212" lon="7.693121"><ele>418.8</ele><time>2020-08-16T16:05:53Z</time></trkpt>
<trkpt lat="51.160554" lon="7.692854"><ele>415.0</ele><time>2020-08-16T16:06:00Z</time></trkpt>
<trkpt lat="51.159782" lon="7.691874"><ele>411.4</ele><time>2020-08-16T16:06:10Z</time></trkpt>
<trkpt lat="51.159564" lon="7.691633"><ele>419.2</ele><time>2020-08-16T16:06:13Z</time></trkpt>
<trkpt lat="51.159349" lon="7.691461"><ele>419.2</ele><time>2020-08-16T16:06:16Z</time></trkpt>
<trkpt lat="51.159178" lon="7.691368"><ele>419.2</ele><time>2020-08-16T16:06:17Z</time></trkpt>
<trkpt lat="51.158949" lon="7.691339"><ele>420.4</ele><time>2020-08-16T16:06:20Z</time></trkpt>
<trkpt lat="51.158802" lon="7.691358"><ele>420.4</ele><time>2020-08-16T16:06:21Z</time></trkpt>
<trkpt lat="51.158615" lon="7.691447"><ele>420.4</ele><time>2020-08-16T16:06:23Z</time></trkpt>
<trkpt lat="51.156786" lon="7.693053"><ele>422.0</ele><time>2020-08-16T16:06:45Z</time></trkpt>
<trkpt lat="51.15652" lon="7.693312"><ele>429.6</ele><time>2020-08-16T16:06:48Z</time></trkpt>
<trkpt lat="51.156339" lon="7.693153"><ele>429.6</ele><time>2020-08-16T16:06:49Z</time></trkpt>
<trkpt lat="51.15591" lon="7.692988"><ele>429.6</ele><time>2020-08-16T16:06:51Z</time></trkpt>
<trkpt lat="51.155547" lon="7.693015"><ele>428.6</ele><time>2020-08-16T16:06:53Z</time></trkpt>
<trkpt lat="51.155276" lon="7.692942"><ele>428.6</ele><time>2020-08-16T16:06:54Z</time></trkpt>
<trkpt lat="51.154392" lon="7.692195"><ele>430.1</ele><time>2020-08-16T16:06:59Z</time></trkpt>
<trkpt lat="51.154392" lon="7.692195"><ele>430.1</ele><time>2020-08-16T16:06:59Z</time></trkpt>
<trkpt lat="51.154322" lon="7.692137"><ele>431.6</ele><time>2020-08-16T16:06:59Z</time></trkpt>
<trkpt lat="51.154201" lon="7.691951"><ele>431.6</ele><time>2020-08-16T16:07:00Z</time></trkpt>
<trkpt lat="51.15357" lon="7.690758"><ele>445.6</ele><time>2020-08-16T16:07:04Z</time></trkpt>
<trkpt lat="51.152443" lon="7.689001"><ele>439.4</ele><time>2020-08-16T16:07:12Z</time></trkpt>
<trkpt lat="51.152414" lon="7.688867"><ele>439.4</ele><time>2020-08-16T16:07:12Z</time></trkpt>
<trkpt lat="51.152414" lon="7.688709"><ele>439.4</ele><time>2020-08-16T16:07:13Z</time></trkpt>
<trkpt lat="51.152572" lon="7.687248"><ele>461.4</ele><time>2020-08-16T16:07:17Z</time></trkpt>
<trkpt lat="51.152562" lon="7.687099"><ele>461.4</ele><time>2020-08-16T16:07:17Z</time></trkpt>
<trkpt lat="51.15248" lon="7.686883"><ele>458.8</ele><time>2020-08-16T16:07:18Z</time></trkpt>
<trkpt lat="51.152401" lon="7.686799"><ele>458.8</ele><time>2020-08-16T16:07:19Z</time></trkpt>
<trkpt lat="51.152299" lon="7.686764"><ele>458.8</ele><time>2020-08-16T16:07:19Z</time></trkpt>
<trkpt lat="51.152027" lon="7.686824"><ele>458.8</ele><time>2020-08-16T16:07:20Z</time></trkpt>
<trkpt lat="51.151953" lon="7.68687"><ele>458.8</ele><time>2020-08-16T16:07:21Z</time></trkpt>
<trkpt lat="51.151612" lon="7.687242"><ele>459.4</ele><time>2020-08-16T16:07:23Z</time></trkpt>
<trkpt lat="51.151399" lon="7.687437"><ele>459.4</ele><time>2020-08-16T16:07:24Z</time></trkpt>
<trkpt lat="51.151219" lon="7.687482"><ele>459.4</ele><time>2020-08-16T16:07:25Z</time></trkpt>
<trkpt lat="51.151057" lon="7.687443"><ele>459.4</ele><time>2020-08-16T16:07:25Z</time></trkpt>
<trkpt lat="51.150613" lon="7.687041"><ele>453.6</ele><time>2020-08-16T16:07:28Z</time></trkpt>
<trkpt lat="51.149867" lon="7.686512"><ele>462.6</ele><time>2020-08-16T16:07:32Z</time></trkpt>
<trkpt lat="51.149683" lon="7.686262"><ele>462.6</ele><time>2020-08-16T16:07:33Z</time></trkpt>
<trkpt lat="51.149652" lon="7.686104"><ele>462.6</ele><time>2020-08-16T16:07:33Z</time></trkpt>
<trkpt lat="51.149666" lon="7.685446"><ele>470.4</ele><time>2020-08-16T16:07:35Z</time></trkpt>
<trkpt lat="51.149834" lon="7.684168"><ele>474.0</ele><time>2020-08-16T16:07:39Z</time></trkpt>
<trkpt lat="51.149898" lon="7.68302"><ele>476.6</ele><time>2020-08-16T16:07:42Z</time></trkpt>
<trkpt lat="51.150095" lon="7.681855"><ele>484.2</ele><time>2020-08-16T16:07:46Z</time></trkpt>
<trkpt lat="51.150098" lon="7.680601"><ele>491.4</ele><time>2020-08-16T16:07:50Z</time></trkpt>
<trkpt lat="51.150113" lon="7.680469"><ele>491.4</ele><time>2020-08-16T16:07:50Z</time></trkpt>
<trkpt lat="51.150144" lon="7.68039"><ele>491.4</ele><time>2020-08-16T16:07:50Z</time></trkpt>
<trkpt lat="51.150221" lon="7.680515"><ele>491.4</ele><time>2020-08-16T16:07:51Z</time></trkpt>
<trkpt lat="51.150329" lon="7.681007"><ele>487.4</ele><time>2020-08-16T16:07:52Z</time></trkpt>
<trkpt lat="51.150659" lon="7.681796"><ele>484.2</ele><time>2020-08-16T16:07:55Z</time></trkpt>
<trkpt lat="51.150674" lon="7.681939"><ele>484.2</ele><time>2020-08-16T16:07:56Z</time></trkpt>
<trkpt lat="51.150669" lon="7.682826"><ele>482.8</ele><time>2020-08-16T16:07:58Z</time></trkpt>
<trkpt lat="51.150724" lon="7.682968"><ele>482.8</ele><time>2020-08-16T16:07:59Z</time></trkpt>
<trkpt lat="51.150794" lon="7.683016"><ele>482.8</ele><time>2020-08-16T16:07:59Z</time></trkpt>
<trkpt lat="51.150867" lon="7.683001"><ele>498.4</ele><time>2020-08-16T16:08:00Z</time></trkpt>
<trkpt lat="51.151089" lon="7.682741"><ele>498.4</ele><time>2020-08-16T16:08:01Z</time></trkpt>
<trkpt lat="51.151294" lon="7.682459"><ele>500.6</ele><time>2020-08-16T16:08:02Z</time></trkpt>
<trkpt lat="51.151325" lon="7.682372"><ele>500.6</ele><time>2020-08-16T16:08:03Z</time></trkpt>
<trkpt lat="51.151362" lon="7.682212"><ele>500.6</ele><time>2020-08-16T16:08:03Z</time></trkpt>
<trkpt lat="51.15152" lon="7.680771"><ele>502.8</ele><time>2020-08-16T16:08:07Z</time></trkpt>
<trkpt lat="51.15165" lon="7.680343"><ele>502.8</ele><time>2020-08-16T16:08:09Z</time></trkpt>
<trkpt lat="51.151758" lon="7.680154"><ele>510.2</ele><time>2020-08-16T16:08:10Z</time></trkpt>
<trkpt lat="51.151845" lon="7.680058"><ele>510.2</ele><time>2020-08-16T16:08:10Z</time></trkpt>
<trkpt lat="51.152347" lon="7.679764"><ele>511.4</ele><time>2020-08-16T16:08:13Z</time></trkpt>
<trkpt lat="51.152397" lon="7.679706"><ele>511.4</ele><time>2020-08-16T16:08:13Z</time></trkpt>
<trkpt lat="51.15246" lon="7.679533"><ele>511.4</ele><time>2020-08-16T16:08:14Z</time></trkpt>
<trkpt lat="51.152462" lon="7.679329"><ele>511.4</ele><time>2020-08-16T16:08:14Z</time></trkpt>
<trkpt lat="51.152428" lon="7.679099"><ele>513.6</ele><time>2020-08-16T16:08:15Z</time></trkpt>
<trkpt lat="51.152175" lon="7.678578"><ele>513.6</ele><time>2020-08-16T16:08:17Z</time></trkpt>
<trkpt lat="51.151854" lon="7.678033"><ele>519.6</ele><time>2020-08-16T16:08:19Z</time></trkpt>
<trkpt lat="51.151693" lon="7.677839"><ele>519.6</ele><time>2020-08-16T16:08:20Z</time></trkpt>
<trkpt lat="51.151503" lon="7.677656"><ele>517.6</ele><time>2020-08-16T16:08:21Z</time></trkpt>
<trkpt lat="51.15118" lon="7.67745"><ele>522.1</ele><time>2020-08-16T16:08:23Z</time></trkpt>
<trkpt lat="51.15118" lon="7.67745"><ele>522.1</ele><time>2020-08-16T16:08:23Z</time></trkpt>
<trkpt lat="51.151051" lon="7.677368"><ele>526.6</ele><time>2020-08-16T16:08:23Z</time></trkpt>
<trkpt lat="51.150249" lon="7.676977"><ele>525.4</ele><time>2020-08-16T16:08:27Z</time></trkpt>
<trkpt lat="51.148677" lon="7.676591"><ele>528.2</ele><time>2020-08-16T16:08:35Z</time></trkpt>
<trkpt lat="51.147962" lon="7.676655"><ele>525.4</ele><time>2020-08-16T16:08:38Z</time></trkpt>
<trkpt lat="51.147543" lon="7.676615"><ele>525.4</ele><time>2020-08-16T16:08:40Z</time></trkpt>
<trkpt lat="51.147379" lon="7.676559"><ele>522.6</ele><time>2020-08-16T16:08:41Z</time></trkpt>
<trkpt lat="51.14701" lon="7.676366"><ele>522.6</ele><time>2020-08-16T16:08:42Z</time></trkpt>
<trkpt lat="51.146647" lon="7.676208"><ele>521.2</ele><time>2020-08-16T16:08:44Z</time></trkpt>
<trkpt lat="51.146515" lon="7.676197"><ele>521.2</ele><time>2020-08-16T16:08:45Z</time></trkpt>
<trkpt lat="51.145923" lon="7.676265"><ele>521.2</ele><time>2020-08-16T16:08:47Z</time></trkpt>
<trkpt lat="51.144643" lon="7.676176"><ele>520.4</ele><time>2020-08-16T16:08:53Z</time></trkpt>
<trkpt lat="51.143767" lon="7.676326"><ele>519.8</ele><time>2020-08-16T16:08:57Z</time></trkpt>
<trkpt lat="51.143614" lon="7.676249"><ele>519.8</ele><time>2020-08-16T16:08:58Z</time></trkpt>
<trkpt lat="51.143543" lon="7.676333"><ele>519.8</ele><time>2020-08-16T16:08:59Z</time></trkpt>
<trkpt lat="51.143427" lon="7.676393"><ele>519.8</ele><time>2020-08-16T16:08:59Z</time></trkpt>
<trkpt lat="51.142821" lon="7.676426"><ele>519.2</ele><time>2020-08-16T16:09:03Z</time></trkpt>
<trkpt lat="51.142547" lon="7.676511"><ele>519.2</ele><time>2020-08-16T16:09:04Z</time></trkpt>
<trkpt lat="51.141781" lon="7.676924"><ele>524.6</ele><time>2020-08-16T16:09:09Z</time></trkpt>
<trkpt lat="51.141191" lon="7.677415"><ele>527.0</ele><time>2020-08-16T16:09:13Z</time></trkpt>
<trkpt lat="51.141054" lon="7.677451"><ele>527.0</ele><time>2020-08-16T16:09:14Z</time></trkpt>
<trkpt lat="51.140954" lon="7.677452"><ele>527.0</ele><time>2020-08-16T16:09:14Z</time></trkpt>
<trkpt lat="51.140814" lon="7.677393"><ele>534.6</ele><time>2020-08-16T16:09:15Z</time></trkpt>
<trkpt lat="51.140346" lon="7.677077"><ele>534.6</ele><time>2020-08-16T16:09:18Z</time></trkpt>
<trkpt lat="51.140187" lon="7.676887"><ele>534.6</ele><time>2020-08-16T16:09:19Z</time></trkpt>
<trkpt lat="51.140074" lon="7.676702"><ele>534.6</ele><time>2020-08-16T16:09:20Z</time></trkpt>
<trkpt lat="51.139927" lon="7.676383"><ele>534.6</ele><time>2020-08-16T16:09:22Z</time></trkpt>
<trkpt lat="51.139731" lon="7.676064"><ele>534.6</ele><time>2020-08-16T16:09:23Z</time></trkpt>
<trkpt lat="51.13957" lon="7.675929"><ele>534.6</ele><time>2020-08-16T16:09:24Z</time></trkpt>
<trkpt lat="51.139472" lon="7.675879"><ele>534.6</ele><time>2020-08-16T16:09:25Z</time></trkpt>
<trkpt lat="51.139346" lon="7.67584"><ele>534.6</ele><time>2020-08-16T16:09:26Z</time></trkpt>
<trkpt lat="51.138092" lon="7.675654"><ele>538.0</ele><time>2020-08-16T16:09:33Z</time></trkpt>
<trkpt lat="51.13791" lon="7.675683"><ele>538.0</ele><time>2020-08-16T16:09:34Z</time></trkpt>
<trkpt lat="51.137343" lon="7.67604"><ele>547.0</ele><time>2020-08-16T16:09:37Z</time></trkpt>
<trkpt lat="51.136947" lon="7.676079"><ele>547.0</ele><time>2020-08-16T16:09:40Z</time></trkpt>
<trkpt lat="51.135087" lon="7.674613"><ele>540.4</ele><time>2020-08-16T16:09:52Z</time></trkpt>
<trkpt lat="51.134849" lon="7.674599"><ele>547.0</ele><time>2020-08-16T16:09:53Z</time></trkpt>
<trkpt lat="51.134849" lon="7.674599"><ele>547.0</ele><time>2020-08-16T16:09:53Z</time></trkpt>
<trkpt lat="51.13479" lon="7.674601"><ele>547.0</ele><time>2020-08-16T16:09:54Z</time></trkpt>
<trkpt lat="51.134533" lon="7.674937"><ele>547.0</ele><time>2020-08-16T16:09:56Z</time></trkpt>
<trkpt lat="51.13435" lon="7.675111"><ele>545.8</ele><time>2020-08-16T16:09:57Z</time></trkpt>
<trkpt lat="51.133992" lon="7.675402"><ele>555.8</ele><time>2020-08-16T16:10:00Z</time></trkpt>
<trkpt lat="51.133847" lon="7.675558"><ele>555.8</ele><time>2020-08-16T16:10:01Z</time></trkpt>
<trkpt lat="51.133798" lon="7.675637"><ele>555.8</ele><time>2020-08-16T16:10:02Z</time></trkpt>
<trkpt lat="51.133751" lon="7.675779"><ele>555.8</ele><time>2020-08-16T16:10:02Z</time></trkpt>
<trkpt lat="51.133626" lon="7.676615"><ele>554.8</ele><time>2020-08-16T16:10:06Z</time></trkpt>
<trkpt lat="51.133503" lon="7.677036"><ele>552.2</ele><time>2020-08-16T16:10:08Z</time></trkpt>
<trkpt lat="51.133191" lon="7.677957"><ele>557.6</ele><time>2020-08-16T16:10:13Z</time></trkpt>
<trkpt lat="51.133091" lon="7.678204"><ele>557.6</ele><time>2020-08-16T16:10:14Z</time></trkpt>
<trkpt lat="51.132865" lon="7.678486"><ele>548.6</ele><time>2020-08-16T16:10:16Z</time></trkpt>
<trkpt lat="51.132777" lon="7.678531"><ele>548.6</ele><time>2020-08-16T16:10:16Z</time></trkpt>
<trkpt lat="51.132451" lon="7.678863"><ele>556.2</ele><time>2020-08-16T16:10:19Z</time></trkpt>
<trkpt lat="51.131184" lon="7.680365"><ele>548.2</ele><time>2020-08-16T16:10:30Z</time></trkpt>
<trkpt lat="51.130953" lon="7.680532"><ele>548.2</ele><time>2020-08-16T16:10:32Z</time></trkpt>
<trkpt lat="51.130053" lon="7.681042"><ele>554.0</ele><time>2020-08-16T16:10:38Z</time></trkpt>
<trkpt lat="51.129909" lon="7.681204"><ele>567.2</ele><time>2020-08-16T16:10:39Z</time></trkpt>
<trkpt lat="51.129759" lon="7.681861"><ele>565.6</ele><time>2020-08-16T16:10:42Z</time></trkpt>
<trkpt lat="51.129379" lon="7.683046"><ele>564.4</ele><time>2020-08-16T16:10:48Z</time></trkpt>
<trkpt lat="51.129315" lon="7.683177"><ele>564.4</ele><time>2020-08-16T16:10:49Z</time></trkpt>
<trkpt lat="51.129019" lon="7.684088"><ele>579.2</ele><time>2020-08-16T16:10:53Z</time></trkpt>
<trkpt lat="51.128858" lon="7.684742"><ele>578.0</ele><time>2020-08-16T16:10:56Z</time></trkpt>
<trkpt lat="51.128717" lon="7.685408"><ele>575.6</ele><time>2020-08-16T16:10:59Z</time></trkpt>
<trkpt lat="51.128689" lon="7.6856"><ele>575.6</ele><time>2020-08-16T16:11:00Z</time></trkpt>
<trkpt lat="51.128697" lon="7.685981"><ele>573.8</ele><time>2020-08-16T16:11:02Z</time></trkpt>
<trkpt lat="51.128897" lon="7.688008"><ele>576.2</ele><time>2020-08-16T16:11:11Z</time></trkpt>
<trkpt lat="51.128859" lon="7.688986"><ele>579.8</ele><time>2020-08-16T16:11:15Z</time></trkpt>
<trkpt lat="51.128866" lon="7.689828"><ele>582.6</ele><time>2020-08-16T16:11:18Z</time></trkpt>
<trkpt lat="51.129014" lon="7.691605"><ele>581.8</ele><time>2020-08-16T16:11:26Z</time></trkpt>
<trkpt lat="51.128997" lon="7.691862"><ele>578.4</ele><time>2020-08-16T16:11:27Z</time></trkpt>
<trkpt lat="51.128638" lon="7.695154"><ele>565.6</ele><time>2020-08-16T16:11:41Z</time></trkpt>
<trkpt lat="51.12815" lon="7.696475"><ele>554.2</ele><time>2020-08-16T16:11:48Z</time></trkpt>
<trkpt lat="51.128065" lon="7.696602"><ele>554.2</ele><time>2020-08-16T16:11:49Z</time></trkpt>
<trkpt lat="51.128065" lon="7.696602"><ele>554.2</ele><time>2020-08-16T16:11:49Z</time></trkpt>
<trkpt lat="51.126917" lon="7.697489"><ele>547.0</ele><time>2020-08-16T16:11:56Z</time></trkpt>
<trkpt lat="51.126685" lon="7.697594"><ele>549.0</ele><time>2020-08-16T16:11:58Z</time></trkpt>
<trkpt lat="51.126532" lon="7.697607"><ele>541.0</ele><time>2020-08-16T16:11:59Z</time></trkpt>
<trkpt lat="51.125793" lon="7.697518"><ele>535.2</ele><time>2020-08-16T16:12:03Z</time></trkpt>
<trkpt lat="51.125429" lon="7.697513"><ele>535.2</ele><time>2020-08-16T16:12:05Z</time></trkpt>
<trkpt lat="51.124744" lon="7.697395"><ele>528.6</ele><time>2020-08-16T16:12:09Z</time></trkpt>
<trkpt lat="51.124311" lon="7.697435"><ele>528.6</ele><time>2020-08-16T16:12:12Z</time></trkpt>
<trkpt lat="51.123673" lon="7.69771"><ele>524.4</ele><time>2020-08-16T16:12:15Z</time></trkpt>
<trkpt lat="51.123353" lon="7.697767"><ele>524.4</ele><time>2020-08-16T16:12:17Z</time></trkpt>
<trkpt lat="51.123153" lon="7.697872"><ele>518.4</ele><time>2020-08-16T16:12:18Z</time></trkpt>
<trkpt lat="51.12295" lon="7.698082"><ele>518.4</ele><time>2020-08-16T16:12:20Z</time></trkpt>
<trkpt lat="51.122823" lon="7.698285"><ele>518.4</ele><time>2020-08-16T16:12:21Z</time></trkpt>
<trkpt lat="51.122656" lon="7.698752"><ele>519.8</ele><time>2020-08-16T16:12:23Z</time></trkpt>
<trkpt lat="51.122586" lon="7.698866"><ele>519.8</ele><time>2020-08-16T16:12:23Z</time></trkpt>
<trkpt lat="51.122012" lon="7.699163"><ele>509.4</ele><time>2020-08-16T16:12:27Z</time></trkpt>
<trkpt lat="51.121666" lon="7.699371"><ele>498.6</ele><time>2020-08-16T16:12:29Z</time></trkpt>
<trkpt lat="51.121532" lon="7.699501"><ele>498.6</ele><time>2020-08-16T16:12:30Z</time></trkpt>
<trkpt lat="51.121445" lon="7.699667"><ele>498.6</ele><time>2020-08-16T16:12:31Z</time></trkpt>
<trkpt lat="51.121358" lon="7.699994"><ele>498.6</ele><time>2020-08-16T16:12:32Z</time></trkpt>
<trkpt lat="51.121166" lon="7.701378"><ele>497.2</ele><time>2020-08-16T16:12:37Z</time></trkpt>
<trkpt lat="51.120986" lon="7.702244"><ele>493.2</ele><time>2020-08-16T16:12:40Z</time></trkpt>
<trkpt lat="51.120896" lon="7.702811"><ele>490.6</ele><time>2020-08-16T16:12:43Z</time></trkpt>
<trkpt lat="51.120693" lon="7.705089"><ele>476.8</ele><time>2020-08-16T16:12:51Z</time></trkpt>
<trkpt lat="51.120595" lon="7.705492"><ele>476.8</ele><time>2020-08-16T16:12:53Z</time></trkpt>
<trkpt lat="51.120403" lon="7.705829"><ele>476.8</ele><time>2020-08-16T16:12:54Z</time></trkpt>
<trkpt lat="51.120072" lon="7.706335"><ele>480.2</ele><time>2020-08-16T16:12:57Z</time></trkpt>
<trkpt lat="51.119636" lon="7.706759"><ele>477.2</ele><time>2020-08-16T16:13:00Z</time></trkpt>
<trkpt lat="51.118566" lon="7.707133"><ele>469.6</ele><time>2020-08-16T16:13:06Z</time></trkpt>
<trkpt lat="51.118142" lon="7.70753"><ele>460.6</ele><time>2020-08-16T16:13:09Z</time></trkpt>
<trkpt lat="51.11787" lon="7.707952"><ele>460.6</ele><time>2020-08-16T16:13:11Z</time></trkpt>
<trkpt lat="51.116608" lon="7.710331"><ele>437.2</ele><time>2020-08-16T16:13:22Z</time></trkpt>
<trkpt lat="51.116043" lon="7.711103"><ele>441.2</ele><time>2020-08-16T16:13:27Z</time></trkpt>
<trkpt lat="51.1153" lon="7.711716"><ele>435.0</ele><time>2020-08-16T16:13:32Z</time></trkpt>
<trkpt lat="51.115066" lon="7.711843"><ele>435.0</ele><time>2020-08-16T16:13:33Z</time></trkpt>
<trkpt lat="51.114368" lon="7.711961"><ele>429.4</ele><time>2020-08-16T16:13:37Z</time></trkpt>
<trkpt lat="51.113967" lon="7.712152"><ele>430.2</ele><time>2020-08-16T16:13:39Z</time></trkpt>
<trkpt lat="51.11363" lon="7.712217"><ele>430.2</ele><time>2020-08-16T16:13:41Z</time></trkpt>
<trkpt lat="51.112798" lon="7.71174"><ele>431.8</ele><time>2020-08-16T16:13:46Z</time></trkpt>
<trkpt lat="51.112168" lon="7.711552"><ele>423.2</ele><time>2020-08-16T16:13:50Z</time></trkpt>
<trkpt lat="51.11188" lon="7.711626"><ele>423.2</ele><time>2020-08-16T16:13:52Z</time></trkpt>
<trkpt lat="51.111341" lon="7.711874"><ele>424.4</ele><time>2020-08-16T16:13:55Z</time></trkpt>
<trkpt lat="51.11112" lon="7.712103"><ele>424.4</ele><time>2020-08-16T16:13:57Z</time></trkpt>
<trkpt lat="51.110122" lon="7.712026"><ele>419.4</ele><time>2020-08-16T16:14:02Z</time></trkpt>
<trkpt lat="51.109852" lon="7.712162"><ele>413.8</ele><time>2020-08-16T16:14:04Z</time></trkpt>
<trkpt lat="51.108975" lon="7.713469"><ele>407.8</ele><time>2020-08-16T16:14:11Z</time></trkpt>
<trkpt lat="51.108653" lon="7.714011"><ele>407.8</ele><time>2020-08-16T16:14:14Z</time></trkpt>
<trkpt lat="51.108531" lon="7.714126"><ele>407.8</ele><time>2020-08-16T16:14:14Z</time></trkpt>
<trkpt lat="51.108399" lon="7.714083"><ele>407.8</ele><time>2020-08-16T16:14:15Z</time></trkpt>
<trkpt lat="51.1084" lon="7.714061"><ele>407.8</ele><time>2020-08-16T16:14:16Z</time></trkpt>
<trkpt lat="51.1084" lon="7.714061"><ele>407.8</ele><time>2020-08-16T16:14:16Z</time></trkpt>
<trkpt lat="51.10829" lon="7.714685"><ele>415.6</ele><time>2020-08-16T16:14:18Z</time></trkpt>
<trkpt lat="51.108168" lon="7.715215"><ele>417.0</ele><time>2020-08-16T16:14:20Z</time></trkpt>
<trkpt lat="51.108001" lon="7.715583"><ele>417.0</ele><time>2020-08-16T16:14:22Z</time></trkpt>
<trkpt lat="51.108502" lon="7.717218"><ele>402.2</ele><time>2020-08-16T16:14:31Z</time></trkpt>
<trkpt lat="51.108669" lon="7.717988"><ele>401.2</ele><time>2020-08-16T16:14:35Z</time></trkpt>
<trkpt lat="51.108727" lon="7.718347"><ele>400.8</ele><time>2020-08-16T16:14:37Z</time></trkpt>
<trkpt lat="51.108758" lon="7.718726"><ele>400.8</ele><time>2020-08-16T16:14:39Z</time></trkpt>
<trkpt lat="51.108767" lon="7.719182"><ele>400.4</ele><time>2020-08-16T16:14:41Z</time></trkpt>
<trkpt lat="51.108733" lon="7.719714"><ele>400.4</ele><time>2020-08-16T16:14:44Z</time></trkpt>
<trkpt lat="51.108693" lon="7.720068"><ele>400.4</ele><time>2020-08-16T16:14:45Z</time></trkpt>
<trkpt lat="51.108617" lon="7.720464"><ele>400.4</ele><time>2020-08-16T16:14:48Z</time></trkpt>
<trkpt lat="51.107944" lon="7.722228"><ele>404.2</ele><time>2020-08-16T16:14:58Z</time></trkpt>
<trkpt lat="51.107857" lon="7.722567"><ele>400.0</ele><time>2020-08-16T16:15:00Z</time></trkpt>
<trkpt lat="51.107819" lon="7.722793"><ele>400.0</ele><time>2020-08-16T16:15:01Z</time></trkpt>
<trkpt lat="51.107774" lon="7.723228"><ele>400.0</ele><time>2020-08-16T16:15:03Z</time></trkpt>
<trkpt lat="51.107765" lon="7.723706"><ele>397.4</ele><time>2020-08-16T16:15:06Z</time></trkpt>
<trkpt lat="51.107804" lon="7.724343"><ele>396.6</ele><time>2020-08-16T16:15:09Z</time></trkpt>
<trkpt lat="51.107903" lon="7.724807"><ele>396.6</ele><time>2020-08-16T16:15:11Z</time></trkpt>
<trkpt lat="51.108019" lon="7.725217"><ele>397.2</ele><time>2020-08-16T16:15:13Z</time></trkpt>
<trkpt lat="51.108296" lon="7.725826"><ele>397.2</ele><time>2020-08-16T16:15:17Z</time></trkpt>
<trkpt lat="51.10791" lon="7.72621"><ele>401.0</ele><time>2020-08-16T16:15:20Z</time></trkpt>
<trkpt lat="51.107641" lon="7.726381"><ele>401.0</ele><time>2020-08-16T16:15:21Z</time></trkpt>
<trkpt lat="51.107337" lon="7.726476"><ele>399.2</ele><time>2020-08-16T16:15:23Z</time></trkpt>
<trkpt lat="51.106706" lon="7.726338"><ele>399.2</ele><time>2020-08-16T16:15:26Z</time></trkpt>
<trkpt lat="51.105765" lon="7.725724"><ele>392.4</ele><time>2020-08-16T16:15:32Z</time></trkpt>
<trkpt lat="51.105545" lon="7.725655"><ele>392.4</ele><time>2020-08-16T16:15:33Z</time></trkpt>
<trkpt lat="51.105253" lon="7.725661"><ele>392.4</ele><time>2020-08-16T16:15:35Z</time></trkpt>
<trkpt lat="51.104821" lon="7.725809"><ele>393.6</ele><time>2020-08-16T16:15:37Z</time></trkpt>
<trkpt lat="51.104308" lon="7.726261"><ele>394.4</ele><time>2020-08-16T16:15:40Z</time></trkpt>
<trkpt lat="51.104016" lon="7.726484"><ele>395.4</ele><time>2020-08-16T16:15:42Z</time></trkpt>
<trkpt lat="51.103698" lon="7.726786"><ele>391.6</ele><time>2020-08-16T16:15:44Z</time></trkpt>
<trkpt lat="51.103281" lon="7.727986"><ele>392.0</ele><time>2020-08-16T16:15:49Z</time></trkpt>
<trkpt lat="51.103145" lon="7.728493"><ele>390.2</ele><time>2020-08-16T16:15:51Z</time></trkpt>
<trkpt lat="51.103096" lon="7.729077"><ele>390.2</ele><time>2020-08-16T16:15:53Z</time></trkpt>
<trkpt lat="51.10309" lon="7.729651"><ele>390.2</ele><time>2020-08-16T16:15:54Z</time></trkpt>
<trkpt lat="51.103035" lon="7.730081"><ele>391.0</ele><time>2020-08-16T16:15:56Z</time></trkpt>
<trkpt lat="51.103061" lon="7.730541"><ele>391.0</ele><time>2020-08-16T16:15:57Z</time></trkpt>
<trkpt lat="51.103353" lon="7.732535"><ele>397.8</ele><time>2020-08-16T16:16:04Z</time></trkpt>
<trkpt lat="51.103322" lon="7.734123"><ele>386.6</ele><time>2020-08-16T16:16:10Z</time></trkpt>
<trkpt lat="51.103275" lon="7.735067"><ele>387.6</ele><time>2020-08-16T16:16:13Z</time></trkpt>
<trkpt lat="51.103363" lon="7.736476"><ele>384.0</ele><time>2020-08-16T16:16:18Z</time></trkpt>
<trkpt lat="51.103317" lon="7.736918"><ele>390.2</ele><time>2020-08-16T16:16:19Z</time></trkpt>
<trkpt lat="51.103261" lon="7.737858"><ele>392.0</ele><time>2020-08-16T16:16:23Z</time></trkpt>
<trkpt lat="51.103293" lon="7.738289"><ele>392.0</ele><time>2020-08-16T16:16:24Z</time></trkpt>
<trkpt lat="51.103539" lon="7.739197"><ele>385.4</ele><time>2020-08-16T16:16:27Z</time></trkpt>
<trkpt lat="51.103615" lon="7.739941"><ele>385.4</ele><time>2020-08-16T16:16:30Z</time></trkpt>
<trkpt lat="51.103603" lon="7.741185"><ele>386.0</ele><time>2020-08-16T16:16:34Z</time></trkpt>
<trkpt lat="51.10355" lon="7.741832"><ele>387.4</ele><time>2020-08-16T16:16:36Z</time></trkpt>
<trkpt lat="51.103472" lon="7.742366"><ele>387.4</ele><time>2020-08-16T16:16:38Z</time></trkpt>
<trkpt lat="51.102238" lon="7.745207"><ele>384.8</ele><time>2020-08-16T16:16:50Z</time></trkpt>
<trkpt lat="51.101804" lon="7.746094"><ele>385.0</ele><time>2020-08-16T16:16:54Z</time></trkpt>
<trkpt lat="51.101697" lon="7.746208"><ele>381.1</ele><time>2020-08-16T16:16:54Z</time></trkpt>
<trkpt lat="51.101697" lon="7.746208"><ele>381.1</ele><time>2020-08-16T16:16:54Z</time></trkpt>
<trkpt lat="51.100665" lon="7.747297"><ele>377.2</ele><time>2020-08-16T16:17:00Z</time></trkpt>
<trkpt lat="51.100534" lon="7.747178"><ele>377.2</ele><time>2020-08-16T16:17:01Z</time></trkpt>
<trkpt lat="51.099931" lon="7.746906"><ele>378.2</ele><time>2020-08-16T16:17:04Z</time></trkpt>
<trkpt lat="51.099381" lon="7.746729"><ele>378.2</ele><time>2020-08-16T16:17:07Z</time></trkpt>
<trkpt lat="51.099177" lon="7.746767"><ele>378.2</ele><time>2020-08-16T16:17:07Z</time></trkpt>
<trkpt lat="51.097067" lon="7.747968"><ele>384.2</ele><time>2020-08-16T16:17:18Z</time></trkpt>
<trkpt lat="51.096221" lon="7.7484"><ele>377.4</ele><time>2020-08-16T16:17:22Z</time></trkpt>
<trkpt lat="51.094596" lon="7.74889"><ele>380.4</ele><time>2020-08-16T16:17:30Z</time></trkpt>
<trkpt lat="51.094025" lon="7.749158"><ele>378.8</ele><time>2020-08-16T16:17:33Z</time></trkpt>
<trkpt lat="51.093482" lon="7.749523"><ele>372.8</ele><time>2020-08-16T16:17:36Z</time></trkpt>
<trkpt lat="51.093163" lon="7.74989"><ele>385.0</ele><time>2020-08-16T16:17:37Z</time></trkpt>
<trkpt lat="51.093062" lon="7.750118"><ele>376.6</ele><time>2020-08-16T16:17:38Z</time></trkpt>
<trkpt lat="51.092988" lon="7.750354"><ele>376.6</ele><time>2020-08-16T16:17:39Z</time></trkpt>
<trkpt lat="51.092762" lon="7.751457"><ele>371.6</ele><time>2020-08-16T16:17:43Z</time></trkpt>
<trkpt lat="51.092611" lon="7.751851"><ele>372.2</ele><time>2020-08-16T16:17:44Z</time></trkpt>
<trkpt lat="51.092307" lon="7.752138"><ele>374.2</ele><time>2020-08-16T16:17:46Z</time></trkpt>
<trkpt lat="51.091883" lon="7.752303"><ele>374.2</ele><time>2020-08-16T16:17:48Z</time></trkpt>
<trkpt lat="51.091241" lon="7.752452"><ele>374.4</ele><time>2020-08-16T16:17:51Z</time></trkpt>
<trkpt lat="51.090572" lon="7.752652"><ele>375.2</ele><time>2020-08-16T16:17:54Z</time></trkpt>
<trkpt lat="51.090027" lon="7.752931"><ele>375.2</ele><time>2020-08-16T16:17:57Z</time></trkpt>
<trkpt lat="51.089458" lon="7.753352"><ele>371.0</ele><time>2020-08-16T16:17:59Z</time></trkpt>
<trkpt lat="51.089308" lon="7.753476"><ele>371.0</ele><time>2020-08-16T16:18:00Z</time></trkpt>
<trkpt lat="51.088669" lon="7.754109"><ele>368.0</ele><time>2020-08-16T16:18:04Z</time></trkpt>
<trkpt lat="51.087026" lon="7.755828"><ele>366.0</ele><time>2020-08-16T16:18:13Z</time></trkpt>
<trkpt lat="51.086629" lon="7.756267"><ele>363.0</ele><time>2020-08-16T16:18:15Z</time></trkpt>
<trkpt lat="51.086219" lon="7.756664"><ele>363.0</ele><time>2020-08-16T16:18:18Z</time></trkpt>
<trkpt lat="51.085344" lon="7.757639"><ele>356.4</ele><time>2020-08-16T16:18:23Z</time></trkpt>
<trkpt lat="51.084842" lon="7.758136"><ele>352.6</ele><time>2020-08-16T16:18:25Z</time></trkpt>
<trkpt lat="51.084567" lon="7.758353"><ele>359.4</ele><time>2020-08-16T16:18:27Z</time></trkpt>
<trkpt lat="51.084298" lon="7.758511"><ele>359.4</ele><time>2020-08-16T16:18:28Z</time></trkpt>
<trkpt lat="51.083594" lon="7.758739"><ele>356.6</ele><time>2020-08-16T16:18:32Z</time></trkpt>
<trkpt lat="51.083174" lon="7.758727"><ele>358.6</ele><time>2020-08-16T16:18:34Z</time></trkpt>
<trkpt lat="51.082848" lon="7.758671"><ele>358.6</ele><time>2020-08-16T16:18:35Z</time></trkpt>
<trkpt lat="51.082149" lon="7.758447"><ele>363.6</ele><time>2020-08-16T16:18:38Z</time></trkpt>
<trkpt lat="51.081667" lon="7.758236"><ele>354.0</ele><time>2020-08-16T16:18:41Z</time></trkpt>
<trkpt lat="51.081182" lon="7.758134"><ele>356.2</ele><time>2020-08-16T16:18:43Z</time></trkpt>
<trkpt lat="51.080716" lon="7.758112"><ele>353.2</ele><time>2020-08-16T16:18:45Z</time></trkpt>
<trkpt lat="51.080245" lon="7.758176"><ele>353.2</ele><time>2020-08-16T16:18:48Z</time></trkpt>
<trkpt lat="51.079737" lon="7.75835"><ele>350.2</ele><time>2020-08-16T16:18:50Z</time></trkpt>
<trkpt lat="51.079084" lon="7.758831"><ele>344.8</ele><time>2020-08-16T16:18:53Z</time></trkpt>
<trkpt lat="51.078656" lon="7.759312"><ele>346.4</ele><time>2020-08-16T16:18:56Z</time></trkpt>
<trkpt lat="51.078288" lon="7.759901"><ele>346.6</ele><time>2020-08-16T16:18:58Z</time></trkpt>
<trkpt lat="51.077969" lon="7.760501"><ele>345.0</ele><time>2020-08-16T16:19:01Z</time></trkpt>
<trkpt lat="51.077701" lon="7.761206"><ele>345.8</ele><time>2020-08-16T16:19:03Z</time></trkpt>
<trkpt lat="51.0775" lon="7.76192"><ele>349.0</ele><time>2020-08-16T16:19:05Z</time></trkpt>
<trkpt lat="51.077411" lon="7.76231"><ele>349.0</ele><time>2020-08-16T16:19:07Z</time></trkpt>
<trkpt lat="51.077323" lon="7.763043"><ele>348.7</ele><time>2020-08-16T16:19:09Z</time></trkpt>
<trkpt lat="51.077323" lon="7.763043"><ele>348.7</ele><time>2020-08-16T16:19:09Z</time></trkpt>
<trkpt lat="51.077226" lon="7.763804"><ele>348.0</ele><time>2020-08-16T16:19:13Z</time></trkpt>
<trkpt lat="51.077186" lon="7.764401"><ele>348.8</ele><time>2020-08-16T16:19:15Z</time></trkpt>
<trkpt lat="51.077201" lon="7.764856"><ele>348.8</ele><time>2020-08-16T16:19:18Z</time></trkpt>
<trkpt lat="51.077268" lon="7.765551"><ele>349.8</ele><time>2020-08-16T16:19:21Z</time></trkpt>
<trkpt lat="51.077899" lon="7.769746"><ele>348.0</ele><time>2020-08-16T16:19:42Z</time></trkpt>
<trkpt lat="51.07838" lon="7.772737"><ele>343.0</ele><time>2020-08-16T16:19:57Z</time></trkpt>
<trkpt lat="51.078905" lon="7.775204"><ele>339.2</ele><time>2020-08-16T16:20:09Z</time></trkpt>
<trkpt lat="51.078987" lon="7.775803"><ele>339.2</ele><time>2020-08-16T16:20:12Z</time></trkpt>
<trkpt lat="51.078968" lon="7.776323"><ele>339.6</ele><time>2020-08-16T16:20:15Z</time></trkpt>
<trkpt lat="51.078843" lon="7.777038"><ele>340.4</ele><time>2020-08-16T16:20:18Z</time></trkpt>
<trkpt lat="51.078625" lon="7.778099"><ele>340.8</ele><time>2020-08-16T16:20:24Z</time></trkpt>
<trkpt lat="51.078449" lon="7.779161"><ele>341.6</ele><time>2020-08-16T16:20:29Z</time></trkpt>
<trkpt lat="51.078201" lon="7.780826"><ele>344.8</ele><time>2020-08-16T16:20:37Z</time></trkpt>
<trkpt lat="51.07812" lon="7.781603"><ele>344.6</ele><time>2020-08-16T16:20:41Z</time></trkpt>
<trkpt lat="51.078149" lon="7.782103"><ele>345.8</ele><time>2020-08-16T16:20:44Z</time></trkpt>
<trkpt lat="51.078243" lon="7.78258"><ele>352.0</ele><time>2020-08-16T16:20:46Z</time></trkpt>
<trkpt lat="51.07851" lon="7.783227"><ele>341.0</ele><time>2020-08-16T16:20:50Z</time></trkpt>
<trkpt lat="51.079501" lon="7.784543"><ele>343.4</ele><time>2020-08-16T16:21:00Z</time></trkpt>
<trkpt lat="51.079986" lon="7.785384"><ele>344.2</ele><time>2020-08-16T16:21:05Z</time></trkpt>
<trkpt lat="51.080422" lon="7.786044"><ele>344.4</ele><time>2020-08-16T16:21:10Z</time></trkpt>
<trkpt lat="51.080658" lon="7.78667"><ele>342.6</ele><time>2020-08-16T16:21:14Z</time></trkpt>
<trkpt lat="51.080764" lon="7.787147"><ele>342.6</ele><time>2020-08-16T16:21:16Z</time></trkpt>
<trkpt lat="51.080817" lon="7.787652"><ele>341.0</ele><time>2020-08-16T16:21:18Z</time></trkpt>
<trkpt lat="51.080746" lon="7.788686"><ele>340.2</ele><time>2020-08-16T16:21:23Z</time></trkpt>
<trkpt lat="51.080618" lon="7.7897"><ele>339.0</ele><time>2020-08-16T16:21:28Z</time></trkpt>
<trkpt lat="51.080508" lon="7.790276"><ele>336.8</ele><time>2020-08-16T16:21:31Z</time></trkpt>
<trkpt lat="51.080464" lon="7.790748"><ele>336.8</ele><time>2020-08-16T16:21:34Z</time></trkpt>
<trkpt lat="51.080503" lon="7.791087"><ele>334.4</ele><time>2020-08-16T16:21:35Z</time></trkpt>
<trkpt lat="51.080571" lon="7.791197"><ele>334.4</ele><time>2020-08-16T16:21:36Z</time></trkpt>
<trkpt lat="51.080681" lon="7.791285"><ele>334.4</ele><time>2020-08-16T16:21:37Z</time></trkpt>
<trkpt lat="51.080864" lon="7.791365"><ele>333.4</ele><time>2020-08-16T16:21:39Z</time></trkpt>
<trkpt lat="51.081114" lon="7.791526"><ele>333.4</ele><time>2020-08-16T16:21:41Z</time></trkpt>
<trkpt lat="51.081262" lon="7.791748"><ele>331.0</ele><time>2020-08-16T16:21:42Z</time></trkpt>
<trkpt lat="51.081306" lon="7.792007"><ele>331.0</ele><time>2020-08-16T16:21:43Z</time></trkpt>
<trkpt lat="51.081292" lon="7.792111"><ele>330.8</ele><time>2020-08-16T16:21:44Z</time></trkpt>
<trkpt lat="51.081292" lon="7.792111"><ele>330.8</ele><time>2020-08-16T16:21:44Z</time></trkpt>
<trkpt lat="51.081005" lon="7.794374"><ele>332.6</ele><time>2020-08-16T16:21:59Z</time></trkpt>
<trkpt lat="51.080788" lon="7.795368"><ele>326.0</ele><time>2020-08-16T16:22:06Z</time></trkpt>
<trkpt lat="51.080674" lon="7.795718"><ele>326.0</ele><time>2020-08-16T16:22:08Z</time></trkpt>
<trkpt lat="51.080484" lon="7.796085"><ele>325.0</ele><time>2020-08-16T16:22:11Z</time></trkpt>
<trkpt lat="51.080405" lon="7.796293"><ele>325.0</ele><time>2020-08-16T16:22:13Z</time></trkpt>
<trkpt lat="51.080349" lon="7.796624"><ele>325.0</ele><time>2020-08-16T16:22:15Z</time></trkpt>
<trkpt lat="51.080298" lon="7.797242"><ele>325.0</ele><time>2020-08-16T16:22:19Z</time></trkpt>
<trkpt lat="51.080208" lon="7.797332"><ele>325.0</ele><time>2020-08-16T16:22:19Z</time></trkpt>
<trkpt lat="51.079911" lon="7.797557"><ele>323.4</ele><time>2020-08-16T16:22:21Z</time></trkpt>
<trkpt lat="51.079787" lon="7.797685"><ele>323.4</ele><time>2020-08-16T16:22:22Z</time></trkpt>
<trkpt lat="51.079677" lon="7.797906"><ele>323.4</ele><time>2020-08-16T16:22:23Z</time></trkpt>
<trkpt lat="51.07957" lon="7.798262"><ele>323.4</ele><time>2020-08-16T16:22:24Z</time></trkpt>
<trkpt lat="51.079299" lon="7.799314"><ele>328.0</ele><time>2020-08-16T16:22:27Z</time></trkpt>
<trkpt lat="51.078913" lon="7.80017"><ele>324.2</ele><time>2020-08-16T16:22:30Z</time></trkpt>
<trkpt lat="51.078437" lon="7.801113"><ele>327.2</ele><time>2020-08-16T16:22:34Z</time></trkpt>
<trkpt lat="51.077745" lon="7.802331"><ele>324.0</ele><time>2020-08-16T16:22:39Z</time></trkpt>
<trkpt lat="51.077487" lon="7.802742"><ele>322.6</ele><time>2020-08-16T16:22:40Z</time></trkpt>
<trkpt lat="51.077274" lon="7.802967"><ele>322.6</ele><time>2020-08-16T16:22:42Z</time></trkpt>
<trkpt lat="51.077127" lon="7.803079"><ele>322.6</ele><time>2020-08-16T16:22:42Z</time></trkpt>
<trkpt lat="51.076834" lon="7.803423"><ele>323.8</ele><time>2020-08-16T16:22:44Z</time></trkpt>
<trkpt lat="51.076744" lon="7.803583"><ele>323.8</ele><time>2020-08-16T16:22:45Z</time></trkpt>
<trkpt lat="51.076674" lon="7.803763"><ele>323.8</ele><time>2020-08-16T16:22:45Z</time></trkpt>
<trkpt lat="51.076536" lon="7.804302"><ele>322.4</ele><time>2020-08-16T16:22:47Z</time></trkpt>
<trkpt lat="51.076375" lon="7.804704"><ele>322.4</ele><time>2020-08-16T16:22:49Z</time></trkpt>
<trkpt lat="51.076239" lon="7.80491"><ele>322.4</ele><time>2020-08-16T16:22:49Z</time></trkpt>
<trkpt lat="51.076135" lon="7.805124"><ele>323.4</ele><time>2020-08-16T16:22:50Z</time></trkpt>
<trkpt lat="51.076047" lon="7.80542"><ele>323.4</ele><time>2020-08-16T16:22:51Z</time></trkpt>
<trkpt lat="51.075992" lon="7.805724"><ele>323.4</ele><time>2020-08-16T16:22:52Z</time></trkpt>
<trkpt lat="51.075924" lon="7.806281"><ele>325.0</ele><time>2020-08-16T16:22:54Z</time></trkpt>
<trkpt lat="51.075879" lon="7.806489"><ele>325.0</ele><time>2020-08-16T16:22:54Z</time></trkpt>
<trkpt lat="51.075776" lon="7.80671"><ele>324.6</ele><time>2020-08-16T16:22:55Z</time></trkpt>
<trkpt lat="51.075697" lon="7.806828"><ele>324.6</ele><time>2020-08-16T16:22:56Z</time></trkpt>
<trkpt lat="51.075592" lon="7.80693"><ele>324.6</ele><time>2020-08-16T16:22:56Z</time></trkpt>
<trkpt lat="51.075511" lon="7.806966"><ele>324.6</ele><time>2020-08-16T16:22:57Z</time></trkpt>
<trkpt lat="51.075378" lon="7.806976"><ele>324.6</ele><time>2020-08-16T16:22:57Z</time></trkpt>
<trkpt lat="51.075117" lon="7.806919"><ele>324.6</ele><time>2020-08-16T16:22:59Z</time></trkpt>
<trkpt lat="51.074956" lon="7.806915"><ele>323.2</ele><time>2020-08-16T16:22:59Z</time></trkpt>
<trkpt lat="51.074681" lon="7.807"><ele>323.2</ele><time>2020-08-16T16:23:01Z</time></trkpt>
<trkpt lat="51.074487" lon="7.807107"><ele>323.2</ele><time>2020-08-16T16:23:02Z</time></trkpt>
<trkpt lat="51.074198" lon="7.807329"><ele>323.2</ele><time>2020-08-16T16:23:03Z</time></trkpt>
<trkpt lat="51.073802" lon="7.807706"><ele>324.0</ele><time>2020-08-16T16:23:05Z</time></trkpt>
<trkpt lat="51.073725" lon="7.807818"><ele>324.0</ele><time>2020-08-16T16:23:06Z</time></trkpt>
<trkpt lat="51.073542" lon="7.80838"><ele>325.8</ele><time>2020-08-16T16:23:08Z</time></trkpt>
<trkpt lat="51.073451" lon="7.809016"><ele>325.8</ele><time>2020-08-16T16:23:10Z</time></trkpt>
<trkpt lat="51.073432" lon="7.809319"><ele>325.6</ele><time>2020-08-16T16:23:11Z</time></trkpt>
<trkpt lat="51.073496" lon="7.810069"><ele>324.8</ele><time>2020-08-16T16:23:13Z</time></trkpt>
<trkpt lat="51.07401" lon="7.812907"><ele>323.0</ele><time>2020-08-16T16:23:22Z</time></trkpt>
<trkpt lat="51.074101" lon="7.813219"><ele>324.7</ele><time>2020-08-16T16:23:23Z</time></trkpt>
<trkpt lat="51.074101" lon="7.813219"><ele>324.7</ele><time>2020-08-16T16:23:23Z</time></trkpt>
<trkpt lat="51.074229" lon="7.813532"><ele>326.4</ele><time>2020-08-16T16:23:24Z</time></trkpt>
<trkpt lat="51.074802" lon="7.814339"><ele>324.8</ele><time>2020-08-16T16:23:30Z</time></trkpt>
<trkpt lat="51.074995" lon="7.814649"><ele>324.8</ele><time>2020-08-16T16:23:32Z</time></trkpt>
<trkpt lat="51.075745" lon="7.816321"><ele>324.0</ele><time>2020-08-16T16:23:41Z</time></trkpt>
<trkpt lat="51.07588" lon="7.816561"><ele>328.2</ele><time>2020-08-16T16:23:42Z</time></trkpt>
<trkpt lat="51.076082" lon="7.816785"><ele>325.0</ele><time>2020-08-16T16:23:44Z</time></trkpt>
<trkpt lat="51.076699" lon="7.817202"><ele>329.2</ele><time>2020-08-16T16:23:49Z</time></trkpt>
<trkpt lat="51.076814" lon="7.817236"><ele>329.2</ele><time>2020-08-16T16:23:49Z</time></trkpt>
<trkpt lat="51.077009" lon="7.817253"><ele>329.2</ele><time>2020-08-16T16:23:51Z</time></trkpt>
<trkpt lat="51.0772" lon="7.81718"><ele>329.2</ele><time>2020-08-16T16:23:52Z</time></trkpt>
<trkpt lat="51.077411" lon="7.816965"><ele>329.2</ele><time>2020-08-16T16:23:54Z</time></trkpt>
<trkpt lat="51.07795" lon="7.816111"><ele>331.8</ele><time>2020-08-16T16:23:59Z</time></trkpt>
<trkpt lat="51.078117" lon="7.815921"><ele>331.8</ele><time>2020-08-16T16:24:01Z</time></trkpt>
<trkpt lat="51.078317" lon="7.815824"><ele>335.0</ele><time>2020-08-16T16:24:02Z</time></trkpt>
<trkpt lat="51.078428" lon="7.815827"><ele>332.2</ele><time>2020-08-16T16:24:03Z</time></trkpt>
<trkpt lat="51.078547" lon="7.815876"><ele>328.6</ele><time>2020-08-16T16:24:04Z</time></trkpt>
<trkpt lat="51.079458" lon="7.816369"><ele>330.8</ele><time>2020-08-16T16:24:11Z</time></trkpt>
<trkpt lat="51.079999" lon="7.816507"><ele>330.8</ele><time>2020-08-16T16:24:15Z</time></trkpt>
<trkpt lat="51.080154" lon="7.816578"><ele>334.6</ele><time>2020-08-16T16:24:16Z</time></trkpt>
<trkpt lat="51.080304" lon="7.816699"><ele>328.0</ele><time>2020-08-16T16:24:17Z</time></trkpt>
<trkpt lat="51.080769" lon="7.817177"><ele>328.0</ele><time>2020-08-16T16:24:21Z</time></trkpt>
<trkpt lat="51.080995" lon="7.817298"><ele>331.4</ele><time>2020-08-16T16:24:23Z</time></trkpt>
<trkpt lat="51.082356" lon="7.817321"><ele>337.2</ele><time>2020-08-16T16:24:32Z</time></trkpt>
<trkpt lat="51.082486" lon="7.817399"><ele>337.2</ele><time>2020-08-16T16:24:33Z</time></trkpt>
<trkpt lat="51.082568" lon="7.817488"><ele>346.0</ele><time>2020-08-16T16:24:34Z</time></trkpt>
<trkpt lat="51.082717" lon="7.817773"><ele>335.6</ele><time>2020-08-16T16:24:36Z</time></trkpt>
<trkpt lat="51.08291" lon="7.818412"><ele>329.0</ele><time>2020-08-16T16:24:39Z</time></trkpt>
<trkpt lat="51.083092" lon="7.818808"><ele>329.0</ele><time>2020-08-16T16:24:41Z</time></trkpt>
<trkpt lat="51.083252" lon="7.819062"><ele>329.0</ele><time>2020-08-16T16:24:43Z</time></trkpt>
<trkpt lat="51.084743" lon="7.82087"><ele>331.2</ele><time>2020-08-16T16:24:56Z</time></trkpt>
<trkpt lat="51.085112" lon="7.821426"><ele>341.8</ele><time>2020-08-16T16:25:00Z</time></trkpt>
<trkpt lat="51.085523" lon="7.822143"><ele>330.2</ele><time>2020-08-16T16:25:04Z</time></trkpt>
<trkpt lat="51.085672" lon="7.822284"><ele>330.2</ele><time>2020-08-16T16:25:05Z</time></trkpt>
<trkpt lat="51.085783" lon="7.82231"><ele>330.2</ele><time>2020-08-16T16:25:06Z</time></trkpt>
<trkpt lat="51.085874" lon="7.822304"><ele>335.6</ele><time>2020-08-16T16:25:07Z</time></trkpt>
<trkpt lat="51.085974" lon="7.822272"><ele>335.6</ele><time>2020-08-16T16:25:07Z</time></trkpt>
<trkpt lat="51.086068" lon="7.822194"><ele>335.6</ele><time>2020-08-16T16:25:08Z</time></trkpt>
<trkpt lat="51.08614" lon="7.822073"><ele>335.6</ele><time>2020-08-16T16:25:09Z</time></trkpt>
<trkpt lat="51.086306" lon="7.821692"><ele>335.6</ele><time>2020-08-16T16:25:11Z</time></trkpt>
<trkpt lat="51.08646" lon="7.821429"><ele>347.0</ele><time>2020-08-16T16:25:13Z</time></trkpt>
<trkpt lat="51.086539" lon="7.82137"><ele>347.0</ele><time>2020-08-16T16:25:13Z</time></trkpt>
<trkpt lat="51.086757" lon="7.821304"><ele>339.6</ele><time>2020-08-16T16:25:15Z</time></trkpt>
<trkpt lat="51.087031" lon="7.821343"><ele>339.6</ele><time>2020-08-16T16:25:17Z</time></trkpt>
<trkpt lat="51.087182" lon="7.821451"><ele>339.6</ele><time>2020-08-16T16:25:18Z</time></trkpt>
<trkpt lat="51.087279" lon="7.821603"><ele>339.6</ele><time>2020-08-16T16:25:19Z</time></trkpt>
<trkpt lat="51.087329" lon="7.821796"><ele>333.6</ele><time>2020-08-16T16:25:20Z</time></trkpt>
<trkpt lat="51.087357" lon="7.822037"><ele>333.6</ele><time>2020-08-16T16:25:21Z</time></trkpt>
<trkpt lat="51.087335" lon="7.822632"><ele>328.4</ele><time>2020-08-16T16:25:24Z</time></trkpt>
<trkpt lat="51.087276" lon="7.823248"><ele>328.4</ele><time>2020-08-16T16:25:26Z</time></trkpt>
<trkpt lat="51.087285" lon="7.823528"><ele>324.4</ele><time>2020-08-16T16:25:28Z</time></trkpt>
<trkpt lat="51.087353" lon="7.823808"><ele>324.4</ele><time>2020-08-16T16:25:29Z</time></trkpt>
<trkpt lat="51.087414" lon="7.823916"><ele>324.4</ele><time>2020-08-16T16:25:30Z</time></trkpt>
<trkpt lat="51.087527" lon="7.82405"><ele>332.0</ele><time>2020-08-16T16:25:31Z</time></trkpt>
<trkpt lat="51.087994" lon="7.824326"><ele>327.2</ele><time>2020-08-16T16:25:34Z</time></trkpt>
<trkpt lat="51.088319" lon="7.824423"><ele>327.2</ele><time>2020-08-16T16:25:37Z</time></trkpt>
<trkpt lat="51.089052" lon="7.82411"><ele>343.2</ele><time>2020-08-16T16:25:42Z</time></trkpt>
<trkpt lat="51.089404" lon="7.824072"><ele>351.0</ele><time>2020-08-16T16:25:45Z</time></trkpt>
<trkpt lat="51.090299" lon="7.824115"><ele>356.4</ele><time>2020-08-16T16:25:51Z</time></trkpt>
<trkpt lat="51.090942" lon="7.82407"><ele>358.0</ele><time>2020-08-16T16:25:55Z</time></trkpt>
<trkpt lat="51.091105" lon="7.824101"><ele>358.0</ele><time>2020-08-16T16:25:57Z</time></trkpt>
<trkpt lat="51.091246" lon="7.824247"><ele>342.8</ele><time>2020-08-16T16:25:58Z</time></trkpt>
<trkpt lat="51.091345" lon="7.82445"><ele>342.8</ele><time>2020-08-16T16:25:59Z</time></trkpt>
<trkpt lat="51.091531" lon="7.825337"><ele>331.0</ele><time>2020-08-16T16:26:03Z</time></trkpt>
<trkpt lat="51.091619" lon="7.825628"><ele>331.0</ele><time>2020-08-16T16:26:05Z</time></trkpt>
<trkpt lat="51.091702" lon="7.825823"><ele>350.2</ele><time>2020-08-16T16:26:06Z</time></trkpt>
<trkpt lat="51.091961" lon="7.826336"><ele>339.8</ele><time>2020-08-16T16:26:09Z</time></trkpt>
<trkpt lat="51.09242" lon="7.827123"><ele>330.8</ele><time>2020-08-16T16:26:14Z</time></trkpt>
<trkpt lat="51.092709" lon="7.827898"><ele>343.2</ele><time>2020-08-16T16:26:18Z</time></trkpt>
<trkpt lat="51.092905" lon="7.82862"><ele>336.2</ele><time>2020-08-16T16:26:22Z</time></trkpt>
<trkpt lat="51.092986" lon="7.829012"><ele>336.2</ele><time>2020-08-16T16:26:24Z</time></trkpt>
<trkpt lat="51.09308" lon="7.829738"><ele>329.0</ele><time>2020-08-16T16:26:27Z</time></trkpt>
<trkpt lat="51.093121" lon="7.829889"><ele>329.0</ele><time>2020-08-16T16:26:28Z</time></trkpt>
<trkpt lat="51.093185" lon="7.830012"><ele>323.4</ele><time>2020-08-16T16:26:28Z</time></trkpt>
<trkpt lat="51.093366" lon="7.830168"><ele>325.8</ele><time>2020-08-16T16:26:30Z</time></trkpt>
<trkpt lat="51.093603" lon="7.830206"><ele>325.8</ele><time>2020-08-16T16:26:32Z</time></trkpt>
<trkpt lat="51.093714" lon="7.830163"><ele>325.8</ele><time>2020-08-16T16:26:32Z</time></trkpt>
<trkpt lat="51.093793" lon="7.830115"><ele>325.8</ele><time>2020-08-16T16:26:33Z</time></trkpt>
<trkpt lat="51.093944" lon="7.829967"><ele>334.8</ele><time>2020-08-16T16:26:34Z</time></trkpt>
<trkpt lat="51.094413" lon="7.829407"><ele>333.8</ele><time>2020-08-16T16:26:38Z</time></trkpt>
<trkpt lat="51.094648" lon="7.829223"><ele>333.8</ele><time>2020-08-16T16:26:40Z</time></trkpt>
<trkpt lat="51.094918" lon="7.829203"><ele>333.8</ele><time>2020-08-16T16:26:42Z</time></trkpt>
<trkpt lat="51.095082" lon="7.82925"><ele>331.8</ele><time>2020-08-16T16:26:43Z</time></trkpt>
<trkpt lat="51.095278" lon="7.829367"><ele>331.8</ele><time>2020-08-16T16:26:45Z</time></trkpt>
<trkpt lat="51.095342" lon="7.829427"><ele>331.8</ele><time>2020-08-16T16:26:45Z</time></trkpt>
<trkpt lat="51.095501" lon="7.829681"><ele>331.8</ele><time>2020-08-16T16:26:47Z</time></trkpt>
<trkpt lat="51.096342" lon="7.831496"><ele>331.6</ele><time>2020-08-16T16:26:57Z</time></trkpt>
<trkpt lat="51.096616" lon="7.832031"><ele>332.0</ele><time>2020-08-16T16:27:00Z</time></trkpt>
<trkpt lat="51.096912" lon="7.832475"><ele>336.8</ele><time>2020-08-16T16:27:03Z</time></trkpt>
<trkpt lat="51.097858" lon="7.833623"><ele>333.2</ele><time>2020-08-16T16:27:11Z</time></trkpt>
<trkpt lat="51.098056" lon="7.833959"><ele>333.2</ele><time>2020-08-16T16:27:13Z</time></trkpt>
<trkpt lat="51.098221" lon="7.834318"><ele>329.2</ele><time>2020-08-16T16:27:15Z</time></trkpt>
<trkpt lat="51.098326" lon="7.834596"><ele>329.2</ele><time>2020-08-16T16:27:17Z</time></trkpt>
<trkpt lat="51.098385" lon="7.834799"><ele>334.4</ele><time>2020-08-16T16:27:18Z</time></trkpt>
<trkpt lat="51.098433" lon="7.835065"><ele>330.2</ele><time>2020-08-16T16:27:19Z</time></trkpt>
<trkpt lat="51.09846" lon="7.835345"><ele>330.2</ele><time>2020-08-16T16:27:22Z</time></trkpt>
<trkpt lat="51.09846" lon="7.835345"><ele>330.2</ele><time>2020-08-16T16:27:22Z</time></trkpt>
<trkpt lat="51.098457" lon="7.835535"><ele>330.2</ele><time>2020-08-16T16:27:23Z</time></trkpt>
<trkpt lat="51.098374" lon="7.835922"><ele>330.0</ele><time>2020-08-16T16:27:25Z</time></trkpt>
<trkpt lat="51.098312" lon="7.836103"><ele>327.4</ele><time>2020-08-16T16:27:26Z</time></trkpt>
<trkpt lat="51.098267" lon="7.83622"><ele>327.4</ele><time>2020-08-16T16:27:26Z</time></trkpt>
<trkpt lat="51.098101" lon="7.836495"><ele>327.4</ele><time>2020-08-16T16:27:28Z</time></trkpt>
<trkpt lat="51.097974" lon="7.83665"><ele>327.4</ele><time>2020-08-16T16:27:29Z</time></trkpt>
<trkpt lat="51.096816" lon="7.837314"><ele>329.2</ele><time>2020-08-16T16:27:38Z</time></trkpt>
<trkpt lat="51.096132" lon="7.837622"><ele>331.4</ele><time>2020-08-16T16:27:43Z</time></trkpt>
<trkpt lat="51.096" lon="7.837717"><ele>331.4</ele><time>2020-08-16T16:27:44Z</time></trkpt>
<trkpt lat="51.095833" lon="7.837905"><ele>321.4</ele><time>2020-08-16T16:27:46Z</time></trkpt>
<trkpt lat="51.095664" lon="7.838246"><ele>321.4</ele><time>2020-08-16T16:27:48Z</time></trkpt>
<trkpt lat="51.095598" lon="7.838436"><ele>321.2</ele><time>2020-08-16T16:27:49Z</time></trkpt>
<trkpt lat="51.095536" lon="7.838736"><ele>321.2</ele><time>2020-08-16T16:27:50Z</time></trkpt>
<trkpt lat="51.095406" lon="7.839643"><ele>322.0</ele><time>2020-08-16T16:27:55Z</time></trkpt>
<trkpt lat="51.095365" lon="7.840145"><ele>322.8</ele><time>2020-08-16T16:27:57Z</time></trkpt>
<trkpt lat="51.095355" lon="7.840658"><ele>322.8</ele><time>2020-08-16T16:27:59Z</time></trkpt>
<trkpt lat="51.095373" lon="7.841195"><ele>320.8</ele><time>2020-08-16T16:28:02Z</time></trkpt>
<trkpt lat="51.095499" lon="7.842556"><ele>316.8</ele><time>2020-08-16T16:28:08Z</time></trkpt>
<trkpt lat="51.09548" lon="7.842916"><ele>316.8</ele><time>2020-08-16T16:28:10Z</time></trkpt>
<trkpt lat="51.095366" lon="7.843904"><ele>316.4</ele><time>2020-08-16T16:28:14Z</time></trkpt>
<trkpt lat="51.095348" lon="7.844371"><ele>315.2</ele><time>2020-08-16T16:28:16Z</time></trkpt>
<trkpt lat="51.095369" lon="7.844618"><ele>315.2</ele><time>2020-08-16T16:28:17Z</time></trkpt>
<trkpt lat="51.095416" lon="7.844872"><ele>315.2</ele><time>2020-08-16T16:28:19Z</time></trkpt>
<trkpt lat="51.095591" lon="7.845544"><ele>314.2</ele><time>2020-08-16T16:28:22Z</time></trkpt>
<trkpt lat="51.095706" lon="7.846111"><ele>313.4</ele><time>2020-08-16T16:28:25Z</time></trkpt>
<trkpt lat="51.095735" lon="7.846524"><ele>313.4</ele><time>2020-08-16T16:28:26Z</time></trkpt>
<trkpt lat="51.095699" lon="7.847243"><ele>312.8</ele><time>2020-08-16T16:28:30Z</time></trkpt>
<trkpt lat="51.095576" lon="7.848257"><ele>313.0</ele><time>2020-08-16T16:28:34Z</time></trkpt>
<trkpt lat="51.095539" lon="7.848851"><ele>313.2</ele><time>2020-08-16T16:28:37Z</time></trkpt>
<trkpt lat="51.09554" lon="7.849648"><ele>313.2</ele><time>2020-08-16T16:28:41Z</time></trkpt>
<trkpt lat="51.09558" lon="7.850071"><ele>313.2</ele><time>2020-08-16T16:28:43Z</time></trkpt>
<trkpt lat="51.095687" lon="7.850748"><ele>313.2</ele><time>2020-08-16T16:28:46Z</time></trkpt>
<trkpt lat="51.096044" lon="7.851962"><ele>315.8</ele><time>2020-08-16T16:28:52Z</time></trkpt>
<trkpt lat="51.09617" lon="7.852329"><ele>315.8</ele><time>2020-08-16T16:28:54Z</time></trkpt>
<trkpt lat="51.096296" lon="7.852668"><ele>314.6</ele><time>2020-08-16T16:28:56Z</time></trkpt>
<trkpt lat="51.096465" lon="7.852973"><ele>314.6</ele><time>2020-08-16T16:28:57Z</time></trkpt>
<trkpt lat="51.09668" lon="7.853289"><ele>324.8</ele><time>2020-08-16T16:29:00Z</time></trkpt>
<trkpt lat="51.096757" lon="7.85346"><ele>321.0</ele><time>2020-08-16T16:29:01Z</time></trkpt>
<trkpt lat="51.096713" lon="7.853679"><ele>321.0</ele><time>2020-08-16T16:29:02Z</time></trkpt>
<trkpt lat="51.096611" lon="7.853909"><ele>313.8</ele><time>2020-08-16T16:29:03Z</time></trkpt>
<trkpt lat="51.09655" lon="7.853991"><ele>313.8</ele><time>2020-08-16T16:29:04Z</time></trkpt>
<trkpt lat="51.09655" lon="7.853991"><ele>313.8</ele><time>2020-08-16T16:29:04Z</time></trkpt>
<trkpt lat="51.096518" lon="7.854033"><ele>313.8</ele><time>2020-08-16T16:29:04Z</time></trkpt>
<trkpt lat="51.096219" lon="7.854079"><ele>313.8</ele><time>2020-08-16T16:29:07Z</time></trkpt>
<trkpt lat="51.096039" lon="7.854155"><ele>313.8</ele><time>2020-08-16T16:29:08Z</time></trkpt>
<trkpt lat="51.093831" lon="7.855267"><ele>316.8</ele><time>2020-08-16T16:29:27Z</time></trkpt>
<trkpt lat="51.093351" lon="7.85545"><ele>316.8</ele><time>2020-08-16T16:29:31Z</time></trkpt>
<trkpt lat="51.093035" lon="7.855523"><ele>329.0</ele><time>2020-08-16T16:29:33Z</time></trkpt>
<trkpt lat="51.092608" lon="7.855543"><ele>329.0</ele><time>2020-08-16T16:29:37Z</time></trkpt>
<trkpt lat="51.091979" lon="7.855443"><ele>333.2</ele><time>2020-08-16T16:29:42Z</time></trkpt>
<trkpt lat="51.09129" lon="7.855249"><ele>330.4</ele><time>2020-08-16T16:29:47Z</time></trkpt>
<trkpt lat="51.090555" lon="7.854932"><ele>340.0</ele><time>2020-08-16T16:29:53Z</time></trkpt>
<trkpt lat="51.090102" lon="7.854686"><ele>340.0</ele><time>2020-08-16T16:29:57Z</time></trkpt>
<trkpt lat="51.088531" lon="7.853654"><ele>336.0</ele><time>2020-08-16T16:30:11Z</time></trkpt>
<trkpt lat="51.087821" lon="7.85323"><ele>333.6</ele><time>2020-08-16T16:30:17Z</time></trkpt>
<trkpt lat="51.086516" lon="7.852671"><ele>312.6</ele><time>2020-08-16T16:30:28Z</time></trkpt>
<trkpt lat="51.086227" lon="7.852518"><ele>312.6</ele><time>2020-08-16T16:30:30Z</time></trkpt>
<trkpt lat="51.085965" lon="7.852345"><ele>312.8</ele><time>2020-08-16T16:30:32Z</time></trkpt>
<trkpt lat="51.085022" lon="7.851629"><ele>311.6</ele><time>2020-08-16T16:30:41Z</time></trkpt>
<trkpt lat="51.084082" lon="7.85087"><ele>322.0</ele><time>2020-08-16T16:30:49Z</time></trkpt>
<trkpt lat="51.083715" lon="7.850616"><ele>330.0</ele><time>2020-08-16T16:30:52Z</time></trkpt>
<trkpt lat="51.083225" lon="7.850374"><ele>340.0</ele><time>2020-08-16T16:30:57Z</time></trkpt>
<trkpt lat="51.082822" lon="7.850247"><ele>340.0</ele><time>2020-08-16T16:31:00Z</time></trkpt>
<trkpt lat="51.082316" lon="7.850148"><ele>343.8</ele><time>2020-08-16T16:31:04Z</time></trkpt>
<trkpt lat="51.081844" lon="7.850087"><ele>343.8</ele><time>2020-08-16T16:31:08Z</time></trkpt>
<trkpt lat="51.08137" lon="7.850085"><ele>346.4</ele><time>2020-08-16T16:31:12Z</time></trkpt>
<trkpt lat="51.08137" lon="7.850085"><ele>346.4</ele><time>2020-08-16T16:31:12Z</time></trkpt>
<trkpt lat="51.080634" lon="7.850122"><ele>356.8</ele><time>2020-08-16T16:31:19Z</time></trkpt>
<trkpt lat="51.080102" lon="7.850217"><ele>356.8</ele><time>2020-08-16T16:31:24Z</time></trkpt>
<trkpt lat="51.078786" lon="7.8506"><ele>363.2</ele><time>2020-08-16T16:31:36Z</time></trkpt>
<trkpt lat="51.0785" lon="7.850649"><ele>363.2</ele><time>2020-08-16T16:31:39Z</time></trkpt>
<trkpt lat="51.077914" lon="7.850681"><ele>362.0</ele><time>2020-08-16T16:31:44Z</time></trkpt>
<trkpt lat="51.077747" lon="7.850718"><ele>362.0</ele><time>2020-08-16T16:31:46Z</time></trkpt>
<trkpt lat="51.077591" lon="7.850784"><ele>362.0</ele><time>2020-08-16T16:31:47Z</time></trkpt>
<trkpt lat="51.077568" lon="7.850723"><ele>362.0</ele><time>2020-08-16T16:31:47Z</time></trkpt>
<trkpt lat="51.077492" lon="7.850655"><ele>353.8</ele><time>2020-08-16T16:31:48Z</time></trkpt>
<trkpt lat="51.077448" lon="7.850655"><ele>353.8</ele><time>2020-08-16T16:31:48Z</time></trkpt>
<trkpt lat="51.077373" lon="7.850725"><ele>353.8</ele><time>2020-08-16T16:31:49Z</time></trkpt>
<trkpt lat="51.077351" lon="7.850786"><ele>353.8</ele><time>2020-08-16T16:31:49Z</time></trkpt>
<trkpt lat="51.077343" lon="7.850872"><ele>349.0</ele><time>2020-08-16T16:31:49Z</time></trkpt>
<trkpt lat="51.077359" lon="7.850955"><ele>349.0</ele><time>2020-08-16T16:31:50Z</time></trkpt>
<trkpt lat="51.077395" lon="7.851021"><ele>349.0</ele><time>2020-08-16T16:31:50Z</time></trkpt>
<trkpt lat="51.077445" lon="7.851056"><ele>349.0</ele><time>2020-08-16T16:31:50Z</time></trkpt>
<trkpt lat="51.07735" lon="7.851567"><ele>349.0</ele><time>2020-08-16T16:31:52Z</time></trkpt>
<trkpt lat="51.077205" lon="7.852099"><ele>345.8</ele><time>2020-08-16T16:31:54Z</time></trkpt>
<trkpt lat="51.077124" lon="7.852335"><ele>345.8</ele><time>2020-08-16T16:31:55Z</time></trkpt>
<trkpt lat="51.076741" lon="7.853156"><ele>342.0</ele><time>2020-08-16T16:31:59Z</time></trkpt>
<trkpt lat="51.075701" lon="7.855002"><ele>340.2</ele><time>2020-08-16T16:32:07Z</time></trkpt>
<trkpt lat="51.075452" lon="7.855565"><ele>340.2</ele><time>2020-08-16T16:32:10Z</time></trkpt>
<trkpt lat="51.075301" lon="7.855995"><ele>334.8</ele><time>2020-08-16T16:32:12Z</time></trkpt>
<trkpt lat="51.075301" lon="7.855995"><ele>334.8</ele><time>2020-08-16T16:32:12Z</time></trkpt>
<trkpt lat="51.075159" lon="7.856521"><ele>334.8</ele><time>2020-08-16T16:32:14Z</time></trkpt>
<trkpt lat="51.075107" lon="7.856896"><ele>328.2</ele><time>2020-08-16T16:32:15Z</time></trkpt>
<trkpt lat="51.075061" lon="7.857404"><ele>328.2</ele><time>2020-08-16T16:32:17Z</time></trkpt>
<trkpt lat="51.075058" lon="7.85763"><ele>322.0</ele><time>2020-08-16T16:32:17Z</time></trkpt>
<trkpt lat="51.075098" lon="7.858088"><ele>322.0</ele><time>2020-08-16T16:32:19Z</time></trkpt>
<trkpt lat="51.075183" lon="7.858424"><ele>316.8</ele><time>2020-08-16T16:32:20Z</time></trkpt>
<trkpt lat="51.076278" lon="7.861995"><ele>319.6</ele><time>2020-08-16T16:32:33Z</time></trkpt>
<trkpt lat="51.076243" lon="7.862035"><ele>319.6</ele><time>2020-08-16T16:32:33Z</time></trkpt>
<trkpt lat="51.076213" lon="7.862188"><ele>319.6</ele><time>2020-08-16T16:32:34Z</time></trkpt>
<trkpt lat="51.076218" lon="7.862237"><ele>319.6</ele><time>2020-08-16T16:32:34Z</time></trkpt>
<trkpt lat="51.076281" lon="7.862304"><ele>319.6</ele><time>2020-08-16T16:32:34Z</time></trkpt>
<trkpt lat="51.076366" lon="7.862306"><ele>319.6</ele><time>2020-08-16T16:32:35Z</time></trkpt>
<trkpt lat="51.076411" lon="7.862272"><ele>319.6</ele><time>2020-08-16T16:32:35Z</time></trkpt>
<trkpt lat="51.076446" lon="7.862202"><ele>319.6</ele><time>2020-08-16T16:32:36Z</time></trkpt>
<trkpt lat="51.07646" lon="7.862104"><ele>319.6</ele><time>2020-08-16T16:32:36Z</time></trkpt>
<trkpt lat="51.076793" lon="7.861956"><ele>327.4</ele><time>2020-08-16T16:32:38Z</time></trkpt>
<trkpt lat="51.078263" lon="7.861"><ele>323.4</ele><time>2020-08-16T16:32:49Z</time></trkpt>
<trkpt lat="51.079324" lon="7.86002"><ele>328.0</ele><time>2020-08-16T16:32:56Z</time></trkpt>
<trkpt lat="51.07963" lon="7.859929"><ele>319.8</ele><time>2020-08-16T16:32:59Z</time></trkpt>
<trkpt lat="51.079856" lon="7.859925"><ele>319.8</ele><time>2020-08-16T16:33:00Z</time></trkpt>
<trkpt lat="51.080034" lon="7.859968"><ele>323.8</ele><time>2020-08-16T16:33:01Z</time></trkpt>
<trkpt lat="51.080197" lon="7.860063"><ele>331.4</ele><time>2020-08-16T16:33:02Z</time></trkpt>
<trkpt lat="51.080409" lon="7.860293"><ele>331.4</ele><time>2020-08-16T16:33:04Z</time></trkpt>
<trkpt lat="51.080531" lon="7.860499"><ele>331.4</ele><time>2020-08-16T16:33:05Z</time></trkpt>
<trkpt lat="51.080623" lon="7.860736"><ele>331.4</ele><time>2020-08-16T16:33:06Z</time></trkpt>
<trkpt lat="51.080678" lon="7.861003"><ele>337.6</ele><time>2020-08-16T16:33:07Z</time></trkpt>
<trkpt lat="51.08069" lon="7.861376"><ele>337.6</ele><time>2020-08-16T16:33:09Z</time></trkpt>
<trkpt lat="51.080629" lon="7.86194"><ele>340.4</ele><time>2020-08-16T16:33:11Z</time></trkpt>
<trkpt lat="51.080529" lon="7.862658"><ele>338.2</ele><time>2020-08-16T16:33:14Z</time></trkpt>
<trkpt lat="51.080375" lon="7.863444"><ele>333.6</ele><time>2020-08-16T16:33:18Z</time></trkpt>
<trkpt lat="51.079633" lon="7.866239"><ele>328.0</ele><time>2020-08-16T16:33:30Z</time></trkpt>
<trkpt lat="51.079516" lon="7.86691"><ele>324.4</ele><time>2020-08-16T16:33:33Z</time></trkpt>
<trkpt lat="51.079461" lon="7.867312"><ele>324.4</ele><time>2020-08-16T16:33:34Z</time></trkpt>
<trkpt lat="51.079494" lon="7.867923"><ele>326.0</ele><time>2020-08-16T16:33:37Z</time></trkpt>
<trkpt lat="51.079617" lon="7.868532"><ele>332.0</ele><time>2020-08-16T16:33:39Z</time></trkpt>
<trkpt lat="51.080336" lon="7.870453"><ele>333.4</ele><time>2020-08-16T16:33:49Z</time></trkpt>
<trkpt lat="51.080947" lon="7.873351"><ele>334.2</ele><time>2020-08-16T16:34:01Z</time></trkpt>
<trkpt lat="51.081216" lon="7.874212"><ele>336.6</ele><time>2020-08-16T16:34:05Z</time></trkpt>
<trkpt lat="51.081555" lon="7.875021"><ele>338.8</ele><time>2020-08-16T16:34:09Z</time></trkpt>
<trkpt lat="51.082356" lon="7.87654"><ele>323.8</ele><time>2020-08-16T16:34:17Z</time></trkpt>
<trkpt lat="51.082504" lon="7.87694"><ele>329.2</ele><time>2020-08-16T16:34:19Z</time></trkpt>
<trkpt lat="51.082531" lon="7.877085"><ele>329.2</ele><time>2020-08-16T16:34:19Z</time></trkpt>
<trkpt lat="51.083213" lon="7.881495"><ele>331.2</ele><time>2020-08-16T16:34:38Z</time></trkpt>
<trkpt lat="51.083189" lon="7.882294"><ele>334.0</ele><time>2020-08-16T16:34:41Z</time></trkpt>
<trkpt lat="51.08293" lon="7.884441"><ele>339.0</ele><time>2020-08-16T16:34:50Z</time></trkpt>
<trkpt lat="51.082848" lon="7.885711"><ele>342.2</ele><time>2020-08-16T16:34:55Z</time></trkpt>
<trkpt lat="51.082898" lon="7.886718"><ele>350.4</ele><time>2020-08-16T16:34:59Z</time></trkpt>
<trkpt lat="51.083024" lon="7.887788"><ele>351.0</ele><time>2020-08-16T16:35:04Z</time></trkpt>
<trkpt lat="51.083191" lon="7.888599"><ele>351.6</ele><time>2020-08-16T16:35:07Z</time></trkpt>
<trkpt lat="51.083292" lon="7.888899"><ele>351.0</ele><time>2020-08-16T16:35:09Z</time></trkpt>
<trkpt lat="51.083292" lon="7.888899"><ele>351.0</ele><time>2020-08-16T16:35:09Z</time></trkpt>
<trkpt lat="51.083412" lon="7.889259"><ele>350.4</ele><time>2020-08-16T16:35:10Z</time></trkpt>
<trkpt lat="51.083631" lon="7.889594"><ele>350.4</ele><time>2020-08-16T16:35:12Z</time></trkpt>
<trkpt lat="51.084416" lon="7.890626"><ele>356.4</ele><time>2020-08-16T16:35:18Z</time></trkpt>
<trkpt lat="51.084729" lon="7.89116"><ele>366.6</ele><time>2020-08-16T16:35:21Z</time></trkpt>
<trkpt lat="51.084973" lon="7.891626"><ele>366.6</ele><time>2020-08-16T16:35:24Z</time></trkpt>
<trkpt lat="51.085158" lon="7.892139"><ele>359.2</ele><time>2020-08-16T16:35:26Z</time></trkpt>
<trkpt lat="51.085764" lon="7.894106"><ele>365.8</ele><time>2020-08-16T16:35:35Z</time></trkpt>
<trkpt lat="51.086125" lon="7.894701"><ele>359.2</ele><time>2020-08-16T16:35:38Z</time></trkpt>
<trkpt lat="51.086525" lon="7.895224"><ele>361.6</ele><time>2020-08-16T16:35:41Z</time></trkpt>
<trkpt lat="51.087885" lon="7.896611"><ele>365.8</ele><time>2020-08-16T16:35:51Z</time></trkpt>
<trkpt lat="51.088934" lon="7.898143"><ele>381.0</ele><time>2020-08-16T16:36:00Z</time></trkpt>
<trkpt lat="51.089552" lon="7.899004"><ele>384.4</ele><time>2020-08-16T16:36:05Z</time></trkpt>
<trkpt lat="51.090161" lon="7.899497"><ele>383.0</ele><time>2020-08-16T16:36:09Z</time></trkpt>
<trkpt lat="51.091467" lon="7.900376"><ele>383.8</ele><time>2020-08-16T16:36:18Z</time></trkpt>
<trkpt lat="51.092243" lon="7.901213"><ele>384.0</ele><time>2020-08-16T16:36:24Z</time></trkpt>
<trkpt lat="51.092548" lon="7.90164"><ele>385.8</ele><time>2020-08-16T16:36:26Z</time></trkpt>
<trkpt lat="51.092886" lon="7.902188"><ele>384.4</ele><time>2020-08-16T16:36:29Z</time></trkpt>
<trkpt lat="51.094083" lon="7.904824"><ele>389.2</ele><time>2020-08-16T16:36:42Z</time></trkpt>
<trkpt lat="51.094428" lon="7.905496"><ele>397.6</ele><time>2020-08-16T16:36:45Z</time></trkpt>
<trkpt lat="51.095176" lon="7.906397"><ele>409.6</ele><time>2020-08-16T16:36:51Z</time></trkpt>
<trkpt lat="51.095812" lon="7.906789"><ele>404.2</ele><time>2020-08-16T16:36:55Z</time></trkpt>
<trkpt lat="51.096537" lon="7.907041"><ele>418.0</ele><time>2020-08-16T16:37:00Z</time></trkpt>
<trkpt lat="51.09787" lon="7.90737"><ele>434.8</ele><time>2020-08-16T16:37:09Z</time></trkpt>
<trkpt lat="51.098429" lon="7.907619"><ele>433.2</ele><time>2020-08-16T16:37:12Z</time></trkpt>
<trkpt lat="51.098869" lon="7.90788"><ele>433.2</ele><time>2020-08-16T16:37:15Z</time></trkpt>
<trkpt lat="51.09923" lon="7.908144"><ele>433.6</ele><time>2020-08-16T16:37:17Z</time></trkpt>
<trkpt lat="51.100691" lon="7.909605"><ele>420.6</ele><time>2020-08-16T16:37:28Z</time></trkpt>
<trkpt lat="51.101124" lon="7.909849"><ele>421.4</ele><time>2020-08-16T16:37:31Z</time></trkpt>
<trkpt lat="51.101588" lon="7.910074"><ele>408.8</ele><time>2020-08-16T16:37:34Z</time></trkpt>
<trkpt lat="51.10214" lon="7.910278"><ele>409.8</ele><time>2020-08-16T16:37:38Z</time></trkpt>
<trkpt lat="51.102473" lon="7.910574"><ele>409.8</ele><time>2020-08-16T16:37:40Z</time></trkpt>
<trkpt lat="51.102708" lon="7.910886"><ele>407.3</ele><time>2020-08-16T16:37:42Z</time></trkpt>
<trkpt lat="51.102708" lon="7.910886"><ele>407.3</ele><time>2020-08-16T16:37:42Z</time></trkpt>
<trkpt lat="51.102868" lon="7.9111"><ele>404.8</ele><time>2020-08-16T16:37:43Z</time></trkpt>
<trkpt lat="51.103064" lon="7.911423"><ele>404.8</ele><time>2020-08-16T16:37:45Z</time></trkpt>
<trkpt lat="51.103335" lon="7.912155"><ele>402.6</ele><time>2020-08-16T16:37:48Z</time></trkpt>
<trkpt lat="51.104698" lon="7.918275"><ele>390.6</ele><time>2020-08-16T16:38:14Z</time></trkpt>
<trkpt lat="51.105496" lon="7.920127"><ele>382.0</ele><time>2020-08-16T16:38:22Z</time></trkpt>
<trkpt lat="51.10576" lon="7.920841"><ele>382.0</ele><time>2020-08-16T16:38:25Z</time></trkpt>
<trkpt lat="51.105917" lon="7.921568"><ele>370.4</ele><time>2020-08-16T16:38:28Z</time></trkpt>
<trkpt lat="51.106174" lon="7.923671"><ele>365.6</ele><time>2020-08-16T16:38:37Z</time></trkpt>
<trkpt lat="51.106326" lon="7.924492"><ele>361.6</ele><time>2020-08-16T16:38:40Z</time></trkpt>
<trkpt lat="51.106552" lon="7.925108"><ele>361.6</ele><time>2020-08-16T16:38:43Z</time></trkpt>
<trkpt lat="51.106878" lon="7.925701"><ele>357.0</ele><time>2020-08-16T16:38:46Z</time></trkpt>
<trkpt lat="51.10768" lon="7.92628"><ele>359.8</ele><time>2020-08-16T16:38:55Z</time></trkpt>
<trkpt lat="51.108155" lon="7.926847"><ele>363.8</ele><time>2020-08-16T16:39:02Z</time></trkpt>
<trkpt lat="51.108411" lon="7.927483"><ele>353.4</ele><time>2020-08-16T16:39:07Z</time></trkpt>
<trkpt lat="51.108586" lon="7.928074"><ele>351.4</ele><time>2020-08-16T16:39:11Z</time></trkpt>
<trkpt lat="51.108764" lon="7.92873"><ele>352.8</ele><time>2020-08-16T16:39:16Z</time></trkpt>
<trkpt lat="51.108803" lon="7.928934"><ele>352.8</ele><time>2020-08-16T16:39:18Z</time></trkpt>
<trkpt lat="51.109115" lon="7.929978"><ele>359.4</ele><time>2020-08-16T16:39:26Z</time></trkpt>
<trkpt lat="51.110038" lon="7.932008"><ele>355.2</ele><time>2020-08-16T16:39:43Z</time></trkpt>
<trkpt lat="51.11088" lon="7.934046"><ele>347.2</ele><time>2020-08-16T16:39:59Z</time></trkpt>
<trkpt lat="51.11149" lon="7.935609"><ele>358.4</ele><time>2020-08-16T16:40:12Z</time></trkpt>
<trkpt lat="51.111677" lon="7.936409"><ele>338.8</ele><time>2020-08-16T16:40:18Z</time></trkpt>
<trkpt lat="51.111801" lon="7.937159"><ele>338.4</ele><time>2020-08-16T16:40:23Z</time></trkpt>
<trkpt lat="51.112078" lon="7.939695"><ele>342.8</ele><time>2020-08-16T16:40:40Z</time></trkpt>
<trkpt lat="51.112328" lon="7.940986"><ele>361.8</ele><time>2020-08-16T16:40:50Z</time></trkpt>
<trkpt lat="51.112701" lon="7.941726"><ele>349.8</ele><time>2020-08-16T16:40:56Z</time></trkpt>
<trkpt lat="51.113652" lon="7.942895"><ele>339.0</ele><time>2020-08-16T16:41:09Z</time></trkpt>
<trkpt lat="51.113981" lon="7.943406"><ele>344.6</ele><time>2020-08-16T16:41:14Z</time></trkpt>
<trkpt lat="51.114165" lon="7.943938"><ele>344.6</ele><time>2020-08-16T16:41:18Z</time></trkpt>
<trkpt lat="51.11429" lon="7.944505"><ele>329.6</ele><time>2020-08-16T16:41:22Z</time></trkpt>
<trkpt lat="51.114427" lon="7.946366"><ele>335.6</ele><time>2020-08-16T16:41:35Z</time></trkpt>
<trkpt lat="51.114521" lon="7.946813"><ele>342.6</ele><time>2020-08-16T16:41:38Z</time></trkpt>
<trkpt lat="51.114701" lon="7.947352"><ele>342.6</ele><time>2020-08-16T16:41:43Z</time></trkpt>
<trkpt lat="51.114906" lon="7.947736"><ele>349.6</ele><time>2020-08-16T16:41:46Z</time></trkpt>
<trkpt lat="51.114989" lon="7.947851"><ele>336.8</ele><time>2020-08-16T16:41:48Z</time></trkpt>
<trkpt lat="51.114989" lon="7.947851"><ele>336.8</ele><time>2020-08-16T16:41:48Z</time></trkpt>
<trkpt lat="51.115126" lon="7.948043"><ele>324.0</ele><time>2020-08-16T16:41:50Z</time></trkpt>
<trkpt lat="51.115364" lon="7.948187"><ele>324.0</ele><time>2020-08-16T16:41:53Z</time></trkpt>
<trkpt lat="51.115421" lon="7.948198"><ele>324.0</ele><time>2020-08-16T16:41:54Z</time></trkpt>
<trkpt lat="51.115323" lon="7.947421"><ele>323.6</ele><time>2020-08-16T16:41:57Z</time></trkpt>
<trkpt lat="51.115285" lon="7.946994"><ele>323.6</ele><time>2020-08-16T16:41:58Z</time></trkpt>
<trkpt lat="51.115293" lon="7.946565"><ele>321.8</ele><time>2020-08-16T16:42:00Z</time></trkpt>
<trkpt lat="51.115364" lon="7.94599"><ele>321.8</ele><time>2020-08-16T16:42:02Z</time></trkpt>
<trkpt lat="51.115445" lon="7.945625"><ele>320.6</ele><time>2020-08-16T16:42:04Z</time></trkpt>
<trkpt lat="51.115606" lon="7.945158"><ele>320.6</ele><time>2020-08-16T16:42:05Z</time></trkpt>
<trkpt lat="51.115695" lon="7.944793"><ele>321.8</ele><time>2020-08-16T16:42:07Z</time></trkpt>
<trkpt lat="51.11571" lon="7.944498"><ele>321.8</ele><time>2020-08-16T16:42:08Z</time></trkpt>
<trkpt lat="51.115674" lon="7.944061"><ele>323.6</ele><time>2020-08-16T16:42:10Z</time></trkpt>
<trkpt lat="51.115565" lon="7.943229"><ele>325.6</ele><time>2020-08-16T16:42:13Z</time></trkpt>
<trkpt lat="51.115568" lon="7.942869"><ele>325.6</ele><time>2020-08-16T16:42:14Z</time></trkpt>
<trkpt lat="51.115632" lon="7.942535"><ele>325.6</ele><time>2020-08-16T16:42:15Z</time></trkpt>
<trkpt lat="51.115779" lon="7.942206"><ele>330.0</ele><time>2020-08-16T16:42:17Z</time></trkpt>
<trkpt lat="51.116224" lon="7.94165"><ele>344.6</ele><time>2020-08-16T16:42:20Z</time></trkpt>
<trkpt lat="51.116456" lon="7.941202"><ele>344.6</ele><time>2020-08-16T16:42:22Z</time></trkpt>
<trkpt lat="51.116519" lon="7.940878"><ele>344.6</ele><time>2020-08-16T16:42:23Z</time></trkpt>
<trkpt lat="51.116472" lon="7.940435"><ele>353.8</ele><time>2020-08-16T16:42:25Z</time></trkpt>
<trkpt lat="51.116359" lon="7.94019"><ele>353.8</ele><time>2020-08-16T16:42:26Z</time></trkpt>
<trkpt lat="51.116009" lon="7.940147"><ele>353.8</ele><time>2020-08-16T16:42:28Z</time></trkpt>
<trkpt lat="51.115565" lon="7.94024"><ele>348.6</ele><time>2020-08-16T16:42:31Z</time></trkpt>
<trkpt lat="51.115258" lon="7.940224"><ele>348.6</ele><time>2020-08-16T16:42:33Z</time></trkpt>
<trkpt lat="51.115132" lon="7.9401"><ele>348.6</ele><time>2020-08-16T16:42:34Z</time></trkpt>
<trkpt lat="51.114954" lon="7.939739"><ele>344.0</ele><time>2020-08-16T16:42:35Z</time></trkpt>
<trkpt lat="51.114882" lon="7.939117"><ele>348.2</ele><time>2020-08-16T16:42:38Z</time></trkpt>
<trkpt lat="51.114979" lon="7.937792"><ele>352.8</ele><time>2020-08-16T16:42:42Z</time></trkpt>
<trkpt lat="51.115239" lon="7.936952"><ele>371.6</ele><time>2020-08-16T16:42:46Z</time></trkpt>
<trkpt lat="51.115445" lon="7.936426"><ele>376.4</ele><time>2020-08-16T16:42:48Z</time></trkpt>
<trkpt lat="51.115577" lon="7.936019"><ele>376.4</ele><time>2020-08-16T16:42:50Z</time></trkpt>
<trkpt lat="51.115573" lon="7.935732"><ele>381.6</ele><time>2020-08-16T16:42:51Z</time></trkpt>
<trkpt lat="51.115519" lon="7.935543"><ele>381.6</ele><time>2020-08-16T16:42:52Z</time></trkpt>
<trkpt lat="51.114913" lon="7.935057"><ele>368.6</ele><time>2020-08-16T16:42:56Z</time></trkpt>
<trkpt lat="51.114838" lon="7.934869"><ele>369.2</ele><time>2020-08-16T16:42:57Z</time></trkpt>
<trkpt lat="51.114824" lon="7.934692"><ele>369.2</ele><time>2020-08-16T16:42:57Z</time></trkpt>
<trkpt lat="51.114853" lon="7.93456"><ele>369.2</ele><time>2020-08-16T16:42:58Z</time></trkpt>
<trkpt lat="51.114962" lon="7.934314"><ele>369.2</ele><time>2020-08-16T16:42:59Z</time></trkpt>
<trkpt lat="51.115043" lon="7.934203"><ele>383.8</ele><time>2020-08-16T16:43:00Z</time></trkpt>
<trkpt lat="51.115189" lon="7.934106"><ele>384.0</ele><time>2020-08-16T16:43:01Z</time></trkpt>
<trkpt lat="51.115325" lon="7.934166"><ele>384.0</ele><time>2020-08-16T16:43:01Z</time></trkpt>
<trkpt lat="51.115476" lon="7.934343"><ele>383.8</ele><time>2020-08-16T16:43:03Z</time></trkpt>
<trkpt lat="51.11588" lon="7.93473"><ele>400.2</ele><time>2020-08-16T16:43:05Z</time></trkpt>
<trkpt lat="51.116029" lon="7.934815"><ele>400.2</ele><time>2020-08-16T16:43:06Z</time></trkpt>
<trkpt lat="51.116191" lon="7.934809"><ele>400.2</ele><time>2020-08-16T16:43:07Z</time></trkpt>
<trkpt lat="51.116263" lon="7.934698"><ele>400.2</ele><time>2020-08-16T16:43:08Z</time></trkpt>
<trkpt lat="51.11629" lon="7.934525"><ele>400.2</ele><time>2020-08-16T16:43:09Z</time></trkpt>
<trkpt lat="51.116259" lon="7.934381"><ele>400.2</ele><time>2020-08-16T16:43:09Z</time></trkpt>
<trkpt lat="51.115988" lon="7.933499"><ele>403.6</ele><time>2020-08-16T16:43:13Z</time></trkpt>
<trkpt lat="51.115962" lon="7.932947"><ele>403.8</ele><time>2020-08-16T16:43:15Z</time></trkpt>
<trkpt lat="51.116056" lon="7.93232"><ele>402.0</ele><time>2020-08-16T16:43:17Z</time></trkpt>
<trkpt lat="51.116413" lon="7.930919"><ele>401.0</ele><time>2020-08-16T16:43:23Z</time></trkpt>
<trkpt lat="51.116539" lon="7.930119"><ele>401.6</ele><time>2020-08-16T16:43:26Z</time></trkpt>
<trkpt lat="51.116611" lon="7.929493"><ele>408.6</ele><time>2020-08-16T16:43:28Z</time></trkpt>
<trkpt lat="51.116612" lon="7.928492"><ele>418.6</ele><time>2020-08-16T16:43:32Z</time></trkpt>
<trkpt lat="51.116021" lon="7.92529"><ele>436.0</ele><time>2020-08-16T16:43:44Z</time></trkpt>
<trkpt lat="51.115929" lon="7.923153"><ele>421.4</ele><time>2020-08-16T16:43:52Z</time></trkpt>
<trkpt lat="51.115793" lon="7.922505"><ele>441.0</ele><time>2020-08-16T16:43:54Z</time></trkpt>
<trkpt lat="51.115595" lon="7.921973"><ele>429.8</ele><time>2020-08-16T16:43:57Z</time></trkpt>
<trkpt lat="51.115486" lon="7.921752"><ele>429.8</ele><time>2020-08-16T16:43:58Z</time></trkpt>
<trkpt lat="51.115223" lon="7.921346"><ele>418.6</ele><time>2020-08-16T16:44:00Z</time></trkpt>
<trkpt lat="51.115029" lon="7.921118"><ele>418.6</ele><time>2020-08-16T16:44:01Z</time></trkpt>
<trkpt lat="51.114814" lon="7.920941"><ele>433.8</ele><time>2020-08-16T16:44:03Z</time></trkpt>
<trkpt lat="51.114502" lon="7.92073"><ele>426.0</ele><time>2020-08-16T16:44:05Z</time></trkpt>
<trkpt lat="51.114336" lon="7.920518"><ele>426.0</ele><time>2020-08-16T16:44:06Z</time></trkpt>
<trkpt lat="51.114225" lon="7.920304"><ele>426.0</ele><time>2020-08-16T16:44:07Z</time></trkpt>
<trkpt lat="51.114187" lon="7.920024"><ele>426.0</ele><time>2020-08-16T16:44:08Z</time></trkpt>
<trkpt lat="51.114181" lon="7.919791"><ele>429.4</ele><time>2020-08-16T16:44:09Z</time></trkpt>
<trkpt lat="51.114201" lon="7.919703"><ele>429.4</ele><time>2020-08-16T16:44:10Z</time></trkpt>
<trkpt lat="51.114201" lon="7.919703"><ele>429.4</ele><time>2020-08-16T16:44:10Z</time></trkpt>
<trkpt lat="51.114259" lon="7.919453"><ele>429.4</ele><time>2020-08-16T16:44:11Z</time></trkpt>
<trkpt lat="51.114456" lon="7.91912"><ele>435.6</ele><time>2020-08-16T16:44:13Z</time></trkpt>
<trkpt lat="51.114948" lon="7.918449"><ele>435.6</ele><time>2020-08-16T16:44:17Z</time></trkpt>
<trkpt lat="51.115412" lon="7.917602"><ele>423.0</ele><time>2020-08-16T16:44:22Z</time></trkpt>
<trkpt lat="51.115615" lon="7.917455"><ele>425.0</ele><time>2020-08-16T16:44:23Z</time></trkpt>
<trkpt lat="51.115774" lon="7.917391"><ele>425.0</ele><time>2020-08-16T16:44:24Z</time></trkpt>
<trkpt lat="51.115925" lon="7.917399"><ele>414.4</ele><time>2020-08-16T16:44:26Z</time></trkpt>
<trkpt lat="51.116025" lon="7.917442"><ele>414.4</ele><time>2020-08-16T16:44:26Z</time></trkpt>
<trkpt lat="51.116117" lon="7.917519"><ele>410.0</ele><time>2020-08-16T16:44:27Z</time></trkpt>
<trkpt lat="51.116324" lon="7.91777"><ele>410.0</ele><time>2020-08-16T16:44:29Z</time></trkpt>
<trkpt lat="51.116615" lon="7.91832"><ele>410.0</ele><time>2020-08-16T16:44:32Z</time></trkpt>
<trkpt lat="51.117093" lon="7.918907"><ele>399.4</ele><time>2020-08-16T16:44:36Z</time></trkpt>
<trkpt lat="51.117452" lon="7.919243"><ele>394.0</ele><time>2020-08-16T16:44:39Z</time></trkpt>
<trkpt lat="51.118152" lon="7.919816"><ele>393.6</ele><time>2020-08-16T16:44:44Z</time></trkpt>
<trkpt lat="51.119087" lon="7.92076"><ele>386.0</ele><time>2020-08-16T16:44:51Z</time></trkpt>
<trkpt lat="51.11944" lon="7.921027"><ele>371.4</ele><time>2020-08-16T16:44:54Z</time></trkpt>
<trkpt lat="51.11969" lon="7.921075"><ele>371.4</ele><time>2020-08-16T16:44:56Z</time></trkpt>
<trkpt lat="51.119905" lon="7.920991"><ele>371.4</ele><time>2020-08-16T16:44:57Z</time></trkpt>
<trkpt lat="51.120026" lon="7.920912"><ele>360.6</ele><time>2020-08-16T16:44:58Z</time></trkpt>
<trkpt lat="51.120178" lon="7.920725"><ele>371.2</ele><time>2020-08-16T16:45:00Z</time></trkpt>
<trkpt lat="51.120178" lon="7.920725"><ele>371.2</ele><time>2020-08-16T16:45:00Z</time></trkpt>
<trkpt lat="51.120296" lon="7.920531"><ele>371.2</ele><time>2020-08-16T16:45:02Z</time></trkpt>
<trkpt lat="51.120382" lon="7.920253"><ele>371.2</ele><time>2020-08-16T16:45:04Z</time></trkpt>
<trkpt lat="51.12043" lon="7.919919"><ele>375.0</ele><time>2020-08-16T16:45:07Z</time></trkpt>
<trkpt lat="51.120426" lon="7.919566"><ele>375.0</ele><time>2020-08-16T16:45:09Z</time></trkpt>
<trkpt lat="51.120389" lon="7.919165"><ele>375.4</ele><time>2020-08-16T16:45:12Z</time></trkpt>
<trkpt lat="51.120223" lon="7.917921"><ele>372.4</ele><time>2020-08-16T16:45:21Z</time></trkpt>
<trkpt lat="51.120196" lon="7.917551"><ele>372.4</ele><time>2020-08-16T16:45:24Z</time></trkpt>
<trkpt lat="51.120198" lon="7.916743"><ele>368.2</ele><time>2020-08-16T16:45:30Z</time></trkpt>
<trkpt lat="51.12025" lon="7.915546"><ele>360.2</ele><time>2020-08-16T16:45:38Z</time></trkpt>
<trkpt lat="51.120251" lon="7.915138"><ele>360.2</ele><time>2020-08-16T16:45:41Z</time></trkpt>
<trkpt lat="51.120226" lon="7.914523"><ele>351.6</ele><time>2020-08-16T16:45:46Z</time></trkpt>
<trkpt lat="51.120195" lon="7.914133"><ele>341.6</ele><time>2020-08-16T16:45:49Z</time></trkpt>
<trkpt lat="51.120095" lon="7.913506"><ele>341.6</ele><time>2020-08-16T16:45:54Z</time></trkpt>
<trkpt lat="51.119998" lon="7.913036"><ele>359.8</ele><time>2020-08-16T16:45:58Z</time></trkpt>
<trkpt lat="51.119873" lon="7.912515"><ele>359.8</ele><time>2020-08-16T16:46:02Z</time></trkpt>
<trkpt lat="51.119468" lon="7.911304"><ele>341.8</ele><time>2020-08-16T16:46:12Z</time></trkpt>
<trkpt lat="51.119383" lon="7.910959"><ele>341.8</ele><time>2020-08-16T16:46:15Z</time></trkpt>
<trkpt lat="51.119328" lon="7.910585"><ele>333.8</ele><time>2020-08-16T16:46:17Z</time></trkpt>
<trkpt lat="51.119306" lon="7.910235"><ele>333.8</ele><time>2020-08-16T16:46:20Z</time></trkpt>
<trkpt lat="51.119312" lon="7.91002"><ele>333.8</ele><time>2020-08-16T16:46:22Z</time></trkpt>
<trkpt lat="51.119345" lon="7.909785"><ele>325.8</ele><time>2020-08-16T16:46:24Z</time></trkpt>
<trkpt lat="51.119396" lon="7.909551"><ele>325.8</ele><time>2020-08-16T16:46:25Z</time></trkpt>
<trkpt lat="51.119502" lon="7.909247"><ele>325.8</ele><time>2020-08-16T16:46:28Z</time></trkpt>
<trkpt lat="51.119668" lon="7.908993"><ele>317.6</ele><time>2020-08-16T16:46:31Z</time></trkpt>
<trkpt lat="51.119857" lon="7.908778"><ele>317.6</ele><time>2020-08-16T16:46:33Z</time></trkpt>
<trkpt lat="51.120399" lon="7.9084"><ele>311.4</ele><time>2020-08-16T16:46:40Z</time></trkpt>
<trkpt lat="51.120753" lon="7.908198"><ele>305.4</ele><time>2020-08-16T16:46:45Z</time></trkpt>
<trkpt lat="51.120862" lon="7.908183"><ele>302.4</ele><time>2020-08-16T16:46:46Z</time></trkpt>
<trkpt lat="51.120969" lon="7.908198"><ele>302.4</ele><time>2020-08-16T16:46:47Z</time></trkpt>
<trkpt lat="51.121127" lon="7.908274"><ele>302.4</ele><time>2020-08-16T16:46:49Z</time></trkpt>
<trkpt lat="51.121207" lon="7.908361"><ele>306.0</ele><time>2020-08-16T16:46:50Z</time></trkpt>
<trkpt lat="51.121277" lon="7.908455"><ele>306.0</ele><time>2020-08-16T16:46:51Z</time></trkpt>
<trkpt lat="51.121446" lon="7.908873"><ele>306.0</ele><time>2020-08-16T16:46:55Z</time></trkpt>
<trkpt lat="51.121549" lon="7.909223"><ele>307.8</ele><time>2020-08-16T16:46:58Z</time></trkpt>
<trkpt lat="51.121702" lon="7.909925"><ele>294.8</ele><time>2020-08-16T16:47:03Z</time></trkpt>
<trkpt lat="51.121814" lon="7.910565"><ele>296.0</ele><time>2020-08-16T16:47:08Z</time></trkpt>
<trkpt lat="51.121959" lon="7.911867"><ele>295.2</ele><time>2020-08-16T16:47:18Z</time></trkpt>
<trkpt lat="51.122003" lon="7.912764"><ele>294.0</ele><time>2020-08-16T16:47:24Z</time></trkpt>
<trkpt lat="51.12203" lon="7.913029"><ele>294.0</ele><time>2020-08-16T16:47:26Z</time></trkpt>
<trkpt lat="51.122071" lon="7.913218"><ele>294.0</ele><time>2020-08-16T16:47:27Z</time></trkpt>
<trkpt lat="51.122132" lon="7.913384"><ele>293.4</ele><time>2020-08-16T16:47:29Z</time></trkpt>
<trkpt lat="51.122235" lon="7.913581"><ele>293.4</ele><time>2020-08-16T16:47:31Z</time></trkpt>
<trkpt lat="51.12235" lon="7.913709"><ele>293.4</ele><time>2020-08-16T16:47:32Z</time></trkpt>
<trkpt lat="51.122453" lon="7.913773"><ele>293.4</ele><time>2020-08-16T16:47:34Z</time></trkpt>
<trkpt lat="51.122534" lon="7.913781"><ele>278.8</ele><time>2020-08-16T16:47:35Z</time></trkpt>
<trkpt lat="51.122686" lon="7.913696"><ele>278.8</ele><time>2020-08-16T16:47:37Z</time></trkpt>
<trkpt lat="51.122771" lon="7.913598"><ele>278.8</ele><time>2020-08-16T16:47:38Z</time></trkpt>
<trkpt lat="51.122844" lon="7.91343"><ele>278.8</ele><time>2020-08-16T16:47:40Z</time></trkpt>
<trkpt lat="51.12289" lon="7.913223"><ele>279.8</ele><time>2020-08-16T16:47:41Z</time></trkpt>
<trkpt lat="51.122898" lon="7.912968"><ele>279.8</ele><time>2020-08-16T16:47:43Z</time></trkpt>
<trkpt lat="51.122862" lon="7.91259"><ele>279.8</ele><time>2020-08-16T16:47:46Z</time></trkpt>
<trkpt lat="51.122614" lon="7.911018"><ele>278.2</ele><time>2020-08-16T16:47:58Z</time></trkpt>
<trkpt lat="51.12243" lon="7.908873"><ele>292.8</ele><time>2020-08-16T16:48:14Z</time></trkpt>
<trkpt lat="51.122417" lon="7.908414"><ele>292.8</ele><time>2020-08-16T16:48:17Z</time></trkpt>
<trkpt lat="51.122448" lon="7.907877"><ele>290.0</ele><time>2020-08-16T16:48:21Z</time></trkpt>
<trkpt lat="51.122539" lon="7.907511"><ele>267.8</ele><time>2020-08-16T16:48:24Z</time></trkpt>
<trkpt lat="51.122619" lon="7.907003"><ele>266.2</ele><time>2020-08-16T16:48:29Z</time></trkpt>
<trkpt lat="51.122783" lon="7.906705"><ele>266.2</ele><time>2020-08-16T16:48:32Z</time></trkpt>
<trkpt lat="51.122869" lon="7.906582"><ele>263.2</ele><time>2020-08-16T16:48:34Z</time></trkpt>
<trkpt lat="51.123216" lon="7.906163"><ele>263.2</ele><time>2020-08-16T16:48:39Z</time></trkpt>
<trkpt lat="51.123216" lon="7.906163"><ele>263.2</ele><time>2020-08-16T16:48:39Z</time></trkpt>
<trkpt lat="51.123192" lon="7.906196"><ele>263.2</ele><time>2020-08-16T16:48:40Z</time></trkpt>
<trkpt lat="51.123496" lon="7.906837"><ele>256.8</ele><time>2020-08-16T16:48:43Z</time></trkpt>
<trkpt lat="51.123651" lon="7.907216"><ele>256.8</ele><time>2020-08-16T16:48:45Z</time></trkpt>
<trkpt lat="51.123818" lon="7.907742"><ele>256.4</ele><time>2020-08-16T16:48:48Z</time></trkpt>
<trkpt lat="51.124018" lon="7.908592"><ele>256.6</ele><time>2020-08-16T16:48:52Z</time></trkpt>
<trkpt lat="51.124117" lon="7.90928"><ele>257.4</ele><time>2020-08-16T16:48:55Z</time></trkpt>
<trkpt lat="51.124143" lon="7.909812"><ele>257.4</ele><time>2020-08-16T16:48:57Z</time></trkpt>
<trkpt lat="51.124136" lon="7.910155"><ele>258.8</ele><time>2020-08-16T16:48:59Z</time></trkpt>
<trkpt lat="51.123718" lon="7.914473"><ele>263.0</ele><time>2020-08-16T16:49:18Z</time></trkpt>
<trkpt lat="51.123656" lon="7.915244"><ele>261.0</ele><time>2020-08-16T16:49:22Z</time></trkpt>
<trkpt lat="51.123641" lon="7.915706"><ele>261.0</ele><time>2020-08-16T16:49:24Z</time></trkpt>
<trkpt lat="51.123654" lon="7.916421"><ele>259.4</ele><time>2020-08-16T16:49:27Z</time></trkpt>
<trkpt lat="51.123708" lon="7.917162"><ele>258.8</ele><time>2020-08-16T16:49:30Z</time></trkpt>
<trkpt lat="51.123887" lon="7.918248"><ele>258.8</ele><time>2020-08-16T16:49:35Z</time></trkpt>
<trkpt lat="51.124139" lon="7.919262"><ele>259.6</ele><time>2020-08-16T16:49:40Z</time></trkpt>
<trkpt lat="51.124282" lon="7.919743"><ele>269.6</ele><time>2020-08-16T16:49:42Z</time></trkpt>
<trkpt lat="51.12464" lon="7.920627"><ele>267.0</ele><time>2020-08-16T16:49:47Z</time></trkpt>
<trkpt lat="51.124997" lon="7.921279"><ele>266.4</ele><time>2020-08-16T16:49:51Z</time></trkpt>
<trkpt lat="51.124997" lon="7.921279"><ele>266.4</ele><time>2020-08-16T16:49:51Z</time></trkpt>
<trkpt lat="51.125279" lon="7.921723"><ele>269.8</ele><time>2020-08-16T16:49:53Z</time></trkpt>
<trkpt lat="51.125662" lon="7.922225"><ele>269.8</ele><time>2020-08-16T16:49:57Z</time></trkpt>
<trkpt lat="51.126044" lon="7.92262"><ele>275.2</ele><time>2020-08-16T16:50:00Z</time></trkpt>
<trkpt lat="51.126483" lon="7.922948"><ele>275.2</ele><time>2020-08-16T16:50:03Z</time></trkpt>
<trkpt lat="51.126903" lon="7.92315"><ele>286.6</ele><time>2020-08-16T16:50:05Z</time></trkpt>
<trkpt lat="51.127318" lon="7.923243"><ele>286.6</ele><time>2020-08-16T16:50:08Z</time></trkpt>
<trkpt lat="51.127528" lon="7.923249"><ele>287.4</ele><time>2020-08-16T16:50:09Z</time></trkpt>
<trkpt lat="51.127755" lon="7.923243"><ele>287.4</ele><time>2020-08-16T16:50:11Z</time></trkpt>
<trkpt lat="51.128118" lon="7.923174"><ele>287.4</ele><time>2020-08-16T16:50:13Z</time></trkpt>
<trkpt lat="51.12823" lon="7.923121"><ele>287.4</ele><time>2020-08-16T16:50:14Z</time></trkpt>
<trkpt lat="51.128376" lon="7.923015"><ele>278.0</ele><time>2020-08-16T16:50:15Z</time></trkpt>
<trkpt lat="51.128677" lon="7.922708"><ele>278.0</ele><time>2020-08-16T16:50:17Z</time></trkpt>
<trkpt lat="51.128705" lon="7.922758"><ele>278.0</ele><time>2020-08-16T16:50:18Z</time></trkpt>
<trkpt lat="51.128788" lon="7.922804"><ele>278.0</ele><time>2020-08-16T16:50:18Z</time></trkpt>
<trkpt lat="51.128853" lon="7.922776"><ele>278.0</ele><time>2020-08-16T16:50:18Z</time></trkpt>
<trkpt lat="51.128899" lon="7.922706"><ele>278.0</ele><time>2020-08-16T16:50:19Z</time></trkpt>
<trkpt lat="51.128915" lon="7.922552"><ele>278.0</ele><time>2020-08-16T16:50:19Z</time></trkpt>
<trkpt lat="51.129244" lon="7.922442"><ele>278.6</ele><time>2020-08-16T16:50:21Z</time></trkpt>
<trkpt lat="51.129984" lon="7.922086"><ele>278.6</ele><time>2020-08-16T16:50:24Z</time></trkpt>
<trkpt lat="51.130409" lon="7.921967"><ele>272.8</ele><time>2020-08-16T16:50:26Z</time></trkpt>
<trkpt lat="51.130754" lon="7.921906"><ele>272.8</ele><time>2020-08-16T16:50:28Z</time></trkpt>
<trkpt lat="51.130889" lon="7.921902"><ele>270.0</ele><time>2020-08-16T16:50:28Z</time></trkpt>
<trkpt lat="51.131372" lon="7.92197"><ele>270.0</ele><time>2020-08-16T16:50:31Z</time></trkpt>
<trkpt lat="51.131645" lon="7.922031"><ele>270.0</ele><time>2020-08-16T16:50:32Z</time></trkpt>
<trkpt lat="51.131984" lon="7.922145"><ele>270.4</ele><time>2020-08-16T16:50:33Z</time></trkpt>
<trkpt lat="51.132223" lon="7.922254"><ele>270.4</ele><time>2020-08-16T16:50:35Z</time></trkpt>
<trkpt lat="51.132621" lon="7.922533"><ele>265.6</ele><time>2020-08-16T16:50:37Z</time></trkpt>
<trkpt lat="51.13284" lon="7.922734"><ele>265.6</ele><time>2020-08-16T16:50:38Z</time></trkpt>
<trkpt lat="51.13303" lon="7.922963"><ele>265.6</ele><time>2020-08-16T16:50:39Z</time></trkpt>
<trkpt lat="51.133249" lon="7.923313"><ele>265.6</ele><time>2020-08-16T16:50:40Z</time></trkpt>
<trkpt lat="51.133434" lon="7.923707"><ele>267.0</ele><time>2020-08-16T16:50:42Z</time></trkpt>
<trkpt lat="51.133584" lon="7.924155"><ele>263.4</ele><time>2020-08-16T16:50:44Z</time></trkpt>
<trkpt lat="51.133584" lon="7.924155"><ele>263.4</ele><time>2020-08-16T16:50:44Z</time></trkpt>
<trkpt lat="51.133653" lon="7.924385"><ele>259.8</ele><time>2020-08-16T16:50:45Z</time></trkpt>
<trkpt lat="51.133746" lon="7.92485"><ele>259.8</ele><time>2020-08-16T16:50:47Z</time></trkpt>
<trkpt lat="51.133801" lon="7.925418"><ele>254.2</ele><time>2020-08-16T16:50:50Z</time></trkpt>
<trkpt lat="51.133781" lon="7.926094"><ele>252.8</ele><time>2020-08-16T16:50:53Z</time></trkpt>
<trkpt lat="51.133739" lon="7.926565"><ele>252.8</ele><time>2020-08-16T16:50:55Z</time></trkpt>
<trkpt lat="51.133649" lon="7.926985"><ele>254.2</ele><time>2020-08-16T16:50:57Z</time></trkpt>
<trkpt lat="51.133227" lon="7.929271"><ele>257.0</ele><time>2020-08-16T16:51:07Z</time></trkpt>
<trkpt lat="51.133114" lon="7.929827"><ele>257.0</ele><time>2020-08-16T16:51:10Z</time></trkpt>
<trkpt lat="51.132928" lon="7.930602"><ele>258.4</ele><time>2020-08-16T16:51:14Z</time></trkpt>
<trkpt lat="51.132827" lon="7.930942"><ele>261.4</ele><time>2020-08-16T16:51:15Z</time></trkpt>
<trkpt lat="51.132689" lon="7.931321"><ele>261.4</ele><time>2020-08-16T16:51:17Z</time></trkpt>
<trkpt lat="51.132536" lon="7.931642"><ele>261.4</ele><time>2020-08-16T16:51:19Z</time></trkpt>
<trkpt lat="51.132387" lon="7.931879"><ele>256.8</ele><time>2020-08-16T16:51:20Z</time></trkpt>
<trkpt lat="51.13135" lon="7.933364"><ele>256.6</ele><time>2020-08-16T16:51:30Z</time></trkpt>
<trkpt lat="51.131024" lon="7.933895"><ele>256.6</ele><time>2020-08-16T16:51:34Z</time></trkpt>
<trkpt lat="51.130844" lon="7.934301"><ele>260.4</ele><time>2020-08-16T16:51:36Z</time></trkpt>
<trkpt lat="51.13077" lon="7.934536"><ele>255.0</ele><time>2020-08-16T16:51:37Z</time></trkpt>
<trkpt lat="51.130708" lon="7.934811"><ele>255.0</ele><time>2020-08-16T16:51:38Z</time></trkpt>
<trkpt lat="51.130649" lon="7.935199"><ele>256.2</ele><time>2020-08-16T16:51:40Z</time></trkpt>
<trkpt lat="51.130624" lon="7.935604"><ele>256.2</ele><time>2020-08-16T16:51:42Z</time></trkpt>
<trkpt lat="51.130649" lon="7.936285"><ele>257.0</ele><time>2020-08-16T16:51:45Z</time></trkpt>
<trkpt lat="51.130699" lon="7.936601"><ele>257.0</ele><time>2020-08-16T16:51:46Z</time></trkpt>
<trkpt lat="51.130773" lon="7.936875"><ele>259.2</ele><time>2020-08-16T16:51:48Z</time></trkpt>
<trkpt lat="51.130868" lon="7.937129"><ele>261.0</ele><time>2020-08-16T16:51:49Z</time></trkpt>
<trkpt lat="51.131031" lon="7.937461"><ele>259.6</ele><time>2020-08-16T16:51:51Z</time></trkpt>
<trkpt lat="51.131031" lon="7.937461"><ele>259.6</ele><time>2020-08-16T16:51:51Z</time></trkpt>
<trkpt lat="51.131336" lon="7.937952"><ele>258.2</ele><time>2020-08-16T16:51:55Z</time></trkpt>
<trkpt lat="51.131724" lon="7.938381"><ele>263.4</ele><time>2020-08-16T16:51:58Z</time></trkpt>
<trkpt lat="51.132314" lon="7.938882"><ele>263.4</ele><time>2020-08-16T16:52:04Z</time></trkpt>
<trkpt lat="51.132858" lon="7.939274"><ele>265.2</ele><time>2020-08-16T16:52:09Z</time></trkpt>
<trkpt lat="51.133564" lon="7.939687"><ele>270.8</ele><time>2020-08-16T16:52:15Z</time></trkpt>
<trkpt lat="51.13478" lon="7.940291"><ele>265.4</ele><time>2020-08-16T16:52:25Z</time></trkpt>
<trkpt lat="51.136009" lon="7.940803"><ele>271.0</ele><time>2020-08-16T16:52:35Z</time></trkpt>
<trkpt lat="51.13614" lon="7.94084"><ele>261.6</ele><time>2020-08-16T16:52:36Z</time></trkpt>
<trkpt lat="51.13671" lon="7.940752"><ele>264.8</ele><time>2020-08-16T16:52:41Z</time></trkpt>
<trkpt lat="51.137485" lon="7.940391"><ele>264.8</ele><time>2020-08-16T16:52:47Z</time></trkpt>
<trkpt lat="51.137688" lon="7.940335"><ele>263.4</ele><time>2020-08-16T16:52:49Z</time></trkpt>
<trkpt lat="51.137833" lon="7.940321"><ele>263.4</ele><time>2020-08-16T16:52:50Z</time></trkpt>
<trkpt lat="51.13799" lon="7.940337"><ele>263.4</ele><time>2020-08-16T16:52:52Z</time></trkpt>
<trkpt lat="51.13811" lon="7.940381"><ele>263.4</ele><time>2020-08-16T16:52:53Z</time></trkpt>
<trkpt lat="51.138819" lon="7.940839"><ele>264.4</ele><time>2020-08-16T16:52:59Z</time></trkpt>
<trkpt lat="51.13911" lon="7.941111"><ele>264.4</ele><time>2020-08-16T16:53:01Z</time></trkpt>
<trkpt lat="51.139555" lon="7.941618"><ele>280.8</ele><time>2020-08-16T16:53:06Z</time></trkpt>
<trkpt lat="51.139846" lon="7.942023"><ele>272.4</ele><time>2020-08-16T16:53:09Z</time></trkpt>
<trkpt lat="51.140333" lon="7.942815"><ele>279.4</ele><time>2020-08-16T16:53:15Z</time></trkpt>
<trkpt lat="51.140509" lon="7.943158"><ele>279.4</ele><time>2020-08-16T16:53:17Z</time></trkpt>
<trkpt lat="51.140611" lon="7.943403"><ele>270.2</ele><time>2020-08-16T16:53:19Z</time></trkpt>
<trkpt lat="51.140748" lon="7.943805"><ele>270.2</ele><time>2020-08-16T16:53:21Z</time></trkpt>
<trkpt lat="51.140863" lon="7.944257"><ele>284.4</ele><time>2020-08-16T16:53:24Z</time></trkpt>
<trkpt lat="51.140912" lon="7.944536"><ele>284.4</ele><time>2020-08-16T16:53:25Z</time></trkpt>
<trkpt lat="51.140991" lon="7.945339"><ele>279.6</ele><time>2020-08-16T16:53:29Z</time></trkpt>
<trkpt lat="51.140974" lon="7.946338"><ele>277.0</ele><time>2020-08-16T16:53:34Z</time></trkpt>
<trkpt lat="51.140896" lon="7.947065"><ele>277.8</ele><time>2020-08-16T16:53:38Z</time></trkpt>
<trkpt lat="51.140843" lon="7.947335"><ele>277.8</ele><time>2020-08-16T16:53:39Z</time></trkpt>
<trkpt lat="51.140753" lon="7.947685"><ele>266.6</ele><time>2020-08-16T16:53:41Z</time></trkpt>
<trkpt lat="51.140459" lon="7.948549"><ele>275.0</ele><time>2020-08-16T16:53:46Z</time></trkpt>
<trkpt lat="51.140405" lon="7.948832"><ele>275.0</ele><time>2020-08-16T16:53:48Z</time></trkpt>
<trkpt lat="51.14036" lon="7.949204"><ele>284.0</ele><time>2020-08-16T16:53:50Z</time></trkpt>
<trkpt lat="51.140384" lon="7.949631"><ele>284.0</ele><time>2020-08-16T16:53:52Z</time></trkpt>
<trkpt lat="51.140459" lon="7.949992"><ele>284.0</ele><time>2020-08-16T16:53:54Z</time></trkpt>
<trkpt lat="51.140626" lon="7.950446"><ele>287.4</ele><time>2020-08-16T16:53:57Z</time></trkpt>
<trkpt lat="51.140907" lon="7.950938"><ele>283.8</ele><time>2020-08-16T16:54:00Z</time></trkpt>
<trkpt lat="51.142366" lon="7.952847"><ele>273.0</ele><time>2020-08-16T16:54:15Z</time></trkpt>
<trkpt lat="51.142861" lon="7.953313"><ele>284.4</ele><time>2020-08-16T16:54:20Z</time></trkpt>
<trkpt lat="51.143128" lon="7.953494"><ele>274.8</ele><time>2020-08-16T16:54:22Z</time></trkpt>
<trkpt lat="51.143748" lon="7.953829"><ele>283.4</ele><time>2020-08-16T16:54:28Z</time></trkpt>
<trkpt lat="51.144063" lon="7.953933"><ele>283.4</ele><time>2020-08-16T16:54:30Z</time></trkpt>
<trkpt lat="51.144523" lon="7.95402"><ele>289.4</ele><time>2020-08-16T16:54:34Z</time></trkpt>
<trkpt lat="51.145851" lon="7.954155"><ele>292.6</ele><time>2020-08-16T16:54:45Z</time></trkpt>
<trkpt lat="51.146098" lon="7.954258"><ele>274.8</ele><time>2020-08-16T16:54:47Z</time></trkpt>
<trkpt lat="51.146384" lon="7.954462"><ele>274.8</ele><time>2020-08-16T16:54:50Z</time></trkpt>
<trkpt lat="51.146626" lon="7.954741"><ele>274.8</ele><time>2020-08-16T16:54:52Z</time></trkpt>
<trkpt lat="51.146884" lon="7.955207"><ele>262.4</ele><time>2020-08-16T16:54:55Z</time></trkpt>
<trkpt lat="51.147685" lon="7.95707"><ele>254.8</ele><time>2020-08-16T16:55:07Z</time></trkpt>
<trkpt lat="51.147786" lon="7.957375"><ele>254.8</ele><time>2020-08-16T16:55:09Z</time></trkpt>
<trkpt lat="51.147957" lon="7.957658"><ele>248.8</ele><time>2020-08-16T16:55:11Z</time></trkpt>
<trkpt lat="51.148392" lon="7.958263"><ele>255.0</ele><time>2020-08-16T16:55:15Z</time></trkpt>
<trkpt lat="51.148936" lon="7.958907"><ele>249.2</ele><time>2020-08-16T16:55:21Z</time></trkpt>
<trkpt lat="51.149246" lon="7.959238"><ele>248.6</ele><time>2020-08-16T16:55:24Z</time></trkpt>
<trkpt lat="51.150239" lon="7.960161"><ele>246.0</ele><time>2020-08-16T16:55:33Z</time></trkpt>
<trkpt lat="51.150582" lon="7.960397"><ele>246.0</ele><time>2020-08-16T16:55:36Z</time></trkpt>
<trkpt lat="51.150846" lon="7.960532"><ele>247.2</ele><time>2020-08-16T16:55:38Z</time></trkpt>
<trkpt lat="51.151515" lon="7.960586"><ele>247.2</ele><time>2020-08-16T16:55:44Z</time></trkpt>
<trkpt lat="51.151865" lon="7.960647"><ele>249.0</ele><time>2020-08-16T16:55:46Z</time></trkpt>
<trkpt lat="51.152137" lon="7.960741"><ele>249.0</ele><time>2020-08-16T16:55:49Z</time></trkpt>
<trkpt lat="51.152397" lon="7.960878"><ele>245.4</ele><time>2020-08-16T16:55:51Z</time></trkpt>
<trkpt lat="51.152598" lon="7.961017"><ele>244.6</ele><time>2020-08-16T16:55:53Z</time></trkpt>
<trkpt lat="51.153051" lon="7.961426"><ele>244.6</ele><time>2020-08-16T16:55:57Z</time></trkpt>
<trkpt lat="51.153195" lon="7.961491"><ele>244.6</ele><time>2020-08-16T16:56:02Z</time></trkpt>
<trkpt lat="51.15319" lon="7.96155"><ele>244.6</ele><time>2020-08-16T16:56:03Z</time></trkpt>
<trkpt lat="51.153226" lon="7.961673"><ele>243.0</ele><time>2020-08-16T16:56:04Z</time></trkpt>
<trkpt lat="51.153275" lon="7.961709"><ele>243.0</ele><time>2020-08-16T16:56:05Z</time></trkpt>
<trkpt lat="51.153275" lon="7.961709"><ele>243.0</ele><time>2020-08-16T16:56:05Z</time></trkpt>
<trkpt lat="51.153354" lon="7.96169"><ele>247.8</ele><time>2020-08-16T16:56:06Z</time></trkpt>
<trkpt lat="51.153395" lon="7.961615"><ele>247.6</ele><time>2020-08-16T16:56:07Z</time></trkpt>
<trkpt lat="51.153405" lon="7.961557"><ele>247.6</ele><time>2020-08-16T16:56:07Z</time></trkpt>
<trkpt lat="51.153378" lon="7.961429"><ele>247.6</ele><time>2020-08-16T16:56:08Z</time></trkpt>
<trkpt lat="51.153342" lon="7.961388"><ele>247.6</ele><time>2020-08-16T16:56:09Z</time></trkpt>
<trkpt lat="51.153409" lon="7.961137"><ele>247.6</ele><time>2020-08-16T16:56:11Z</time></trkpt>
<trkpt lat="51.153599" lon="7.960658"><ele>248.0</ele><time>2020-08-16T16:56:16Z</time></trkpt>
<trkpt lat="51.153776" lon="7.960338"><ele>248.0</ele><time>2020-08-16T16:56:19Z</time></trkpt>
<trkpt lat="51.154304" lon="7.959638"><ele>253.2</ele><time>2020-08-16T16:56:28Z</time></trkpt>
<trkpt lat="51.154533" lon="7.959387"><ele>253.2</ele><time>2020-08-16T16:56:32Z</time></trkpt>
<trkpt lat="51.155039" lon="7.958617"><ele>256.4</ele><time>2020-08-16T16:56:41Z</time></trkpt>
<trkpt lat="51.155197" lon="7.958256"><ele>255.0</ele><time>2020-08-16T16:56:45Z</time></trkpt>
<trkpt lat="51.155286" lon="7.95799"><ele>255.0</ele><time>2020-08-16T16:56:47Z</time></trkpt>
<trkpt lat="51.155356" lon="7.957715"><ele>255.0</ele><time>2020-08-16T16:56:50Z</time></trkpt>
<trkpt lat="51.155415" lon="7.957358"><ele>255.4</ele><time>2020-08-16T16:56:53Z</time></trkpt>
<trkpt lat="51.155447" lon="7.956944"><ele>255.4</ele><time>2020-08-16T16:56:56Z</time></trkpt>
<trkpt lat="51.155463" lon="7.956479"><ele>255.8</ele><time>2020-08-16T16:57:00Z</time></trkpt>
<trkpt lat="51.155443" lon="7.956092"><ele>255.8</ele><time>2020-08-16T16:57:03Z</time></trkpt>
<trkpt lat="51.155389" lon="7.955743"><ele>256.6</ele><time>2020-08-16T16:57:06Z</time></trkpt>
<trkpt lat="51.155357" lon="7.955387"><ele>256.6</ele><time>2020-08-16T16:57:09Z</time></trkpt>
<trkpt lat="51.155432" lon="7.953257"><ele>260.0</ele><time>2020-08-16T16:57:27Z</time></trkpt>
<trkpt lat="51.15546" lon="7.953078"><ele>260.0</ele><time>2020-08-16T16:57:28Z</time></trkpt>
<trkpt lat="51.155465" lon="7.952934"><ele>260.0</ele><time>2020-08-16T16:57:30Z</time></trkpt>
<trkpt lat="51.155441" lon="7.952791"><ele>260.0</ele><time>2020-08-16T16:57:31Z</time></trkpt>
<trkpt lat="51.155281" lon="7.952476"><ele>263.0</ele><time>2020-08-16T16:57:34Z</time></trkpt>
<trkpt lat="51.155194" lon="7.952371"><ele>263.0</ele><time>2020-08-16T16:57:36Z</time></trkpt>
<trkpt lat="51.155077" lon="7.952305"><ele>263.0</ele><time>2020-08-16T16:57:37Z</time></trkpt>
<trkpt lat="51.154857" lon="7.952307"><ele>261.8</ele><time>2020-08-16T16:57:40Z</time></trkpt>
<trkpt lat="51.154692" lon="7.952281"><ele>261.8</ele><time>2020-08-16T16:57:42Z</time></trkpt>
<trkpt lat="51.154529" lon="7.952132"><ele>261.8</ele><time>2020-08-16T16:57:45Z</time></trkpt>
<trkpt lat="51.154395" lon="7.951845"><ele>261.8</ele><time>2020-08-16T16:57:48Z</time></trkpt>
<trkpt lat="51.154133" lon="7.951124"><ele>265.8</ele><time>2020-08-16T16:57:55Z</time></trkpt>
<trkpt lat="51.154349" lon="7.951008"><ele>265.4</ele><time>2020-08-16T16:57:56Z</time></trkpt>
<trkpt lat="51.154492" lon="7.951009"><ele>265.4</ele><time>2020-08-16T16:57:57Z</time></trkpt>
<trkpt lat="51.154942" lon="7.951267"><ele>265.4</ele><time>2020-08-16T16:58:01Z</time></trkpt>
<trkpt lat="51.155152" lon="7.951341"><ele>268.2</ele><time>2020-08-16T16:58:02Z</time></trkpt>
<trkpt lat="51.155345" lon="7.95131"><ele>268.2</ele><time>2020-08-16T16:58:04Z</time></trkpt>
<trkpt lat="51.15552" lon="7.951196"><ele>268.2</ele><time>2020-08-16T16:58:05Z</time></trkpt>
<trkpt lat="51.155603" lon="7.951096"><ele>268.2</ele><time>2020-08-16T16:58:06Z</time></trkpt>
<trkpt lat="51.155743" lon="7.950812"><ele>274.0</ele><time>2020-08-16T16:58:07Z</time></trkpt>
<trkpt lat="51.155929" lon="7.950255"><ele>273.6</ele><time>2020-08-16T16:58:10Z</time></trkpt>
<trkpt lat="51.156081" lon="7.949962"><ele>279.4</ele><time>2020-08-16T16:58:12Z</time></trkpt>
<trkpt lat="51.157036" lon="7.948816"><ele>276.8</ele><time>2020-08-16T16:58:20Z</time></trkpt>
<trkpt lat="51.157168" lon="7.948609"><ele>276.8</ele><time>2020-08-16T16:58:21Z</time></trkpt>
<trkpt lat="51.157313" lon="7.948215"><ele>279.2</ele><time>2020-08-16T16:58:23Z</time></trkpt>
<trkpt lat="51.15741" lon="7.947814"><ele>279.2</ele><time>2020-08-16T16:58:25Z</time></trkpt>
<trkpt lat="51.157453" lon="7.94735"><ele>281.8</ele><time>2020-08-16T16:58:27Z</time></trkpt>
<trkpt lat="51.157517" lon="7.946876"><ele>284.6</ele><time>2020-08-16T16:58:29Z</time></trkpt>
<trkpt lat="51.157684" lon="7.946347"><ele>285.6</ele><time>2020-08-16T16:58:32Z</time></trkpt>
<trkpt lat="51.157903" lon="7.945973"><ele>285.6</ele><time>2020-08-16T16:58:34Z</time></trkpt>
<trkpt lat="51.158367" lon="7.945478"><ele>291.0</ele><time>2020-08-16T16:58:38Z</time></trkpt>
<trkpt lat="51.158629" lon="7.945135"><ele>291.0</ele><time>2020-08-16T16:58:40Z</time></trkpt>
<trkpt lat="51.158915" lon="7.944536"><ele>293.0</ele><time>2020-08-16T16:58:44Z</time></trkpt>
<trkpt lat="51.159161" lon="7.94384"><ele>297.4</ele><time>2020-08-16T16:58:47Z</time></trkpt>
<trkpt lat="51.159565" lon="7.943003"><ele>293.6</ele><time>2020-08-16T16:58:52Z</time></trkpt>
<trkpt lat="51.160352" lon="7.942099"><ele>294.4</ele><time>2020-08-16T16:58:59Z</time></trkpt>
<trkpt lat="51.160517" lon="7.941853"><ele>294.4</ele><time>2020-08-16T16:59:00Z</time></trkpt>
<trkpt lat="51.160706" lon="7.941407"><ele>293.6</ele><time>2020-08-16T16:59:02Z</time></trkpt>
<trkpt lat="51.160974" lon="7.940498"><ele>306.8</ele><time>2020-08-16T16:59:07Z</time></trkpt>
<trkpt lat="51.161221" lon="7.94006"><ele>306.8</ele><time>2020-08-16T16:59:09Z</time></trkpt>
<trkpt lat="51.161424" lon="7.93983"><ele>311.8</ele><time>2020-08-16T16:59:11Z</time></trkpt>
<trkpt lat="51.16534" lon="7.936139"><ele>371.0</ele><time>2020-08-16T16:59:43Z</time></trkpt>
<trkpt lat="51.165511" lon="7.935934"><ele>371.0</ele><time>2020-08-16T16:59:45Z</time></trkpt>
<trkpt lat="51.165853" lon="7.935302"><ele>377.6</ele><time>2020-08-16T16:59:48Z</time></trkpt>
<trkpt lat="51.165988" lon="7.93518"><ele>377.6</ele><time>2020-08-16T16:59:49Z</time></trkpt>
<trkpt lat="51.166106" lon="7.935145"><ele>377.6</ele><time>2020-08-16T16:59:50Z</time></trkpt>
<trkpt lat="51.166274" lon="7.935211"><ele>377.6</ele><time>2020-08-16T16:59:51Z</time></trkpt>
<trkpt lat="51.166564" lon="7.935446"><ele>377.6</ele><time>2020-08-16T16:59:54Z</time></trkpt>
<trkpt lat="51.166753" lon="7.935424"><ele>389.0</ele><time>2020-08-16T16:59:55Z</time></trkpt>
<trkpt lat="51.166818" lon="7.935342"><ele>389.0</ele><time>2020-08-16T16:59:56Z</time></trkpt>
<trkpt lat="51.166873" lon="7.935169"><ele>389.0</ele><time>2020-08-16T16:59:56Z</time></trkpt>
<trkpt lat="51.166891" lon="7.934976"><ele>388.6</ele><time>2020-08-16T16:59:57Z</time></trkpt>
<trkpt lat="51.16673" lon="7.93442"><ele>388.6</ele><time>2020-08-16T17:00:00Z</time></trkpt>
<trkpt lat="51.166713" lon="7.934194"><ele>388.6</ele><time>2020-08-16T17:00:01Z</time></trkpt>
<trkpt lat="51.16674" lon="7.934012"><ele>390.2</ele><time>2020-08-16T17:00:02Z</time></trkpt>
<trkpt lat="51.166936" lon="7.933581"><ele>390.2</ele><time>2020-08-16T17:00:04Z</time></trkpt>
<trkpt lat="51.167128" lon="7.933245"><ele>393.4</ele><time>2020-08-16T17:00:06Z</time></trkpt>
<trkpt lat="51.16725" lon="7.93308"><ele>393.4</ele><time>2020-08-16T17:00:07Z</time></trkpt>
<trkpt lat="51.167398" lon="7.932977"><ele>393.4</ele><time>2020-08-16T17:00:08Z</time></trkpt>
<trkpt lat="51.167565" lon="7.932951"><ele>397.6</ele><time>2020-08-16T17:00:10Z</time></trkpt>
<trkpt lat="51.167739" lon="7.932998"><ele>397.6</ele><time>2020-08-16T17:00:11Z</time></trkpt>
<trkpt lat="51.168192" lon="7.933185"><ele>397.6</ele><time>2020-08-16T17:00:14Z</time></trkpt>
<trkpt lat="51.168337" lon="7.933194"><ele>411.0</ele><time>2020-08-16T17:00:15Z</time></trkpt>
<trkpt lat="51.168472" lon="7.933154"><ele>411.0</ele><time>2020-08-16T17:00:16Z</time></trkpt>
<trkpt lat="51.168785" lon="7.932985"><ele>411.0</ele><time>2020-08-16T17:00:19Z</time></trkpt>
<trkpt lat="51.168876" lon="7.933017"><ele>411.0</ele><time>2020-08-16T17:00:19Z</time></trkpt>
<trkpt lat="51.168945" lon="7.933145"><ele>411.0</ele><time>2020-08-16T17:00:20Z</time></trkpt>
<trkpt lat="51.168968" lon="7.933255"><ele>411.0</ele><time>2020-08-16T17:00:20Z</time></trkpt>
<trkpt lat="51.168953" lon="7.933366"><ele>409.4</ele><time>2020-08-16T17:00:21Z</time></trkpt>
<trkpt lat="51.168903" lon="7.933464"><ele>409.4</ele><time>2020-08-16T17:00:22Z</time></trkpt>
<trkpt lat="51.168706" lon="7.933603"><ele>409.4</ele><time>2020-08-16T17:00:23Z</time></trkpt>
<trkpt lat="51.168309" lon="7.933769"><ele>398.2</ele><time>2020-08-16T17:00:26Z</time></trkpt>
<trkpt lat="51.168106" lon="7.933918"><ele>398.2</ele><time>2020-08-16T17:00:28Z</time></trkpt>
<trkpt lat="51.168047" lon="7.934032"><ele>398.2</ele><time>2020-08-16T17:00:28Z</time></trkpt>
<trkpt lat="51.168012" lon="7.934151"><ele>398.2</ele><time>2020-08-16T17:00:29Z</time></trkpt>
<trkpt lat="51.167991" lon="7.934327"><ele>401.8</ele><time>2020-08-16T17:00:30Z</time></trkpt>
<trkpt lat="51.16804" lon="7.934462"><ele>401.8</ele><time>2020-08-16T17:00:30Z</time></trkpt>
<trkpt lat="51.168168" lon="7.934562"><ele>401.8</ele><time>2020-08-16T17:00:31Z</time></trkpt>
<trkpt lat="51.169479" lon="7.934683"><ele>427.2</ele><time>2020-08-16T17:00:40Z</time></trkpt>
<trkpt lat="51.169793" lon="7.934586"><ele>427.2</ele><time>2020-08-16T17:00:43Z</time></trkpt>
<trkpt lat="51.170066" lon="7.934409"><ele>439.8</ele><time>2020-08-16T17:00:45Z</time></trkpt>
<trkpt lat="51.170239" lon="7.933962"><ele>445.6</ele><time>2020-08-16T17:00:47Z</time></trkpt>
<trkpt lat="51.170265" lon="7.933441"><ele>445.6</ele><time>2020-08-16T17:00:49Z</time></trkpt>
<trkpt lat="51.169259" lon="7.930206"><ele>458.8</ele><time>2020-08-16T17:01:05Z</time></trkpt>
<trkpt lat="51.169337" lon="7.926472"><ele>466.2</ele><time>2020-08-16T17:01:22Z</time></trkpt>
<trkpt lat="51.169388" lon="7.926072"><ele>466.2</ele><time>2020-08-16T17:01:23Z</time></trkpt>
<trkpt lat="51.169469" lon="7.925617"><ele>472.2</ele><time>2020-08-16T17:01:25Z</time></trkpt>
<trkpt lat="51.169591" lon="7.925408"><ele>472.2</ele><time>2020-08-16T17:01:27Z</time></trkpt>
<trkpt lat="51.169775" lon="7.925271"><ele>472.2</ele><time>2020-08-16T17:01:28Z</time></trkpt>
<trkpt lat="51.170496" lon="7.925101"><ele>469.4</ele><time>2020-08-16T17:01:33Z</time></trkpt>
<trkpt lat="51.170923" lon="7.925079"><ele>464.2</ele><time>2020-08-16T17:01:36Z</time></trkpt>
<trkpt lat="51.171284" lon="7.925123"><ele>464.2</ele><time>2020-08-16T17:01:39Z</time></trkpt>
<trkpt lat="51.171718" lon="7.925283"><ele>461.2</ele><time>2020-08-16T17:01:42Z</time></trkpt>
<trkpt lat="51.172808" lon="7.925888"><ele>445.8</ele><time>2020-08-16T17:01:50Z</time></trkpt>
<trkpt lat="51.173236" lon="7.925882"><ele>445.8</ele><time>2020-08-16T17:01:53Z</time></trkpt>
<trkpt lat="51.173458" lon="7.925524"><ele>436.2</ele><time>2020-08-16T17:01:55Z</time></trkpt>
<trkpt lat="51.173766" lon="7.923965"><ele>441.4</ele><time>2020-08-16T17:02:02Z</time></trkpt>
<trkpt lat="51.173894" lon="7.922803"><ele>437.0</ele><time>2020-08-16T17:02:07Z</time></trkpt>
<trkpt lat="51.1738" lon="7.921596"><ele>425.4</ele><time>2020-08-16T17:02:13Z</time></trkpt>
<trkpt lat="51.173863" lon="7.92133"><ele>425.4</ele><time>2020-08-16T17:02:14Z</time></trkpt>
<trkpt lat="51.173978" lon="7.921239"><ele>425.4</ele><time>2020-08-16T17:02:15Z</time></trkpt>
<trkpt lat="51.173978" lon="7.921239"><ele>425.4</ele><time>2020-08-16T17:02:15Z</time></trkpt>
<trkpt lat="51.174025" lon="7.921202"><ele>425.4</ele><time>2020-08-16T17:02:15Z</time></trkpt>
<trkpt lat="51.17416" lon="7.921162"><ele>425.4</ele><time>2020-08-16T17:02:16Z</time></trkpt>
<trkpt lat="51.174266" lon="7.921298"><ele>411.4</ele><time>2020-08-16T17:02:17Z</time></trkpt>
<trkpt lat="51.174307" lon="7.921408"><ele>411.4</ele><time>2020-08-16T17:02:18Z</time></trkpt>
<trkpt lat="51.174315" lon="7.921524"><ele>411.4</ele><time>2020-08-16T17:02:18Z</time></trkpt>
<trkpt lat="51.173961" lon="7.925588"><ele>436.2</ele><time>2020-08-16T17:02:33Z</time></trkpt>
<trkpt lat="51.173946" lon="7.926483"><ele>429.6</ele><time>2020-08-16T17:02:36Z</time></trkpt>
<trkpt lat="51.173967" lon="7.927084"><ele>423.4</ele><time>2020-08-16T17:02:39Z</time></trkpt>
<trkpt lat="51.174033" lon="7.927648"><ele>422.8</ele><time>2020-08-16T17:02:41Z</time></trkpt>
<trkpt lat="51.17418" lon="7.928384"><ele>410.0</ele><time>2020-08-16T17:02:44Z</time></trkpt>
<trkpt lat="51.174508" lon="7.929387"><ele>420.6</ele><time>2020-08-16T17:02:48Z</time></trkpt>
<trkpt lat="51.17482" lon="7.930188"><ele>434.2</ele><time>2020-08-16T17:02:51Z</time></trkpt>
<trkpt lat="51.17548" lon="7.931288"><ele>420.6</ele><time>2020-08-16T17:02:57Z</time></trkpt>
<trkpt lat="51.176084" lon="7.932044"><ele>413.0</ele><time>2020-08-16T17:03:01Z</time></trkpt>
<trkpt lat="51.176887" lon="7.932757"><ele>412.6</ele><time>2020-08-16T17:03:07Z</time></trkpt>
<trkpt lat="51.178014" lon="7.933599"><ele>412.0</ele><time>2020-08-16T17:03:14Z</time></trkpt>
<trkpt lat="51.17983" lon="7.935101"><ele>408.6</ele><time>2020-08-16T17:03:26Z</time></trkpt>
<trkpt lat="51.180146" lon="7.935319"><ele>389.2</ele><time>2020-08-16T17:03:28Z</time></trkpt>
<trkpt lat="51.180371" lon="7.93543"><ele>389.2</ele><time>2020-08-16T17:03:29Z</time></trkpt>
<trkpt lat="51.180754" lon="7.935559"><ele>389.2</ele><time>2020-08-16T17:03:32Z</time></trkpt>
<trkpt lat="51.180942" lon="7.935562"><ele>380.8</ele><time>2020-08-16T17:03:33Z</time></trkpt>
<trkpt lat="51.180942" lon="7.935562"><ele>380.8</ele><time>2020-08-16T17:03:33Z</time></trkpt>
<trkpt lat="51.181548" lon="7.935496"><ele>380.8</ele><time>2020-08-16T17:03:37Z</time></trkpt>
<trkpt lat="51.181722" lon="7.935444"><ele>380.0</ele><time>2020-08-16T17:03:38Z</time></trkpt>
<trkpt lat="51.182319" lon="7.935198"><ele>380.0</ele><time>2020-08-16T17:03:41Z</time></trkpt>
<trkpt lat="51.182889" lon="7.934807"><ele>378.0</ele><time>2020-08-16T17:03:45Z</time></trkpt>
<trkpt lat="51.183612" lon="7.934207"><ele>376.0</ele><time>2020-08-16T17:03:50Z</time></trkpt>
<trkpt lat="51.184236" lon="7.933435"><ele>372.0</ele><time>2020-08-16T17:03:54Z</time></trkpt>
<trkpt lat="51.184415" lon="7.933128"><ele>377.4</ele><time>2020-08-16T17:03:56Z</time></trkpt>
<trkpt lat="51.184617" lon="7.932825"><ele>377.4</ele><time>2020-08-16T17:03:57Z</time></trkpt>
<trkpt lat="51.185497" lon="7.931145"><ele>384.0</ele><time>2020-08-16T17:04:05Z</time></trkpt>
<trkpt lat="51.186075" lon="7.929964"><ele>379.4</ele><time>2020-08-16T17:04:11Z</time></trkpt>
<trkpt lat="51.186441" lon="7.929322"><ele>379.4</ele><time>2020-08-16T17:04:14Z</time></trkpt>
<trkpt lat="51.186854" lon="7.928693"><ele>364.2</ele><time>2020-08-16T17:04:17Z</time></trkpt>
<trkpt lat="51.187618" lon="7.927716"><ele>361.0</ele><time>2020-08-16T17:04:23Z</time></trkpt>
<trkpt lat="51.188253" lon="7.927064"><ele>363.8</ele><time>2020-08-16T17:04:27Z</time></trkpt>
<trkpt lat="51.189135" lon="7.926207"><ele>371.0</ele><time>2020-08-16T17:04:33Z</time></trkpt>
<trkpt lat="51.189675" lon="7.925817"><ele>372.6</ele><time>2020-08-16T17:04:36Z</time></trkpt>
<trkpt lat="51.191129" lon="7.925206"><ele>367.4</ele><time>2020-08-16T17:04:45Z</time></trkpt>
<trkpt lat="51.191773" lon="7.925011"><ele>367.2</ele><time>2020-08-16T17:04:49Z</time></trkpt>
<trkpt lat="51.192047" lon="7.924959"><ele>376.0</ele><time>2020-08-16T17:04:50Z</time></trkpt>
<trkpt lat="51.192595" lon="7.924941"><ele>377.8</ele><time>2020-08-16T17:04:54Z</time></trkpt>
<trkpt lat="51.19314" lon="7.925045"><ele>366.4</ele><time>2020-08-16T17:04:57Z</time></trkpt>
<trkpt lat="51.193391" lon="7.925133"><ele>364.8</ele><time>2020-08-16T17:04:58Z</time></trkpt>
<trkpt lat="51.19442" lon="7.925624"><ele>362.2</ele><time>2020-08-16T17:05:04Z</time></trkpt>
<trkpt lat="51.194574" lon="7.92567"><ele>362.2</ele><time>2020-08-16T17:05:05Z</time></trkpt>
<trkpt lat="51.195005" lon="7.92571"><ele>356.2</ele><time>2020-08-16T17:05:08Z</time></trkpt>
<trkpt lat="51.195232" lon="7.925684"><ele>356.2</ele><time>2020-08-16T17:05:09Z</time></trkpt>
<trkpt lat="51.195657" lon="7.925533"><ele>356.2</ele><time>2020-08-16T17:05:12Z</time></trkpt>
<trkpt lat="51.196081" lon="7.925279"><ele>350.6</ele><time>2020-08-16T17:05:14Z</time></trkpt>
<trkpt lat="51.196311" lon="7.92509"><ele>350.6</ele><time>2020-08-16T17:05:16Z</time></trkpt>
<trkpt lat="51.196585" lon="7.924819"><ele>351.8</ele><time>2020-08-16T17:05:18Z</time></trkpt>
<trkpt lat="51.196859" lon="7.924405"><ele>348.0</ele><time>2020-08-16T17:05:20Z</time></trkpt>
<trkpt lat="51.197013" lon="7.924226"><ele>348.0</ele><time>2020-08-16T17:05:21Z</time></trkpt>
<trkpt lat="51.197013" lon="7.924226"><ele>348.0</ele><time>2020-08-16T17:05:21Z</time></trkpt>
<trkpt lat="51.19738" lon="7.923175"><ele>349.2</ele><time>2020-08-16T17:05:25Z</time></trkpt>
<trkpt lat="51.197519" lon="7.922599"><ele>352.2</ele><time>2020-08-16T17:05:28Z</time></trkpt>
<trkpt lat="51.197627" lon="7.922075"><ele>349.6</ele><time>2020-08-16T17:05:30Z</time></trkpt>
<trkpt lat="51.19795" lon="7.920179"><ele>352.6</ele><time>2020-08-16T17:05:37Z</time></trkpt>
<trkpt lat="51.198032" lon="7.919558"><ele>357.2</ele><time>2020-08-16T17:05:39Z</time></trkpt>
<trkpt lat="51.198194" lon="7.91802"><ele>364.2</ele><time>2020-08-16T17:05:45Z</time></trkpt>
<trkpt lat="51.198307" lon="7.917257"><ele>363.2</ele><time>2020-08-16T17:05:47Z</time></trkpt>
<trkpt lat="51.198567" lon="7.9161"><ele>337.0</ele><time>2020-08-16T17:05:52Z</time></trkpt>
<trkpt lat="51.198801" lon="7.915374"><ele>332.4</ele><time>2020-08-16T17:05:55Z</time></trkpt>
<trkpt lat="51.198988" lon="7.914868"><ele>334.6</ele><time>2020-08-16T17:05:57Z</time></trkpt>
<trkpt lat="51.199202" lon="7.914402"><ele>329.0</ele><time>2020-08-16T17:05:59Z</time></trkpt>
<trkpt lat="51.199446" lon="7.913956"><ele>329.2</ele><time>2020-08-16T17:06:01Z</time></trkpt>
<trkpt lat="51.200019" lon="7.913065"><ele>329.4</ele><time>2020-08-16T17:06:06Z</time></trkpt>
<trkpt lat="51.200316" lon="7.912664"><ele>329.4</ele><time>2020-08-16T17:06:08Z</time></trkpt>
<trkpt lat="51.20075" lon="7.91218"><ele>334.8</ele><time>2020-08-16T17:06:11Z</time></trkpt>
<trkpt lat="51.200956" lon="7.912016"><ele>327.4</ele><time>2020-08-16T17:06:13Z</time></trkpt>
<trkpt lat="51.201155" lon="7.911892"><ele>327.4</ele><time>2020-08-16T17:06:14Z</time></trkpt>
<trkpt lat="51.202318" lon="7.911409"><ele>330.8</ele><time>2020-08-16T17:06:21Z</time></trkpt>
<trkpt lat="51.202843" lon="7.911049"><ele>317.8</ele><time>2020-08-16T17:06:24Z</time></trkpt>
<trkpt lat="51.203108" lon="7.910812"><ele>325.2</ele><time>2020-08-16T17:06:26Z</time></trkpt>
<trkpt lat="51.204456" lon="7.909396"><ele>301.6</ele><time>2020-08-16T17:06:35Z</time></trkpt>
<trkpt lat="51.204863" lon="7.909049"><ele>302.4</ele><time>2020-08-16T17:06:38Z</time></trkpt>
<trkpt lat="51.205113" lon="7.908899"><ele>295.6</ele><time>2020-08-16T17:06:40Z</time></trkpt>
<trkpt lat="51.206198" lon="7.90833"><ele>296.0</ele><time>2020-08-16T17:06:46Z</time></trkpt>
<trkpt lat="51.206466" lon="7.908146"><ele>296.0</ele><time>2020-08-16T17:06:48Z</time></trkpt>
<trkpt lat="51.206997" lon="7.907683"><ele>294.0</ele><time>2020-08-16T17:06:51Z</time></trkpt>
<trkpt lat="51.207201" lon="7.907443"><ele>295.6</ele><time>2020-08-16T17:06:53Z</time></trkpt>
<trkpt lat="51.20816" lon="7.906136"><ele>297.6</ele><time>2020-08-16T17:07:00Z</time></trkpt>
<trkpt lat="51.208872" lon="7.905116"><ele>292.8</ele><time>2020-08-16T17:07:06Z</time></trkpt>
<trkpt lat="51.209036" lon="7.904834"><ele>300.4</ele><time>2020-08-16T17:07:07Z</time></trkpt>
<trkpt lat="51.209209" lon="7.904486"><ele>287.6</ele><time>2020-08-16T17:07:09Z</time></trkpt>
<trkpt lat="51.209408" lon="7.903923"><ele>289.2</ele><time>2020-08-16T17:07:11Z</time></trkpt>
<trkpt lat="51.209477" lon="7.903644"><ele>289.2</ele><time>2020-08-16T17:07:13Z</time></trkpt>
<trkpt lat="51.209477" lon="7.903644"><ele>289.2</ele><time>2020-08-16T17:07:13Z</time></trkpt>
<trkpt lat="51.209586" lon="7.902989"><ele>287.4</ele><time>2020-08-16T17:07:16Z</time></trkpt>
<trkpt lat="51.209604" lon="7.902677"><ele>287.4</ele><time>2020-08-16T17:07:17Z</time></trkpt>
<trkpt lat="51.20958" lon="7.901864"><ele>285.0</ele><time>2020-08-16T17:07:20Z</time></trkpt>
<trkpt lat="51.209494" lon="7.90111"><ele>282.0</ele><time>2020-08-16T17:07:23Z</time></trkpt>
<trkpt lat="51.209399" lon="7.900545"><ele>279.8</ele><time>2020-08-16T17:07:26Z</time></trkpt>
<trkpt lat="51.209193" lon="7.899574"><ele>278.4</ele><time>2020-08-16T17:07:30Z</time></trkpt>
<trkpt lat="51.208821" lon="7.898048"><ele>267.8</ele><time>2020-08-16T17:07:37Z</time></trkpt>
<trkpt lat="51.208579" lon="7.89685"><ele>267.2</ele><time>2020-08-16T17:07:42Z</time></trkpt>
<trkpt lat="51.208507" lon="7.896364"><ele>267.0</ele><time>2020-08-16T17:07:44Z</time></trkpt>
<trkpt lat="51.208448" lon="7.895821"><ele>267.0</ele><time>2020-08-16T17:07:46Z</time></trkpt>
<trkpt lat="51.208389" lon="7.89475"><ele>266.4</ele><time>2020-08-16T17:07:51Z</time></trkpt>
<trkpt lat="51.208393" lon="7.893592"><ele>265.0</ele><time>2020-08-16T17:07:55Z</time></trkpt>
<trkpt lat="51.208465" lon="7.892827"><ele>261.0</ele><time>2020-08-16T17:07:59Z</time></trkpt>
<trkpt lat="51.208545" lon="7.892429"><ele>257.8</ele><time>2020-08-16T17:08:00Z</time></trkpt>
<trkpt lat="51.208649" lon="7.892067"><ele>257.8</ele><time>2020-08-16T17:08:02Z</time></trkpt>
<trkpt lat="51.208778" lon="7.89174"><ele>257.8</ele><time>2020-08-16T17:08:03Z</time></trkpt>
<trkpt lat="51.208914" lon="7.891485"><ele>257.2</ele><time>2020-08-16T17:08:05Z</time></trkpt>
<trkpt lat="51.209047" lon="7.891259"><ele>257.2</ele><time>2020-08-16T17:08:06Z</time></trkpt>
<trkpt lat="51.209417" lon="7.890749"><ele>253.0</ele><time>2020-08-16T17:08:09Z</time></trkpt>
<trkpt lat="51.209552" lon="7.890519"><ele>253.0</ele><time>2020-08-16T17:08:11Z</time></trkpt>
<trkpt lat="51.209686" lon="7.890253"><ele>253.0</ele><time>2020-08-16T17:08:12Z</time></trkpt>
<trkpt lat="51.209929" lon="7.889572"><ele>251.2</ele><time>2020-08-16T17:08:15Z</time></trkpt>
<trkpt lat="51.210017" lon="7.888968"><ele>251.0</ele><time>2020-08-16T17:08:18Z</time></trkpt>
<trkpt lat="51.210049" lon="7.8886"><ele>251.0</ele><time>2020-08-16T17:08:19Z</time></trkpt>
<trkpt lat="51.21005" lon="7.888227"><ele>247.4</ele><time>2020-08-16T17:08:21Z</time></trkpt>
<trkpt lat="51.210026" lon="7.887862"><ele>247.4</ele><time>2020-08-16T17:08:22Z</time></trkpt>
<trkpt lat="51.209954" lon="7.887381"><ele>257.8</ele><time>2020-08-16T17:08:24Z</time></trkpt>
<trkpt lat="51.209678" lon="7.886422"><ele>262.6</ele><time>2020-08-16T17:08:29Z</time></trkpt>
<trkpt lat="51.209641" lon="7.886149"><ele>262.6</ele><time>2020-08-16T17:08:30Z</time></trkpt>
<trkpt lat="51.209632" lon="7.885971"><ele>262.6</ele><time>2020-08-16T17:08:31Z</time></trkpt>
<trkpt lat="51.209642" lon="7.884715"><ele>260.8</ele><time>2020-08-16T17:08:36Z</time></trkpt>
<trkpt lat="51.209668" lon="7.884409"><ele>260.8</ele><time>2020-08-16T17:08:37Z</time></trkpt>
<trkpt lat="51.209707" lon="7.884164"><ele>252.8</ele><time>2020-08-16T17:08:38Z</time></trkpt>
<trkpt lat="51.209956" lon="7.883288"><ele>242.8</ele><time>2020-08-16T17:08:42Z</time></trkpt>
<trkpt lat="51.21" lon="7.883043"><ele>242.8</ele><time>2020-08-16T17:08:43Z</time></trkpt>
<trkpt lat="51.21005" lon="7.882578"><ele>234.6</ele><time>2020-08-16T17:08:46Z</time></trkpt>
<trkpt lat="51.210108" lon="7.882559"><ele>234.6</ele><time>2020-08-16T17:08:46Z</time></trkpt>
<trkpt lat="51.21015" lon="7.882497"><ele>231.4</ele><time>2020-08-16T17:08:47Z</time></trkpt>
<trkpt lat="51.210164" lon="7.882366"><ele>231.4</ele><time>2020-08-16T17:08:48Z</time></trkpt>
<trkpt lat="51.210116" lon="7.882257"><ele>231.4</ele><time>2020-08-16T17:08:49Z</time></trkpt>
<trkpt lat="51.210211" lon="7.881991"><ele>231.4</ele><time>2020-08-16T17:08:51Z</time></trkpt>
<trkpt lat="51.210471" lon="7.881553"><ele>230.8</ele><time>2020-08-16T17:08:54Z</time></trkpt>
<trkpt lat="51.210744" lon="7.881167"><ele>230.8</ele><time>2020-08-16T17:08:58Z</time></trkpt>
<trkpt lat="51.210887" lon="7.880888"><ele>231.0</ele><time>2020-08-16T17:09:01Z</time></trkpt>
<trkpt lat="51.210946" lon="7.880716"><ele>229.6</ele><time>2020-08-16T17:09:02Z</time></trkpt>
<trkpt lat="51.210973" lon="7.880581"><ele>229.6</ele><time>2020-08-16T17:09:03Z</time></trkpt>
<trkpt lat="51.211011" lon="7.880243"><ele>229.6</ele><time>2020-08-16T17:09:05Z</time></trkpt>
<trkpt lat="51.211008" lon="7.879839"><ele>229.8</ele><time>2020-08-16T17:09:08Z</time></trkpt>
<trkpt lat="51.210972" lon="7.879108"><ele>230.8</ele><time>2020-08-16T17:09:13Z</time></trkpt>
<trkpt lat="51.210938" lon="7.878722"><ele>230.8</ele><time>2020-08-16T17:09:15Z</time></trkpt>
<trkpt lat="51.210843" lon="7.878333"><ele>232.2</ele><time>2020-08-16T17:09:18Z</time></trkpt>
<trkpt lat="51.210354" lon="7.877158"><ele>238.8</ele><time>2020-08-16T17:09:27Z</time></trkpt>
<trkpt lat="51.2103" lon="7.876864"><ele>238.8</ele><time>2020-08-16T17:09:29Z</time></trkpt>
<trkpt lat="51.21024" lon="7.875166"><ele>238.6</ele><time>2020-08-16T17:09:40Z</time></trkpt>
<trkpt lat="51.210237" lon="7.87482"><ele>235.4</ele><time>2020-08-16T17:09:42Z</time></trkpt>
<trkpt lat="51.210297" lon="7.873849"><ele>231.6</ele><time>2020-08-16T17:09:49Z</time></trkpt>
<trkpt lat="51.210272" lon="7.873503"><ele>231.6</ele><time>2020-08-16T17:09:51Z</time></trkpt>
<trkpt lat="51.210329" lon="7.873447"><ele>231.6</ele><time>2020-08-16T17:09:52Z</time></trkpt>
<trkpt lat="51.210345" lon="7.873344"><ele>231.6</ele><time>2020-08-16T17:09:53Z</time></trkpt>
<trkpt lat="51.2103" lon="7.873239"><ele>229.0</ele><time>2020-08-16T17:09:54Z</time></trkpt>
<trkpt lat="51.21022" lon="7.873236"><ele>229.0</ele><time>2020-08-16T17:09:54Z</time></trkpt>
<trkpt lat="51.210137" lon="7.872865"><ele>229.0</ele><time>2020-08-16T17:09:57Z</time></trkpt>
<trkpt lat="51.210048" lon="7.871507"><ele>230.4</ele><time>2020-08-16T17:10:06Z</time></trkpt>
<trkpt lat="51.210054" lon="7.871422"><ele>230.4</ele><time>2020-08-16T17:10:06Z</time></trkpt>
<trkpt lat="51.210134" lon="7.871156"><ele>230.4</ele><time>2020-08-16T17:10:08Z</time></trkpt>
<trkpt lat="51.210107" lon="7.871131"><ele>230.4</ele><time>2020-08-16T17:10:09Z</time></trkpt>
<trkpt lat="51.210107" lon="7.871131"><ele>230.4</ele><time>2020-08-16T17:10:09Z</time></trkpt>
<trkpt lat="51.210358" lon="7.87132"><ele>230.4</ele><time>2020-08-16T17:10:12Z</time></trkpt>
<trkpt lat="51.210661" lon="7.871504"><ele>230.4</ele><time>2020-08-16T17:10:15Z</time></trkpt>
<trkpt lat="51.210932" lon="7.87162"><ele>233.0</ele><time>2020-08-16T17:10:18Z</time></trkpt>
<trkpt lat="51.211208" lon="7.871707"><ele>227.4</ele><time>2020-08-16T17:10:21Z</time></trkpt>
<trkpt lat="51.211583" lon="7.871773"><ele>227.4</ele><time>2020-08-16T17:10:25Z</time></trkpt>
<trkpt lat="51.211767" lon="7.871786"><ele>227.6</ele><time>2020-08-16T17:10:26Z</time></trkpt>
<trkpt lat="51.212106" lon="7.871744"><ele>227.6</ele><time>2020-08-16T17:10:30Z</time></trkpt>
<trkpt lat="51.212494" lon="7.871642"><ele>235.8</ele><time>2020-08-16T17:10:34Z</time></trkpt>
<trkpt lat="51.213107" lon="7.871426"><ele>240.2</ele><time>2020-08-16T17:10:40Z</time></trkpt>
<trkpt lat="51.213573" lon="7.871322"><ele>249.2</ele><time>2020-08-16T17:10:45Z</time></trkpt>
<trkpt lat="51.213797" lon="7.871324"><ele>249.2</ele><time>2020-08-16T17:10:48Z</time></trkpt>
<trkpt lat="51.214368" lon="7.871401"><ele>257.2</ele><time>2020-08-16T17:10:53Z</time></trkpt>
<trkpt lat="51.214835" lon="7.871497"><ele>257.2</ele><time>2020-08-16T17:10:58Z</time></trkpt>
<trkpt lat="51.215369" lon="7.871524"><ele>258.2</ele><time>2020-08-16T17:11:04Z</time></trkpt>
<trkpt lat="51.21564" lon="7.871568"><ele>258.2</ele><time>2020-08-16T17:11:06Z</time></trkpt>
<trkpt lat="51.216486" lon="7.871836"><ele>230.2</ele><time>2020-08-16T17:11:16Z</time></trkpt>
<trkpt lat="51.216771" lon="7.871835"><ele>231.6</ele><time>2020-08-16T17:11:19Z</time></trkpt>
<trkpt lat="51.217085" lon="7.871768"><ele>231.6</ele><time>2020-08-16T17:11:22Z</time></trkpt>
<trkpt lat="51.217478" lon="7.871554"><ele>254.4</ele><time>2020-08-16T17:11:27Z</time></trkpt>
<trkpt lat="51.218682" lon="7.870453"><ele>280.2</ele><time>2020-08-16T17:11:41Z</time></trkpt>
<trkpt lat="51.219733" lon="7.869736"><ele>285.2</ele><time>2020-08-16T17:11:53Z</time></trkpt>
<trkpt lat="51.220695" lon="7.869375"><ele>278.2</ele><time>2020-08-16T17:12:03Z</time></trkpt>
<trkpt lat="51.221352" lon="7.869184"><ele>280.4</ele><time>2020-08-16T17:12:09Z</time></trkpt>
<trkpt lat="51.221964" lon="7.869158"><ele>301.8</ele><time>2020-08-16T17:12:16Z</time></trkpt>
<trkpt lat="51.222568" lon="7.869268"><ele>273.2</ele><time>2020-08-16T17:12:23Z</time></trkpt>
<trkpt lat="51.223163" lon="7.869548"><ele>273.2</ele><time>2020-08-16T17:12:29Z</time></trkpt>
<trkpt lat="51.223742" lon="7.869886"><ele>254.6</ele><time>2020-08-16T17:12:36Z</time></trkpt>
<trkpt lat="51.22436" lon="7.870168"><ele>223.4</ele><time>2020-08-16T17:12:43Z</time></trkpt>
<trkpt lat="51.224701" lon="7.870246"><ele>223.4</ele><time>2020-08-16T17:12:46Z</time></trkpt>
<trkpt lat="51.224929" lon="7.870256"><ele>223.4</ele><time>2020-08-16T17:12:49Z</time></trkpt>
<trkpt lat="51.225153" lon="7.870216"><ele>215.0</ele><time>2020-08-16T17:12:51Z</time></trkpt>
<trkpt lat="51.225884" lon="7.869932"><ele>220.0</ele><time>2020-08-16T17:12:59Z</time></trkpt>
<trkpt lat="51.22673" lon="7.869675"><ele>218.8</ele><time>2020-08-16T17:13:07Z</time></trkpt>
<trkpt lat="51.227199" lon="7.869686"><ele>218.8</ele><time>2020-08-16T17:13:12Z</time></trkpt>
<trkpt lat="51.227373" lon="7.869706"><ele>218.8</ele><time>2020-08-16T17:13:14Z</time></trkpt>
<trkpt lat="51.22789" lon="7.869939"><ele>213.0</ele><time>2020-08-16T17:13:20Z</time></trkpt>
<trkpt lat="51.228099" lon="7.870086"><ele>209.0</ele><time>2020-08-16T17:13:22Z</time></trkpt>
<trkpt lat="51.2283" lon="7.870273"><ele>209.0</ele><time>2020-08-16T17:13:24Z</time></trkpt>
<trkpt lat="51.22849" lon="7.870479"><ele>207.0</ele><time>2020-08-16T17:13:27Z</time></trkpt>
<trkpt lat="51.229333" lon="7.871493"><ele>206.4</ele><time>2020-08-16T17:13:37Z</time></trkpt>
<trkpt lat="51.230216" lon="7.8726"><ele>206.6</ele><time>2020-08-16T17:13:49Z</time></trkpt>
<trkpt lat="51.230427" lon="7.872839"><ele>206.6</ele><time>2020-08-16T17:13:52Z</time></trkpt>
<trkpt lat="51.230725" lon="7.873093"><ele>206.6</ele><time>2020-08-16T17:13:55Z</time></trkpt>
<trkpt lat="51.231007" lon="7.873254"><ele>208.0</ele><time>2020-08-16T17:13:58Z</time></trkpt>
<trkpt lat="51.231231" lon="7.873327"><ele>208.0</ele><time>2020-08-16T17:14:00Z</time></trkpt>
<trkpt lat="51.231479" lon="7.873359"><ele>207.4</ele><time>2020-08-16T17:14:03Z</time></trkpt>
<trkpt lat="51.23169" lon="7.873358"><ele>209.0</ele><time>2020-08-16T17:14:05Z</time></trkpt>
<trkpt lat="51.232088" lon="7.873247"><ele>210.0</ele><time>2020-08-16T17:14:09Z</time></trkpt>
<trkpt lat="51.232455" lon="7.873012"><ele>210.0</ele><time>2020-08-16T17:14:13Z</time></trkpt>
<trkpt lat="51.232846" lon="7.872571"><ele>212.8</ele><time>2020-08-16T17:14:18Z</time></trkpt>
<trkpt lat="51.233039" lon="7.87225"><ele>213.0</ele><time>2020-08-16T17:14:21Z</time></trkpt>
<trkpt lat="51.233199" lon="7.871924"><ele>213.0</ele><time>2020-08-16T17:14:24Z</time></trkpt>
<trkpt lat="51.233346" lon="7.871526"><ele>218.2</ele><time>2020-08-16T17:14:27Z</time></trkpt>
<trkpt lat="51.233419" lon="7.871285"><ele>218.2</ele><time>2020-08-16T17:14:28Z</time></trkpt>
<trkpt lat="51.233503" lon="7.870894"><ele>218.2</ele><time>2020-08-16T17:14:31Z</time></trkpt>
<trkpt lat="51.233536" lon="7.87067"><ele>218.2</ele><time>2020-08-16T17:14:32Z</time></trkpt>
<trkpt lat="51.233541" lon="7.870199"><ele>218.2</ele><time>2020-08-16T17:14:35Z</time></trkpt>
<trkpt lat="51.233489" lon="7.869945"><ele>217.2</ele><time>2020-08-16T17:14:37Z</time></trkpt>
<trkpt lat="51.233377" lon="7.869706"><ele>217.2</ele><time>2020-08-16T17:14:39Z</time></trkpt>
<trkpt lat="51.233295" lon="7.869608"><ele>211.6</ele><time>2020-08-16T17:14:41Z</time></trkpt>
<trkpt lat="51.233295" lon="7.869608"><ele>211.6</ele><time>2020-08-16T17:14:41Z</time></trkpt>
<trkpt lat="51.233199" lon="7.869512"><ele>211.6</ele><time>2020-08-16T17:14:43Z</time></trkpt>
<trkpt lat="51.232971" lon="7.870942"><ele>213.2</ele><time>2020-08-16T17:14:52Z</time></trkpt>
<trkpt lat="51.232748" lon="7.871789"><ele>213.0</ele><time>2020-08-16T17:14:58Z</time></trkpt>
<trkpt lat="51.232716" lon="7.87196"><ele>213.0</ele><time>2020-08-16T17:14:59Z</time></trkpt>
<trkpt lat="51.232713" lon="7.872073"><ele>213.0</ele><time>2020-08-16T17:14:59Z</time></trkpt>
<trkpt lat="51.232869" lon="7.874138"><ele>212.6</ele><time>2020-08-16T17:15:12Z</time></trkpt>
<trkpt lat="51.23296" lon="7.875075"><ele>211.8</ele><time>2020-08-16T17:15:18Z</time></trkpt>
<trkpt lat="51.233017" lon="7.875467"><ele>211.8</ele><time>2020-08-16T17:15:21Z</time></trkpt>
<trkpt lat="51.233105" lon="7.875834"><ele>210.2</ele><time>2020-08-16T17:15:23Z</time></trkpt>
<trkpt lat="51.233216" lon="7.876187"><ele>210.2</ele><time>2020-08-16T17:15:26Z</time></trkpt>
<trkpt lat="51.233346" lon="7.876492"><ele>223.2</ele><time>2020-08-16T17:15:28Z</time></trkpt>
<trkpt lat="51.233538" lon="7.87683"><ele>218.6</ele><time>2020-08-16T17:15:31Z</time></trkpt>
<trkpt lat="51.234158" lon="7.87763"><ele>213.8</ele><time>2020-08-16T17:15:39Z</time></trkpt>
<trkpt lat="51.234427" lon="7.878013"><ele>230.0</ele><time>2020-08-16T17:15:43Z</time></trkpt>
<trkpt lat="51.23523" lon="7.879018"><ele>233.0</ele><time>2020-08-16T17:15:53Z</time></trkpt>
<trkpt lat="51.235627" lon="7.879226"><ele>220.2</ele><time>2020-08-16T17:15:58Z</time></trkpt>
<trkpt lat="51.235811" lon="7.879293"><ele>220.2</ele><time>2020-08-16T17:15:59Z</time></trkpt>
<trkpt lat="51.236434" lon="7.879362"><ele>228.6</ele><time>2020-08-16T17:16:06Z</time></trkpt>
<trkpt lat="51.236536" lon="7.879435"><ele>228.6</ele><time>2020-08-16T17:16:07Z</time></trkpt>
<trkpt lat="51.236643" lon="7.879606"><ele>228.6</ele><time>2020-08-16T17:16:08Z</time></trkpt>
<trkpt lat="51.236692" lon="7.879768"><ele>230.4</ele><time>2020-08-16T17:16:09Z</time></trkpt>
<trkpt lat="51.236721" lon="7.879932"><ele>230.4</ele><time>2020-08-16T17:16:11Z</time></trkpt>
<trkpt lat="51.236766" lon="7.881115"><ele>221.2</ele><time>2020-08-16T17:16:18Z</time></trkpt>
<trkpt lat="51.23685" lon="7.88205"><ele>223.8</ele><time>2020-08-16T17:16:24Z</time></trkpt>
<trkpt lat="51.236931" lon="7.884017"><ele>225.2</ele><time>2020-08-16T17:16:36Z</time></trkpt>
<trkpt lat="51.236946" lon="7.884771"><ele>227.6</ele><time>2020-08-16T17:16:41Z</time></trkpt>
<trkpt lat="51.2369" lon="7.885087"><ele>231.4</ele><time>2020-08-16T17:16:43Z</time></trkpt>
<trkpt lat="51.236279" lon="7.887317"><ele>217.8</ele><time>2020-08-16T17:16:58Z</time></trkpt>
<trkpt lat="51.236004" lon="7.888138"><ele>218.0</ele><time>2020-08-16T17:17:04Z</time></trkpt>
<trkpt lat="51.235442" lon="7.889329"><ele>214.6</ele><time>2020-08-16T17:17:13Z</time></trkpt>
<trkpt lat="51.235241" lon="7.889665"><ele>214.6</ele><time>2020-08-16T17:17:16Z</time></trkpt>
<trkpt lat="51.234075" lon="7.890851"><ele>212.4</ele><time>2020-08-16T17:17:32Z</time></trkpt>
<trkpt lat="51.234085" lon="7.890915"><ele>212.4</ele><time>2020-08-16T17:17:32Z</time></trkpt>
<trkpt lat="51.234075" lon="7.891041"><ele>212.4</ele><time>2020-08-16T17:17:32Z</time></trkpt>
<trkpt lat="51.233659" lon="7.8915"><ele>212.4</ele><time>2020-08-16T17:17:36Z</time></trkpt>
<trkpt lat="51.233313" lon="7.891974"><ele>212.8</ele><time>2020-08-16T17:17:38Z</time></trkpt>
<trkpt lat="51.233223" lon="7.892163"><ele>212.8</ele><time>2020-08-16T17:17:39Z</time></trkpt>
<trkpt lat="51.233179" lon="7.892397"><ele>212.8</ele><time>2020-08-16T17:17:40Z</time></trkpt>
<trkpt lat="51.23321" lon="7.892942"><ele>218.6</ele><time>2020-08-16T17:17:42Z</time></trkpt>
<trkpt lat="51.233322" lon="7.893404"><ele>226.2</ele><time>2020-08-16T17:17:44Z</time></trkpt>
<trkpt lat="51.233433" lon="7.8937"><ele>228.4</ele><time>2020-08-16T17:17:46Z</time></trkpt>
<trkpt lat="51.233573" lon="7.893793"><ele>228.4</ele><time>2020-08-16T17:17:47Z</time></trkpt>
<trkpt lat="51.233671" lon="7.893709"><ele>228.4</ele><time>2020-08-16T17:17:47Z</time></trkpt>
<trkpt lat="51.233806" lon="7.893287"><ele>221.8</ele><time>2020-08-16T17:17:49Z</time></trkpt>
<trkpt lat="51.233942" lon="7.892967"><ele>221.8</ele><time>2020-08-16T17:17:51Z</time></trkpt>
<trkpt lat="51.233974" lon="7.892923"><ele>221.8</ele><time>2020-08-16T17:17:51Z</time></trkpt>
<trkpt lat="51.234077" lon="7.892852"><ele>221.8</ele><time>2020-08-16T17:17:52Z</time></trkpt>
<trkpt lat="51.234167" lon="7.892877"><ele>225.6</ele><time>2020-08-16T17:17:52Z</time></trkpt>
<trkpt lat="51.234271" lon="7.892976"><ele>225.6</ele><time>2020-08-16T17:17:53Z</time></trkpt>
<trkpt lat="51.234381" lon="7.893298"><ele>225.6</ele><time>2020-08-16T17:17:54Z</time></trkpt>
<trkpt lat="51.234456" lon="7.893594"><ele>228.6</ele><time>2020-08-16T17:17:56Z</time></trkpt>
<trkpt lat="51.234591" lon="7.893878"><ele>228.6</ele><time>2020-08-16T17:17:57Z</time></trkpt>
<trkpt lat="51.234991" lon="7.894542"><ele>232.0</ele><time>2020-08-16T17:18:01Z</time></trkpt>
<trkpt lat="51.23548" lon="7.895228"><ele>235.0</ele><time>2020-08-16T17:18:05Z</time></trkpt>
<trkpt lat="51.235695" lon="7.895466"><ele>235.0</ele><time>2020-08-16T17:18:06Z</time></trkpt>
<trkpt lat="51.236274" lon="7.895927"><ele>242.6</ele><time>2020-08-16T17:18:10Z</time></trkpt>
<trkpt lat="51.236478" lon="7.896194"><ele>242.6</ele><time>2020-08-16T17:18:12Z</time></trkpt>
<trkpt lat="51.236649" lon="7.896524"><ele>242.6</ele><time>2020-08-16T17:18:14Z</time></trkpt>
<trkpt lat="51.236846" lon="7.897081"><ele>249.0</ele><time>2020-08-16T17:18:16Z</time></trkpt>
<trkpt lat="51.236947" lon="7.897568"><ele>254.4</ele><time>2020-08-16T17:18:18Z</time></trkpt>
<trkpt lat="51.237035" lon="7.898119"><ele>254.4</ele><time>2020-08-16T17:18:20Z</time></trkpt>
<trkpt lat="51.23715" lon="7.898451"><ele>259.2</ele><time>2020-08-16T17:18:22Z</time></trkpt>
<trkpt lat="51.237649" lon="7.899571"><ele>259.8</ele><time>2020-08-16T17:18:27Z</time></trkpt>
<trkpt lat="51.237712" lon="7.89986"><ele>259.8</ele><time>2020-08-16T17:18:28Z</time></trkpt>
<trkpt lat="51.237729" lon="7.900152"><ele>264.0</ele><time>2020-08-16T17:18:29Z</time></trkpt>
<trkpt lat="51.237712" lon="7.900515"><ele>264.0</ele><time>2020-08-16T17:18:31Z</time></trkpt>
<trkpt lat="51.237671" lon="7.90093"><ele>269.4</ele><time>2020-08-16T17:18:32Z</time></trkpt>
<trkpt lat="51.237596" lon="7.901349"><ele>269.4</ele><time>2020-08-16T17:18:34Z</time></trkpt>
<trkpt lat="51.237525" lon="7.90151"><ele>269.4</ele><time>2020-08-16T17:18:35Z</time></trkpt>
<trkpt lat="51.237362" lon="7.901556"><ele>274.0</ele><time>2020-08-16T17:18:36Z</time></trkpt>
<trkpt lat="51.237247" lon="7.901439"><ele>274.0</ele><time>2020-08-16T17:18:37Z</time></trkpt>
<trkpt lat="51.237203" lon="7.901132"><ele>274.0</ele><time>2020-08-16T17:18:38Z</time></trkpt>
<trkpt lat="51.237126" lon="7.900143"><ele>268.0</ele><time>2020-08-16T17:18:42Z</time></trkpt>
<trkpt lat="51.237066" lon="7.899927"><ele>263.6</ele><time>2020-08-16T17:18:43Z</time></trkpt>
<trkpt lat="51.236919" lon="7.899771"><ele>263.6</ele><time>2020-08-16T17:18:44Z</time></trkpt>
<trkpt lat="51.236844" lon="7.899749"><ele>263.6</ele><time>2020-08-16T17:18:44Z</time></trkpt>
<trkpt lat="51.236732" lon="7.899824"><ele>263.6</ele><time>2020-08-16T17:18:45Z</time></trkpt>
<trkpt lat="51.236514" lon="7.900079"><ele>269.4</ele><time>2020-08-16T17:18:47Z</time></trkpt>
<trkpt lat="51.235864" lon="7.901042"><ele>278.4</ele><time>2020-08-16T17:18:52Z</time></trkpt>
<trkpt lat="51.235381" lon="7.901137"><ele>280.2</ele><time>2020-08-16T17:18:55Z</time></trkpt>
<trkpt lat="51.234654" lon="7.901219"><ele>282.4</ele><time>2020-08-16T17:19:00Z</time></trkpt>
<trkpt lat="51.234399" lon="7.901198"><ele>282.4</ele><time>2020-08-16T17:19:01Z</time></trkpt>
<trkpt lat="51.233369" lon="7.900975"><ele>289.2</ele><time>2020-08-16T17:19:08Z</time></trkpt>
<trkpt lat="51.232712" lon="7.900936"><ele>293.4</ele><time>2020-08-16T17:19:12Z</time></trkpt>
<trkpt lat="51.232317" lon="7.901041"><ele>281.0</ele><time>2020-08-16T17:19:14Z</time></trkpt>
<trkpt lat="51.232071" lon="7.901225"><ele>281.0</ele><time>2020-08-16T17:19:16Z</time></trkpt>
<trkpt lat="51.232065" lon="7.901546"><ele>281.0</ele><time>2020-08-16T17:19:17Z</time></trkpt>
<trkpt lat="51.232185" lon="7.901717"><ele>280.6</ele><time>2020-08-16T17:19:18Z</time></trkpt>
<trkpt lat="51.232626" lon="7.901693"><ele>298.2</ele><time>2020-08-16T17:19:21Z</time></trkpt>
<trkpt lat="51.232944" lon="7.901842"><ele>298.2</ele><time>2020-08-16T17:19:23Z</time></trkpt>
<trkpt lat="51.234039" lon="7.90309"><ele>305.0</ele><time>2020-08-16T17:19:32Z</time></trkpt>
<trkpt lat="51.235291" lon="7.904936"><ele>318.4</ele><time>2020-08-16T17:19:42Z</time></trkpt>
<trkpt lat="51.235769" lon="7.905687"><ele>327.0</ele><time>2020-08-16T17:19:46Z</time></trkpt>
<trkpt lat="51.236301" lon="7.906275"><ele>330.6</ele><time>2020-08-16T17:19:50Z</time></trkpt>
<trkpt lat="51.236473" lon="7.906568"><ele>330.6</ele><time>2020-08-16T17:19:52Z</time></trkpt>
<trkpt lat="51.236437" lon="7.906782"><ele>339.6</ele><time>2020-08-16T17:19:53Z</time></trkpt>
<trkpt lat="51.236216" lon="7.906824"><ele>339.6</ele><time>2020-08-16T17:19:54Z</time></trkpt>
<trkpt lat="51.235759" lon="7.906523"><ele>336.4</ele><time>2020-08-16T17:19:57Z</time></trkpt>
<trkpt lat="51.235195" lon="7.906223"><ele>336.4</ele><time>2020-08-16T17:20:01Z</time></trkpt>
<trkpt lat="51.234867" lon="7.905992"><ele>343.6</ele><time>2020-08-16T17:20:03Z</time></trkpt>
<trkpt lat="51.233532" lon="7.905673"><ele>339.0</ele><time>2020-08-16T17:20:12Z</time></trkpt>
<trkpt lat="51.233131" lon="7.905532"><ele>334.6</ele><time>2020-08-16T17:20:14Z</time></trkpt>
<trkpt lat="51.232871" lon="7.905329"><ele>334.6</ele><time>2020-08-16T17:20:16Z</time></trkpt>
<trkpt lat="51.232797" lon="7.90533"><ele>334.6</ele><time>2020-08-16T17:20:16Z</time></trkpt>
<trkpt lat="51.232756" lon="7.905444"><ele>334.6</ele><time>2020-08-16T17:20:17Z</time></trkpt>
<trkpt lat="51.232782" lon="7.905584"><ele>334.6</ele><time>2020-08-16T17:20:17Z</time></trkpt>
<trkpt lat="51.232813" lon="7.905642"><ele>334.6</ele><time>2020-08-16T17:20:18Z</time></trkpt>
<trkpt lat="51.232813" lon="7.905642"><ele>334.6</ele><time>2020-08-16T17:20:18Z</time></trkpt>
<trkpt lat="51.232839" lon="7.90569"><ele>334.6</ele><time>2020-08-16T17:20:18Z</time></trkpt>
<trkpt lat="51.232928" lon="7.905758"><ele>334.6</ele><time>2020-08-16T17:20:19Z</time></trkpt>
<trkpt lat="51.233226" lon="7.905918"><ele>345.4</ele><time>2020-08-16T17:20:20Z</time></trkpt>
<trkpt lat="51.233835" lon="7.906462"><ele>351.8</ele><time>2020-08-16T17:20:24Z</time></trkpt>
<trkpt lat="51.234285" lon="7.907081"><ele>356.8</ele><time>2020-08-16T17:20:27Z</time></trkpt>
<trkpt lat="51.234679" lon="7.907716"><ele>371.4</ele><time>2020-08-16T17:20:30Z</time></trkpt>
<trkpt lat="51.235161" lon="7.908433"><ele>374.8</ele><time>2020-08-16T17:20:33Z</time></trkpt>
<trkpt lat="51.235675" lon="7.908945"><ele>374.8</ele><time>2020-08-16T17:20:36Z</time></trkpt>
<trkpt lat="51.236207" lon="7.90916"><ele>364.0</ele><time>2020-08-16T17:20:39Z</time></trkpt>
<trkpt lat="51.237429" lon="7.909733"><ele>375.4</ele><time>2020-08-16T17:20:46Z</time></trkpt>
<trkpt lat="51.23801" lon="7.910147"><ele>386.4</ele><time>2020-08-16T17:20:49Z</time></trkpt>
<trkpt lat="51.238808" lon="7.911384"><ele>392.6</ele><time>2020-08-16T17:20:55Z</time></trkpt>
<trkpt lat="51.239071" lon="7.911724"><ele>413.8</ele><time>2020-08-16T17:20:57Z</time></trkpt>
<trkpt lat="51.239269" lon="7.911733"><ele>401.2</ele><time>2020-08-16T17:20:58Z</time></trkpt>
<trkpt lat="51.2394" lon="7.911507"><ele>380.4</ele><time>2020-08-16T17:20:59Z</time></trkpt>
<trkpt lat="51.239695" lon="7.911208"><ele>380.4</ele><time>2020-08-16T17:21:01Z</time></trkpt>
<trkpt lat="51.240115" lon="7.911055"><ele>380.6</ele><time>2020-08-16T17:21:03Z</time></trkpt>
<trkpt lat="51.240689" lon="7.911149"><ele>380.6</ele><time>2020-08-16T17:21:06Z</time></trkpt>
<trkpt lat="51.24121" lon="7.911526"><ele>383.6</ele><time>2020-08-16T17:21:09Z</time></trkpt>
<trkpt lat="51.241365" lon="7.911719"><ele>404.6</ele><time>2020-08-16T17:21:10Z</time></trkpt>
<trkpt lat="51.241559" lon="7.912068"><ele>404.6</ele><time>2020-08-16T17:21:12Z</time></trkpt>
<trkpt lat="51.242081" lon="7.913331"><ele>413.4</ele><time>2020-08-16T17:21:17Z</time></trkpt>
<trkpt lat="51.242138" lon="7.913604"><ele>429.4</ele><time>2020-08-16T17:21:18Z</time></trkpt>
<trkpt lat="51.242256" lon="7.914859"><ele>444.8</ele><time>2020-08-16T17:21:22Z</time></trkpt>
<trkpt lat="51.242322" lon="7.915118"><ele>459.6</ele><time>2020-08-16T17:21:23Z</time></trkpt>
<trkpt lat="51.242443" lon="7.915458"><ele>459.6</ele><time>2020-08-16T17:21:24Z</time></trkpt>
<trkpt lat="51.242601" lon="7.915802"><ele>428.8</ele><time>2020-08-16T17:21:26Z</time></trkpt>
<trkpt lat="51.242731" lon="7.916017"><ele>446.6</ele><time>2020-08-16T17:21:28Z</time></trkpt>
<trkpt lat="51.242871" lon="7.916105"><ele>446.6</ele><time>2020-08-16T17:21:28Z</time></trkpt>
<trkpt lat="51.242957" lon="7.916115"><ele>446.6</ele><time>2020-08-16T17:21:29Z</time></trkpt>
<trkpt lat="51.243087" lon="7.916074"><ele>446.6</ele><time>2020-08-16T17:21:30Z</time></trkpt>
<trkpt lat="51.243297" lon="7.915868"><ele>446.6</ele><time>2020-08-16T17:21:31Z</time></trkpt>
<trkpt lat="51.244218" lon="7.914406"><ele>421.6</ele><time>2020-08-16T17:21:38Z</time></trkpt>
<trkpt lat="51.244496" lon="7.914096"><ele>402.4</ele><time>2020-08-16T17:21:39Z</time></trkpt>
<trkpt lat="51.244736" lon="7.913939"><ele>402.4</ele><time>2020-08-16T17:21:41Z</time></trkpt>
<trkpt lat="51.244916" lon="7.913931"><ele>402.4</ele><time>2020-08-16T17:21:42Z</time></trkpt>
<trkpt lat="51.24508" lon="7.913984"><ele>414.0</ele><time>2020-08-16T17:21:43Z</time></trkpt>
<trkpt lat="51.245248" lon="7.914127"><ele>414.0</ele><time>2020-08-16T17:21:44Z</time></trkpt>
<trkpt lat="51.245403" lon="7.914342"><ele>434.8</ele><time>2020-08-16T17:21:45Z</time></trkpt>
<trkpt lat="51.245828" lon="7.915128"><ele>454.8</ele><time>2020-08-16T17:21:49Z</time></trkpt>
<trkpt lat="51.246253" lon="7.915727"><ele>446.8</ele><time>2020-08-16T17:21:52Z</time></trkpt>
<trkpt lat="51.246746" lon="7.916132"><ele>454.8</ele><time>2020-08-16T17:21:54Z</time></trkpt>
<trkpt lat="51.246874" lon="7.916152"><ele>454.8</ele><time>2020-08-16T17:21:55Z</time></trkpt>
<trkpt lat="51.246958" lon="7.916134"><ele>454.8</ele><time>2020-08-16T17:21:55Z</time></trkpt>
<trkpt lat="51.247039" lon="7.915992"><ele>454.8</ele><time>2020-08-16T17:21:56Z</time></trkpt>
<trkpt lat="51.247531" lon="7.914275"><ele>442.8</ele><time>2020-08-16T17:22:02Z</time></trkpt>
<trkpt lat="51.247633" lon="7.914"><ele>432.8</ele><time>2020-08-16T17:22:03Z</time></trkpt>
<trkpt lat="51.247743" lon="7.913813"><ele>432.8</ele><time>2020-08-16T17:22:04Z</time></trkpt>
<trkpt lat="51.247963" lon="7.913619"><ele>432.8</ele><time>2020-08-16T17:22:05Z</time></trkpt>
<trkpt lat="51.24821" lon="7.913528"><ele>432.8</ele><time>2020-08-16T17:22:07Z</time></trkpt>
<trkpt lat="51.248346" lon="7.9136"><ele>439.8</ele><time>2020-08-16T17:22:07Z</time></trkpt>
<trkpt lat="51.24846" lon="7.9137"><ele>439.8</ele><time>2020-08-16T17:22:08Z</time></trkpt>
<trkpt lat="51.248565" lon="7.91404"><ele>439.8</ele><time>2020-08-16T17:22:09Z</time></trkpt>
<trkpt lat="51.248955" lon="7.915973"><ele>471.8</ele><time>2020-08-16T17:22:16Z</time></trkpt>
<trkpt lat="51.249195" lon="7.917006"><ele>474.8</ele><time>2020-08-16T17:22:20Z</time></trkpt>
<trkpt lat="51.249323" lon="7.917443"><ele>474.8</ele><time>2020-08-16T17:22:21Z</time></trkpt>
<trkpt lat="51.249497" lon="7.91785"><ele>481.2</ele><time>2020-08-16T17:22:23Z</time></trkpt>
<trkpt lat="51.249737" lon="7.918232"><ele>481.2</ele><time>2020-08-16T17:22:24Z</time></trkpt>
<trkpt lat="51.250752" lon="7.919413"><ele>479.2</ele><time>2020-08-16T17:22:31Z</time></trkpt>
<trkpt lat="51.25094" lon="7.91973"><ele>475.2</ele><time>2020-08-16T17:22:32Z</time></trkpt>
<trkpt lat="51.251072" lon="7.920024"><ele>472.8</ele><time>2020-08-16T17:22:33Z</time></trkpt>
<trkpt lat="51.251211" lon="7.920483"><ele>472.8</ele><time>2020-08-16T17:22:35Z</time></trkpt>
<trkpt lat="51.251308" lon="7.921044"><ele>468.6</ele><time>2020-08-16T17:22:37Z</time></trkpt>
<trkpt lat="51.251407" lon="7.921995"><ele>464.0</ele><time>2020-08-16T17:22:40Z</time></trkpt>
<trkpt lat="51.251467" lon="7.922343"><ele>464.0</ele><time>2020-08-16T17:22:41Z</time></trkpt>
<trkpt lat="51.251594" lon="7.922674"><ele>459.6</ele><time>2020-08-16T17:22:42Z</time></trkpt>
<trkpt lat="51.251761" lon="7.922955"><ele>455.6</ele><time>2020-08-16T17:22:44Z</time></trkpt>
<trkpt lat="51.251875" lon="7.923081"><ele>455.6</ele><time>2020-08-16T17:22:44Z</time></trkpt>
<trkpt lat="51.252095" lon="7.923276"><ele>455.6</ele><time>2020-08-16T17:22:46Z</time></trkpt>
<trkpt lat="51.252296" lon="7.92338"><ele>451.4</ele><time>2020-08-16T17:22:47Z</time></trkpt>
<trkpt lat="51.252468" lon="7.923417"><ele>451.4</ele><time>2020-08-16T17:22:48Z</time></trkpt>
<trkpt lat="51.252595" lon="7.923418"><ele>450.6</ele><time>2020-08-16T17:22:48Z</time></trkpt>
<trkpt lat="51.252892" lon="7.923317"><ele>454.0</ele><time>2020-08-16T17:22:50Z</time></trkpt>
<trkpt lat="51.253" lon="7.923257"><ele>454.0</ele><time>2020-08-16T17:22:50Z</time></trkpt>
<trkpt lat="51.253167" lon="7.923118"><ele>454.0</ele><time>2020-08-16T17:22:51Z</time></trkpt>
<trkpt lat="51.253287" lon="7.922956"><ele>454.0</ele><time>2020-08-16T17:22:52Z</time></trkpt>
<trkpt lat="51.253393" lon="7.922702"><ele>450.8</ele><time>2020-08-16T17:22:53Z</time></trkpt>
<trkpt lat="51.253489" lon="7.922306"><ele>454.0</ele><time>2020-08-16T17:22:55Z</time></trkpt>
<trkpt lat="51.253676" lon="7.921389"><ele>458.8</ele><time>2020-08-16T17:22:58Z</time></trkpt>
<trkpt lat="51.25372" lon="7.92124"><ele>458.8</ele><time>2020-08-16T17:22:58Z</time></trkpt>
<trkpt lat="51.253823" lon="7.921033"><ele>458.8</ele><time>2020-08-16T17:22:59Z</time></trkpt>
<trkpt lat="51.253903" lon="7.920944"><ele>458.8</ele><time>2020-08-16T17:23:00Z</time></trkpt>
<trkpt lat="51.25396" lon="7.920892"><ele>458.8</ele><time>2020-08-16T17:23:00Z</time></trkpt>
<trkpt lat="51.254395" lon="7.920662"><ele>464.8</ele><time>2020-08-16T17:23:02Z</time></trkpt>
<trkpt lat="51.254571" lon="7.920621"><ele>464.8</ele><time>2020-08-16T17:23:03Z</time></trkpt>
<trkpt lat="51.254709" lon="7.920624"><ele>464.8</ele><time>2020-08-16T17:23:04Z</time></trkpt>
<trkpt lat="51.255038" lon="7.92069"><ele>462.4</ele><time>2020-08-16T17:23:06Z</time></trkpt>
<trkpt lat="51.255238" lon="7.920777"><ele>462.4</ele><time>2020-08-16T17:23:07Z</time></trkpt>
<trkpt lat="51.255331" lon="7.92087"><ele>455.6</ele><time>2020-08-16T17:23:07Z</time></trkpt>
<trkpt lat="51.255405" lon="7.921019"><ele>455.6</ele><time>2020-08-16T17:23:08Z</time></trkpt>
<trkpt lat="51.255433" lon="7.921197"><ele>455.6</ele><time>2020-08-16T17:23:08Z</time></trkpt>
<trkpt lat="51.255399" lon="7.922125"><ele>449.0</ele><time>2020-08-16T17:23:11Z</time></trkpt>
<trkpt lat="51.255414" lon="7.922395"><ele>449.0</ele><time>2020-08-16T17:23:12Z</time></trkpt>
<trkpt lat="51.255509" lon="7.922717"><ele>446.0</ele><time>2020-08-16T17:23:13Z</time></trkpt>
<trkpt lat="51.256214" lon="7.924616"><ele>439.6</ele><time>2020-08-16T17:23:21Z</time></trkpt>
<trkpt lat="51.256308" lon="7.925056"><ele>436.4</ele><time>2020-08-16T17:23:22Z</time></trkpt>
<trkpt lat="51.256331" lon="7.925624"><ele>436.4</ele><time>2020-08-16T17:23:24Z</time></trkpt>
<trkpt lat="51.256341" lon="7.927892"><ele>427.4</ele><time>2020-08-16T17:23:31Z</time></trkpt>
<trkpt lat="51.256359" lon="7.928117"><ele>427.4</ele><time>2020-08-16T17:23:32Z</time></trkpt>
<trkpt lat="51.256434" lon="7.928435"><ele>425.4</ele><time>2020-08-16T17:23:33Z</time></trkpt>
<trkpt lat="51.256478" lon="7.928559"><ele>425.4</ele><time>2020-08-16T17:23:33Z</time></trkpt>
<trkpt lat="51.256639" lon="7.928829"><ele>425.4</ele><time>2020-08-16T17:23:35Z</time></trkpt>
<trkpt lat="51.256803" lon="7.928983"><ele>428.6</ele><time>2020-08-16T17:23:36Z</time></trkpt>
<trkpt lat="51.257022" lon="7.929085"><ele>428.6</ele><time>2020-08-16T17:23:37Z</time></trkpt>
<trkpt lat="51.257407" lon="7.929165"><ele>428.6</ele><time>2020-08-16T17:23:39Z</time></trkpt>
<trkpt lat="51.25762" lon="7.929128"><ele>426.8</ele><time>2020-08-16T17:23:40Z</time></trkpt>
<trkpt lat="51.257804" lon="7.929019"><ele>426.8</ele><time>2020-08-16T17:23:41Z</time></trkpt>
<trkpt lat="51.258253" lon="7.928547"><ele>426.8</ele><time>2020-08-16T17:23:44Z</time></trkpt>
<trkpt lat="51.258417" lon="7.928411"><ele>425.4</ele><time>2020-08-16T17:23:45Z</time></trkpt>
<trkpt lat="51.258653" lon="7.928316"><ele>431.8</ele><time>2020-08-16T17:23:46Z</time></trkpt>
<trkpt lat="51.258916" lon="7.928249"><ele>431.8</ele><time>2020-08-16T17:23:47Z</time></trkpt>
<trkpt lat="51.259205" lon="7.928123"><ele>430.0</ele><time>2020-08-16T17:23:49Z</time></trkpt>
<trkpt lat="51.259301" lon="7.928042"><ele>430.0</ele><time>2020-08-16T17:23:49Z</time></trkpt>
<trkpt lat="51.259459" lon="7.927835"><ele>430.0</ele><time>2020-08-16T17:23:50Z</time></trkpt>
<trkpt lat="51.259609" lon="7.927495"><ele>434.8</ele><time>2020-08-16T17:23:52Z</time></trkpt>
<trkpt lat="51.259853" lon="7.926831"><ele>434.8</ele><time>2020-08-16T17:23:54Z</time></trkpt>
<trkpt lat="51.259959" lon="7.926637"><ele>437.8</ele><time>2020-08-16T17:23:55Z</time></trkpt>
<trkpt lat="51.260106" lon="7.926565"><ele>431.2</ele><time>2020-08-16T17:23:56Z</time></trkpt>
<trkpt lat="51.260242" lon="7.926618"><ele>431.2</ele><time>2020-08-16T17:23:57Z</time></trkpt>
<trkpt lat="51.260291" lon="7.926678"><ele>429.6</ele><time>2020-08-16T17:23:57Z</time></trkpt>
<trkpt lat="51.260325" lon="7.926759"><ele>429.6</ele><time>2020-08-16T17:23:57Z</time></trkpt>
<trkpt lat="51.260388" lon="7.927337"><ele>429.6</ele><time>2020-08-16T17:23:59Z</time></trkpt>
<trkpt lat="51.260504" lon="7.927982"><ele>425.6</ele><time>2020-08-16T17:24:01Z</time></trkpt>
<trkpt lat="51.260592" lon="7.928296"><ele>425.6</ele><time>2020-08-16T17:24:02Z</time></trkpt>
<trkpt lat="51.260756" lon="7.928732"><ele>420.8</ele><time>2020-08-16T17:24:04Z</time></trkpt>
<trkpt lat="51.260957" lon="7.929115"><ele>422.2</ele><time>2020-08-16T17:24:06Z</time></trkpt>
<trkpt lat="51.261062" lon="7.929265"><ele>415.8</ele><time>2020-08-16T17:24:06Z</time></trkpt>
<trkpt lat="51.2614" lon="7.929625"><ele>415.8</ele><time>2020-08-16T17:24:08Z</time></trkpt>
<trkpt lat="51.262355" lon="7.930524"><ele>411.0</ele><time>2020-08-16T17:24:14Z</time></trkpt>
<trkpt lat="51.262633" lon="7.930843"><ele>409.0</ele><time>2020-08-16T17:24:16Z</time></trkpt>
<trkpt lat="51.26358" lon="7.932325"><ele>406.2</ele><time>2020-08-16T17:24:23Z</time></trkpt>
<trkpt lat="51.263685" lon="7.932448"><ele>406.2</ele><time>2020-08-16T17:24:23Z</time></trkpt>
<trkpt lat="51.263911" lon="7.932652"><ele>408.4</ele><time>2020-08-16T17:24:25Z</time></trkpt>
<trkpt lat="51.26423" lon="7.932822"><ele>403.2</ele><time>2020-08-16T17:24:26Z</time></trkpt>
<trkpt lat="51.264436" lon="7.93289"><ele>403.2</ele><time>2020-08-16T17:24:27Z</time></trkpt>
<trkpt lat="51.26466" lon="7.932901"><ele>403.2</ele><time>2020-08-16T17:24:29Z</time></trkpt>
<trkpt lat="51.264818" lon="7.932865"><ele>403.2</ele><time>2020-08-16T17:24:29Z</time></trkpt>
<trkpt lat="51.265659" lon="7.932585"><ele>393.6</ele><time>2020-08-16T17:24:34Z</time></trkpt>
<trkpt lat="51.266084" lon="7.932405"><ele>380.4</ele><time>2020-08-16T17:24:36Z</time></trkpt>
<trkpt lat="51.266198" lon="7.932337"><ele>380.4</ele><time>2020-08-16T17:24:37Z</time></trkpt>
<trkpt lat="51.26632" lon="7.932229"><ele>380.4</ele><time>2020-08-16T17:24:37Z</time></trkpt>
<trkpt lat="51.266692" lon="7.93178"><ele>372.2</ele><time>2020-08-16T17:24:40Z</time></trkpt>
<trkpt lat="51.26686" lon="7.931669"><ele>372.2</ele><time>2020-08-16T17:24:41Z</time></trkpt>
<trkpt lat="51.267042" lon="7.931642"><ele>372.4</ele><time>2020-08-16T17:24:42Z</time></trkpt>
<trkpt lat="51.26744" lon="7.931751"><ele>372.2</ele><time>2020-08-16T17:24:44Z</time></trkpt>
<trkpt lat="51.268379" lon="7.932147"><ele>368.8</ele><time>2020-08-16T17:24:49Z</time></trkpt>
<trkpt lat="51.268529" lon="7.932229"><ele>368.8</ele><time>2020-08-16T17:24:50Z</time></trkpt>
<trkpt lat="51.268794" lon="7.932458"><ele>368.8</ele><time>2020-08-16T17:24:51Z</time></trkpt>
<trkpt lat="51.26904" lon="7.932777"><ele>370.4</ele><time>2020-08-16T17:24:53Z</time></trkpt>
<trkpt lat="51.269227" lon="7.933084"><ele>364.0</ele><time>2020-08-16T17:24:54Z</time></trkpt>
<trkpt lat="51.269587" lon="7.934097"><ele>365.0</ele><time>2020-08-16T17:24:58Z</time></trkpt>
<trkpt lat="51.269767" lon="7.934474"><ele>365.8</ele><time>2020-08-16T17:24:59Z</time></trkpt>
<trkpt lat="51.269885" lon="7.934675"><ele>365.8</ele><time>2020-08-16T17:25:00Z</time></trkpt>
<trkpt lat="51.270271" lon="7.935103"><ele>357.4</ele><time>2020-08-16T17:25:03Z</time></trkpt>
<trkpt lat="51.270888" lon="7.935606"><ele>353.4</ele><time>2020-08-16T17:25:06Z</time></trkpt>
<trkpt lat="51.271126" lon="7.935936"><ele>355.0</ele><time>2020-08-16T17:25:09Z</time></trkpt>
<trkpt lat="51.271181" lon="7.935804"><ele>353.4</ele><time>2020-08-16T17:25:09Z</time></trkpt>
<trkpt lat="51.271181" lon="7.935804"><ele>353.4</ele><time>2020-08-16T17:25:09Z</time></trkpt>
<trkpt lat="51.271208" lon="7.935711"><ele>353.4</ele><time>2020-08-16T17:25:10Z</time></trkpt>
<trkpt lat="51.271257" lon="7.935372"><ele>353.4</ele><time>2020-08-16T17:25:11Z</time></trkpt>
<trkpt lat="51.2713" lon="7.934828"><ele>354.4</ele><time>2020-08-16T17:25:13Z</time></trkpt>
<trkpt lat="51.271311" lon="7.934618"><ele>354.4</ele><time>2020-08-16T17:25:14Z</time></trkpt>
<trkpt lat="51.271273" lon="7.934389"><ele>354.4</ele><time>2020-08-16T17:25:14Z</time></trkpt>
<trkpt lat="51.270633" lon="7.932853"><ele>357.2</ele><time>2020-08-16T17:25:21Z</time></trkpt>
<trkpt lat="51.270343" lon="7.932382"><ele>358.8</ele><time>2020-08-16T17:25:23Z</time></trkpt>
<trkpt lat="51.270224" lon="7.932246"><ele>358.8</ele><time>2020-08-16T17:25:24Z</time></trkpt>
<trkpt lat="51.269957" lon="7.931997"><ele>363.8</ele><time>2020-08-16T17:25:26Z</time></trkpt>
<trkpt lat="51.269845" lon="7.93184"><ele>363.8</ele><time>2020-08-16T17:25:27Z</time></trkpt>
<trkpt lat="51.269657" lon="7.931378"><ele>366.8</ele><time>2020-08-16T17:25:29Z</time></trkpt>
<trkpt lat="51.269556" lon="7.931069"><ele>366.8</ele><time>2020-08-16T17:25:30Z</time></trkpt>
<trkpt lat="51.26938" lon="7.930372"><ele>369.4</ele><time>2020-08-16T17:25:33Z</time></trkpt>
<trkpt lat="51.269185" lon="7.929444"><ele>371.0</ele><time>2020-08-16T17:25:36Z</time></trkpt>
<trkpt lat="51.26912" lon="7.929211"><ele>375.2</ele><time>2020-08-16T17:25:37Z</time></trkpt>
<trkpt lat="51.268872" lon="7.928588"><ele>377.2</ele><time>2020-08-16T17:25:40Z</time></trkpt>
<trkpt lat="51.267766" lon="7.926981"><ele>385.8</ele><time>2020-08-16T17:25:48Z</time></trkpt>
<trkpt lat="51.267649" lon="7.926785"><ele>385.8</ele><time>2020-08-16T17:25:49Z</time></trkpt>
<trkpt lat="51.267467" lon="7.926411"><ele>389.2</ele><time>2020-08-16T17:25:51Z</time></trkpt>
<trkpt lat="51.267088" lon="7.925347"><ele>395.6</ele><time>2020-08-16T17:25:55Z</time></trkpt>
<trkpt lat="51.26685" lon="7.924606"><ele>403.0</ele><time>2020-08-16T17:25:58Z</time></trkpt>
<trkpt lat="51.266711" lon="7.924087"><ele>411.6</ele><time>2020-08-16T17:26:00Z</time></trkpt>
<trkpt lat="51.266647" lon="7.923786"><ele>415.2</ele><time>2020-08-16T17:26:01Z</time></trkpt>
<trkpt lat="51.266583" lon="7.923309"><ele>425.8</ele><time>2020-08-16T17:26:03Z</time></trkpt>
<trkpt lat="51.266543" lon="7.922774"><ele>425.8</ele><time>2020-08-16T17:26:05Z</time></trkpt>
<trkpt lat="51.266235" lon="7.918137"><ele>446.8</ele><time>2020-08-16T17:26:21Z</time></trkpt>
<trkpt lat="51.266227" lon="7.917611"><ele>446.8</ele><time>2020-08-16T17:26:23Z</time></trkpt>
<trkpt lat="51.266242" lon="7.917472"><ele>442.6</ele><time>2020-08-16T17:26:24Z</time></trkpt>
<trkpt lat="51.266417" lon="7.916606"><ele>439.4</ele><time>2020-08-16T17:26:27Z</time></trkpt>
<trkpt lat="51.266505" lon="7.916302"><ele>439.4</ele><time>2020-08-16T17:26:28Z</time></trkpt>
<trkpt lat="51.266598" lon="7.916144"><ele>439.4</ele><time>2020-08-16T17:26:29Z</time></trkpt>
<trkpt lat="51.267322" lon="7.915172"><ele>426.0</ele><time>2020-08-16T17:26:34Z</time></trkpt>
<trkpt lat="51.267399" lon="7.91499"><ele>421.6</ele><time>2020-08-16T17:26:35Z</time></trkpt>
<trkpt lat="51.267397" lon="7.914757"><ele>421.6</ele><time>2020-08-16T17:26:36Z</time></trkpt>
<trkpt lat="51.267347" lon="7.914565"><ele>421.6</ele><time>2020-08-16T17:26:37Z</time></trkpt>
<trkpt lat="51.266916" lon="7.913567"><ele>417.4</ele><time>2020-08-16T17:26:41Z</time></trkpt>
<trkpt lat="51.266855" lon="7.913348"><ele>417.4</ele><time>2020-08-16T17:26:42Z</time></trkpt>
<trkpt lat="51.266702" lon="7.912595"><ele>412.8</ele><time>2020-08-16T17:26:45Z</time></trkpt>
<trkpt lat="51.266387" lon="7.911677"><ele>425.4</ele><time>2020-08-16T17:26:48Z</time></trkpt>
<trkpt lat="51.265817" lon="7.910337"><ele>437.6</ele><time>2020-08-16T17:26:54Z</time></trkpt>
<trkpt lat="51.264936" lon="7.908398"><ele>437.4</ele><time>2020-08-16T17:27:03Z</time></trkpt>
<trkpt lat="51.264508" lon="7.9074"><ele>419.0</ele><time>2020-08-16T17:27:07Z</time></trkpt>
<trkpt lat="51.264411" lon="7.907047"><ele>419.0</ele><time>2020-08-16T17:27:08Z</time></trkpt>
<trkpt lat="51.264249" lon="7.906001"><ele>418.2</ele><time>2020-08-16T17:27:12Z</time></trkpt>
<trkpt lat="51.264228" lon="7.905663"><ele>420.6</ele><time>2020-08-16T17:27:13Z</time></trkpt>
<trkpt lat="51.264257" lon="7.905401"><ele>420.6</ele><time>2020-08-16T17:27:14Z</time></trkpt>
<trkpt lat="51.264318" lon="7.905148"><ele>420.6</ele><time>2020-08-16T17:27:15Z</time></trkpt>
<trkpt lat="51.264842" lon="7.903541"><ele>428.0</ele><time>2020-08-16T17:27:22Z</time></trkpt>
<trkpt lat="51.264944" lon="7.903357"><ele>428.0</ele><time>2020-08-16T17:27:22Z</time></trkpt>
<trkpt lat="51.265152" lon="7.903138"><ele>426.0</ele><time>2020-08-16T17:27:24Z</time></trkpt>
<trkpt lat="51.265216" lon="7.903046"><ele>426.0</ele><time>2020-08-16T17:27:24Z</time></trkpt>
<trkpt lat="51.265285" lon="7.902876"><ele>426.0</ele><time>2020-08-16T17:27:25Z</time></trkpt>
<trkpt lat="51.265332" lon="7.902637"><ele>426.0</ele><time>2020-08-16T17:27:26Z</time></trkpt>
<trkpt lat="51.265338" lon="7.902491"><ele>430.4</ele><time>2020-08-16T17:27:27Z</time></trkpt>
<trkpt lat="51.265292" lon="7.902193"><ele>430.4</ele><time>2020-08-16T17:27:28Z</time></trkpt>
<trkpt lat="51.264984" lon="7.901203"><ele>439.2</ele><time>2020-08-16T17:27:32Z</time></trkpt>
<trkpt lat="51.264514" lon="7.899994"><ele>444.8</ele><time>2020-08-16T17:27:37Z</time></trkpt>
<trkpt lat="51.264391" lon="7.899532"><ele>444.8</ele><time>2020-08-16T17:27:38Z</time></trkpt>
<trkpt lat="51.26434" lon="7.89915"><ele>445.4</ele><time>2020-08-16T17:27:40Z</time></trkpt>
<trkpt lat="51.264183" lon="7.896798"><ele>441.0</ele><time>2020-08-16T17:27:48Z</time></trkpt>
<trkpt lat="51.264183" lon="7.896432"><ele>436.2</ele><time>2020-08-16T17:27:49Z</time></trkpt>
<trkpt lat="51.264216" lon="7.895951"><ele>434.0</ele><time>2020-08-16T17:27:52Z</time></trkpt>
<trkpt lat="51.264216" lon="7.895951"><ele>434.0</ele><time>2020-08-16T17:27:52Z</time></trkpt>
<trkpt lat="51.264228" lon="7.895816"><ele>431.8</ele><time>2020-08-16T17:27:53Z</time></trkpt>
<trkpt lat="51.264284" lon="7.895536"><ele>431.8</ele><time>2020-08-16T17:27:54Z</time></trkpt>
<trkpt lat="51.264404" lon="7.895144"><ele>431.8</ele><time>2020-08-16T17:27:57Z</time></trkpt>
<trkpt lat="51.264481" lon="7.894915"><ele>429.4</ele><time>2020-08-16T17:27:58Z</time></trkpt>
<trkpt lat="51.264841" lon="7.894107"><ele>430.6</ele><time>2020-08-16T17:28:03Z</time></trkpt>
<trkpt lat="51.265019" lon="7.893476"><ele>436.4</ele><time>2020-08-16T17:28:06Z</time></trkpt>
<trkpt lat="51.265088" lon="7.893102"><ele>437.4</ele><time>2020-08-16T17:28:08Z</time></trkpt>
<trkpt lat="51.265164" lon="7.892501"><ele>437.4</ele><time>2020-08-16T17:28:11Z</time></trkpt>
<trkpt lat="51.265231" lon="7.891648"><ele>441.2</ele><time>2020-08-16T17:28:16Z</time></trkpt>
<trkpt lat="51.265305" lon="7.891205"><ele>441.2</ele><time>2020-08-16T17:28:18Z</time></trkpt>
<trkpt lat="51.265347" lon="7.891034"><ele>441.2</ele><time>2020-08-16T17:28:19Z</time></trkpt>
<trkpt lat="51.26547" lon="7.890677"><ele>442.2</ele><time>2020-08-16T17:28:21Z</time></trkpt>
<trkpt lat="51.265622" lon="7.890331"><ele>442.2</ele><time>2020-08-16T17:28:23Z</time></trkpt>
<trkpt lat="51.266065" lon="7.889389"><ele>423.4</ele><time>2020-08-16T17:28:29Z</time></trkpt>
<trkpt lat="51.266282" lon="7.888971"><ele>420.4</ele><time>2020-08-16T17:28:32Z</time></trkpt>
<trkpt lat="51.266373" lon="7.888729"><ele>420.4</ele><time>2020-08-16T17:28:33Z</time></trkpt>
<trkpt lat="51.26651" lon="7.88829"><ele>413.8</ele><time>2020-08-16T17:28:36Z</time></trkpt>
<trkpt lat="51.266636" lon="7.887695"><ele>413.8</ele><time>2020-08-16T17:28:39Z</time></trkpt>
<trkpt lat="51.266656" lon="7.887454"><ele>408.6</ele><time>2020-08-16T17:28:40Z</time></trkpt>
<trkpt lat="51.266638" lon="7.887099"><ele>408.6</ele><time>2020-08-16T17:28:42Z</time></trkpt>
<trkpt lat="51.266644" lon="7.88687"><ele>408.6</ele><time>2020-08-16T17:28:43Z</time></trkpt>
<trkpt lat="51.266694" lon="7.886632"><ele>404.0</ele><time>2020-08-16T17:28:45Z</time></trkpt>
<trkpt lat="51.267262" lon="7.885348"><ele>407.2</ele><time>2020-08-16T17:28:52Z</time></trkpt>
<trkpt lat="51.267478" lon="7.884886"><ele>418.8</ele><time>2020-08-16T17:28:55Z</time></trkpt>
<trkpt lat="51.267684" lon="7.884496"><ele>405.8</ele><time>2020-08-16T17:28:58Z</time></trkpt>
<trkpt lat="51.268715" lon="7.883117"><ele>397.6</ele><time>2020-08-16T17:29:09Z</time></trkpt>
<trkpt lat="51.26918" lon="7.882641"><ele>385.0</ele><time>2020-08-16T17:29:14Z</time></trkpt>
<trkpt lat="51.269291" lon="7.882459"><ele>387.0</ele><time>2020-08-16T17:29:15Z</time></trkpt>
<trkpt lat="51.269431" lon="7.882078"><ele>387.0</ele><time>2020-08-16T17:29:17Z</time></trkpt>
<trkpt lat="51.269493" lon="7.881959"><ele>387.0</ele><time>2020-08-16T17:29:18Z</time></trkpt>
<trkpt lat="51.269658" lon="7.881728"><ele>387.0</ele><time>2020-08-16T17:29:20Z</time></trkpt>
<trkpt lat="51.269842" lon="7.881555"><ele>389.0</ele><time>2020-08-16T17:29:21Z</time></trkpt>
<trkpt lat="51.270117" lon="7.881373"><ele>381.0</ele><time>2020-08-16T17:29:24Z</time></trkpt>
<trkpt lat="51.270253" lon="7.881254"><ele>381.0</ele><time>2020-08-16T17:29:25Z</time></trkpt>
<trkpt lat="51.270407" lon="7.881088"><ele>381.0</ele><time>2020-08-16T17:29:26Z</time></trkpt>
<trkpt lat="51.270627" lon="7.880797"><ele>382.6</ele><time>2020-08-16T17:29:29Z</time></trkpt>
<trkpt lat="51.270705" lon="7.88065"><ele>382.6</ele><time>2020-08-16T17:29:30Z</time></trkpt>
<trkpt lat="51.270999" lon="7.879775"><ele>373.6</ele><time>2020-08-16T17:29:35Z</time></trkpt>
<trkpt lat="51.271155" lon="7.879206"><ele>373.6</ele><time>2020-08-16T17:29:38Z</time></trkpt>
<trkpt lat="51.27119" lon="7.878904"><ele>373.0</ele><time>2020-08-16T17:29:39Z</time></trkpt>
<trkpt lat="51.271179" lon="7.878503"><ele>373.0</ele><time>2020-08-16T17:29:41Z</time></trkpt>
<trkpt lat="51.271192" lon="7.878303"><ele>372.6</ele><time>2020-08-16T17:29:42Z</time></trkpt>
<trkpt lat="51.271259" lon="7.877891"><ele>372.6</ele><time>2020-08-16T17:29:45Z</time></trkpt>
<trkpt lat="51.271573" lon="7.876614"><ele>371.0</ele><time>2020-08-16T17:29:52Z</time></trkpt>
<trkpt lat="51.271704" lon="7.876564"><ele>366.0</ele><time>2020-08-16T17:29:54Z</time></trkpt>
<trkpt lat="51.271745" lon="7.876524"><ele>366.0</ele><time>2020-08-16T17:29:55Z</time></trkpt>
<trkpt lat="51.271851" lon="7.875936"><ele>366.0</ele><time>2020-08-16T17:29:59Z</time></trkpt>
<trkpt lat="51.271849" lon="7.874963"><ele>364.6</ele><time>2020-08-16T17:30:06Z</time></trkpt>
<trkpt lat="51.271874" lon="7.874878"><ele>364.6</ele><time>2020-08-16T17:30:07Z</time></trkpt>
<trkpt lat="51.272114" lon="7.874502"><ele>364.6</ele><time>2020-08-16T17:30:11Z</time></trkpt>
<trkpt lat="51.272186" lon="7.874326"><ele>364.6</ele><time>2020-08-16T17:30:12Z</time></trkpt>
<trkpt lat="51.272237" lon="7.874114"><ele>364.8</ele><time>2020-08-16T17:30:14Z</time></trkpt>
<trkpt lat="51.272264" lon="7.873755"><ele>364.8</ele><time>2020-08-16T17:30:16Z</time></trkpt>
<trkpt lat="51.272267" lon="7.873007"><ele>365.0</ele><time>2020-08-16T17:30:22Z</time></trkpt>
<trkpt lat="51.272284" lon="7.872711"><ele>365.0</ele><time>2020-08-16T17:30:24Z</time></trkpt>
<trkpt lat="51.272361" lon="7.872061"><ele>366.0</ele><time>2020-08-16T17:30:29Z</time></trkpt>
<trkpt lat="51.27241" lon="7.871809"><ele>366.0</ele><time>2020-08-16T17:30:30Z</time></trkpt>
<trkpt lat="51.272524" lon="7.871518"><ele>367.6</ele><time>2020-08-16T17:30:33Z</time></trkpt>
<trkpt lat="51.272642" lon="7.871397"><ele>367.6</ele><time>2020-08-16T17:30:35Z</time></trkpt>
<trkpt lat="51.273025" lon="7.87123"><ele>367.6</ele><time>2020-08-16T17:30:39Z</time></trkpt>
<trkpt lat="51.273199" lon="7.871085"><ele>367.6</ele><time>2020-08-16T17:30:41Z</time></trkpt>
<trkpt lat="51.273345" lon="7.870832"><ele>362.6</ele><time>2020-08-16T17:30:44Z</time></trkpt>
<trkpt lat="51.273405" lon="7.870579"><ele>362.6</ele><time>2020-08-16T17:30:46Z</time></trkpt>
<trkpt lat="51.273426" lon="7.870188"><ele>362.6</ele><time>2020-08-16T17:30:49Z</time></trkpt>
<trkpt lat="51.27343" lon="7.869184"><ele>361.2</ele><time>2020-08-16T17:30:56Z</time></trkpt>
<trkpt lat="51.273401" lon="7.868891"><ele>359.8</ele><time>2020-08-16T17:30:58Z</time></trkpt>
<trkpt lat="51.273341" lon="7.868499"><ele>359.8</ele><time>2020-08-16T17:31:01Z</time></trkpt>
<trkpt lat="51.27328" lon="7.868211"><ele>365.0</ele><time>2020-08-16T17:31:03Z</time></trkpt>
<trkpt lat="51.273194" lon="7.86791"><ele>365.0</ele><time>2020-08-16T17:31:05Z</time></trkpt>
<trkpt lat="51.272888" lon="7.867164"><ele>361.6</ele><time>2020-08-16T17:31:12Z</time></trkpt>
<trkpt lat="51.272829" lon="7.866944"><ele>361.6</ele><time>2020-08-16T17:31:13Z</time></trkpt>
<trkpt lat="51.272834" lon="7.86677"><ele>361.6</ele><time>2020-08-16T17:31:15Z</time></trkpt>
<trkpt lat="51.272956" lon="7.866258"><ele>361.0</ele><time>2020-08-16T17:31:18Z</time></trkpt>
<trkpt lat="51.273003" lon="7.865982"><ele>361.0</ele><time>2020-08-16T17:31:21Z</time></trkpt>
<trkpt lat="51.273006" lon="7.865525"><ele>362.8</ele><time>2020-08-16T17:31:24Z</time></trkpt>
<trkpt lat="51.27298" lon="7.865379"><ele>362.8</ele><time>2020-08-16T17:31:25Z</time></trkpt>
<trkpt lat="51.272924" lon="7.865209"><ele>362.8</ele><time>2020-08-16T17:31:26Z</time></trkpt>
<trkpt lat="51.272745" lon="7.864788"><ele>367.0</ele><time>2020-08-16T17:31:30Z</time></trkpt>
<trkpt lat="51.272713" lon="7.864648"><ele>367.0</ele><time>2020-08-16T17:31:31Z</time></trkpt>
<trkpt lat="51.27272" lon="7.864394"><ele>367.0</ele><time>2020-08-16T17:31:33Z</time></trkpt>
<trkpt lat="51.273055" lon="7.862674"><ele>378.2</ele><time>2020-08-16T17:31:46Z</time></trkpt>
<trkpt lat="51.273188" lon="7.86213"><ele>383.8</ele><time>2020-08-16T17:31:50Z</time></trkpt>
<trkpt lat="51.273258" lon="7.861892"><ele>383.8</ele><time>2020-08-16T17:31:52Z</time></trkpt>
<trkpt lat="51.273387" lon="7.861557"><ele>386.0</ele><time>2020-08-16T17:31:55Z</time></trkpt>
<trkpt lat="51.273738" lon="7.86083"><ele>388.4</ele><time>2020-08-16T17:32:01Z</time></trkpt>
<trkpt lat="51.273829" lon="7.860525"><ele>388.4</ele><time>2020-08-16T17:32:03Z</time></trkpt>
<trkpt lat="51.273964" lon="7.859957"><ele>389.2</ele><time>2020-08-16T17:32:08Z</time></trkpt>
<trkpt lat="51.274018" lon="7.859869"><ele>389.2</ele><time>2020-08-16T17:32:09Z</time></trkpt>
<trkpt lat="51.274068" lon="7.859832"><ele>389.2</ele><time>2020-08-16T17:32:09Z</time></trkpt>
<trkpt lat="51.274643" lon="7.859679"><ele>385.2</ele><time>2020-08-16T17:32:17Z</time></trkpt>
<trkpt lat="51.274394" lon="7.857675"><ele>386.2</ele><time>2020-08-16T17:32:34Z</time></trkpt>
<trkpt lat="51.274364" lon="7.857529"><ele>386.2</ele><time>2020-08-16T17:32:35Z</time></trkpt>
<trkpt lat="51.274308" lon="7.857384"><ele>386.2</ele><time>2020-08-16T17:32:36Z</time></trkpt>
<trkpt lat="51.274347" lon="7.857218"><ele>386.2</ele><time>2020-08-16T17:32:37Z</time></trkpt>
<trkpt lat="51.274333" lon="7.857049"><ele>386.2</ele><time>2020-08-16T17:32:38Z</time></trkpt>
<trkpt lat="51.274216" lon="7.856368"><ele>384.4</ele><time>2020-08-16T17:32:41Z</time></trkpt>
<trkpt lat="51.274206" lon="7.856196"><ele>384.4</ele><time>2020-08-16T17:32:42Z</time></trkpt>
<trkpt lat="51.274232" lon="7.856102"><ele>384.4</ele><time>2020-08-16T17:32:43Z</time></trkpt>
<trkpt lat="51.274289" lon="7.856033"><ele>384.4</ele><time>2020-08-16T17:32:43Z</time></trkpt>
<trkpt lat="51.275129" lon="7.855773"><ele>372.4</ele><time>2020-08-16T17:32:50Z</time></trkpt>
<trkpt lat="51.275211" lon="7.85572"><ele>372.4</ele><time>2020-08-16T17:32:50Z</time></trkpt>
<trkpt lat="51.275276" lon="7.855635"><ele>372.4</ele><time>2020-08-16T17:32:51Z</time></trkpt>
<trkpt lat="51.27531" lon="7.855523"><ele>372.4</ele><time>2020-08-16T17:32:51Z</time></trkpt>
<trkpt lat="51.275327" lon="7.855376"><ele>372.4</ele><time>2020-08-16T17:32:52Z</time></trkpt>
<trkpt lat="51.27523" lon="7.85476"><ele>369.2</ele><time>2020-08-16T17:32:55Z</time></trkpt>
<trkpt lat="51.275229" lon="7.854517"><ele>369.2</ele><time>2020-08-16T17:32:56Z</time></trkpt>
<trkpt lat="51.275244" lon="7.854398"><ele>369.2</ele><time>2020-08-16T17:32:57Z</time></trkpt>
<trkpt lat="51.275336" lon="7.854106"><ele>366.8</ele><time>2020-08-16T17:32:58Z</time></trkpt>
<trkpt lat="51.275642" lon="7.853614"><ele>366.8</ele><time>2020-08-16T17:33:02Z</time></trkpt>
<trkpt lat="51.275933" lon="7.853042"><ele>356.2</ele><time>2020-08-16T17:33:05Z</time></trkpt>
<trkpt lat="51.276046" lon="7.852882"><ele>356.2</ele><time>2020-08-16T17:33:06Z</time></trkpt>
<trkpt lat="51.276508" lon="7.852378"><ele>354.0</ele><time>2020-08-16T17:33:11Z</time></trkpt>
<trkpt lat="51.276603" lon="7.852201"><ele>354.0</ele><time>2020-08-16T17:33:12Z</time></trkpt>
<trkpt lat="51.27665" lon="7.852083"><ele>354.0</ele><time>2020-08-16T17:33:12Z</time></trkpt>
<trkpt lat="51.276697" lon="7.851888"><ele>349.6</ele><time>2020-08-16T17:33:13Z</time></trkpt>
<trkpt lat="51.276821" lon="7.85074"><ele>346.0</ele><time>2020-08-16T17:33:19Z</time></trkpt>
<trkpt lat="51.276867" lon="7.85036"><ele>346.0</ele><time>2020-08-16T17:33:21Z</time></trkpt>
<trkpt lat="51.276915" lon="7.850098"><ele>346.0</ele><time>2020-08-16T17:33:22Z</time></trkpt>
<trkpt lat="51.277059" lon="7.849594"><ele>343.8</ele><time>2020-08-16T17:33:25Z</time></trkpt>
<trkpt lat="51.277142" lon="7.849364"><ele>343.8</ele><time>2020-08-16T17:33:26Z</time></trkpt>
<trkpt lat="51.277322" lon="7.848963"><ele>342.2</ele><time>2020-08-16T17:33:28Z</time></trkpt>
<trkpt lat="51.277474" lon="7.8487"><ele>342.2</ele><time>2020-08-16T17:33:30Z</time></trkpt>
<trkpt lat="51.277605" lon="7.848426"><ele>343.6</ele><time>2020-08-16T17:33:32Z</time></trkpt>
<trkpt lat="51.277659" lon="7.848293"><ele>342.2</ele><time>2020-08-16T17:33:32Z</time></trkpt>
<trkpt lat="51.277841" lon="7.847673"><ele>342.2</ele><time>2020-08-16T17:33:35Z</time></trkpt>
<trkpt lat="51.277953" lon="7.847359"><ele>341.6</ele><time>2020-08-16T17:33:37Z</time></trkpt>
<trkpt lat="51.278013" lon="7.847239"><ele>341.6</ele><time>2020-08-16T17:33:38Z</time></trkpt>
<trkpt lat="51.278189" lon="7.846973"><ele>341.6</ele><time>2020-08-16T17:33:40Z</time></trkpt>
<trkpt lat="51.278537" lon="7.84657"><ele>338.2</ele><time>2020-08-16T17:33:43Z</time></trkpt>
<trkpt lat="51.278785" lon="7.846195"><ele>338.2</ele><time>2020-08-16T17:33:46Z</time></trkpt>
<trkpt lat="51.278899" lon="7.845987"><ele>338.2</ele><time>2020-08-16T17:33:47Z</time></trkpt>
<trkpt lat="51.279158" lon="7.845399"><ele>337.4</ele><time>2020-08-16T17:33:50Z</time></trkpt>
<trkpt lat="51.279466" lon="7.844533"><ele>328.0</ele><time>2020-08-16T17:33:55Z</time></trkpt>
<trkpt lat="51.279571" lon="7.844133"><ele>326.6</ele><time>2020-08-16T17:33:57Z</time></trkpt>
<trkpt lat="51.279689" lon="7.843426"><ele>326.6</ele><time>2020-08-16T17:34:00Z</time></trkpt>
<trkpt lat="51.279762" lon="7.842712"><ele>325.0</ele><time>2020-08-16T17:34:04Z</time></trkpt>
<trkpt lat="51.279831" lon="7.841641"><ele>328.2</ele><time>2020-08-16T17:34:09Z</time></trkpt>
<trkpt lat="51.279829" lon="7.841255"><ele>328.2</ele><time>2020-08-16T17:34:11Z</time></trkpt>
<trkpt lat="51.279783" lon="7.840851"><ele>328.2</ele><time>2020-08-16T17:34:13Z</time></trkpt>
<trkpt lat="51.279586" lon="7.840059"><ele>330.6</ele><time>2020-08-16T17:34:17Z</time></trkpt>
<trkpt lat="51.279347" lon="7.839492"><ele>330.8</ele><time>2020-08-16T17:34:20Z</time></trkpt>
<trkpt lat="51.27919" lon="7.839065"><ele>329.8</ele><time>2020-08-16T17:34:22Z</time></trkpt>
<trkpt lat="51.279153" lon="7.838853"><ele>338.6</ele><time>2020-08-16T17:34:23Z</time></trkpt>
<trkpt lat="51.279176" lon="7.838681"><ele>329.8</ele><time>2020-08-16T17:34:25Z</time></trkpt>
<trkpt lat="51.279449" lon="7.838124"><ele>328.0</ele><time>2020-08-16T17:34:28Z</time></trkpt>
<trkpt lat="51.279497" lon="7.837915"><ele>328.0</ele><time>2020-08-16T17:34:29Z</time></trkpt>
<trkpt lat="51.279352" lon="7.836778"><ele>327.2</ele><time>2020-08-16T17:34:34Z</time></trkpt>
<trkpt lat="51.279343" lon="7.836579"><ele>329.4</ele><time>2020-08-16T17:34:35Z</time></trkpt>
<trkpt lat="51.279354" lon="7.836282"><ele>329.4</ele><time>2020-08-16T17:34:37Z</time></trkpt>
<trkpt lat="51.279619" lon="7.834731"><ele>335.2</ele><time>2020-08-16T17:34:44Z</time></trkpt>
<trkpt lat="51.279688" lon="7.833947"><ele>338.6</ele><time>2020-08-16T17:34:48Z</time></trkpt>
<trkpt lat="51.279759" lon="7.832343"><ele>346.0</ele><time>2020-08-16T17:34:56Z</time></trkpt>
<trkpt lat="51.279808" lon="7.83195"><ele>346.0</ele><time>2020-08-16T17:34:58Z</time></trkpt>
<trkpt lat="51.280354" lon="7.829933"><ele>341.0</ele><time>2020-08-16T17:35:08Z</time></trkpt>
<trkpt lat="51.280515" lon="7.829571"><ele>341.0</ele><time>2020-08-16T17:35:10Z</time></trkpt>
<trkpt lat="51.280752" lon="7.829193"><ele>341.0</ele><time>2020-08-16T17:35:12Z</time></trkpt>
<trkpt lat="51.280976" lon="7.828943"><ele>333.4</ele><time>2020-08-16T17:35:15Z</time></trkpt>
<trkpt lat="51.281374" lon="7.828651"><ele>333.4</ele><time>2020-08-16T17:35:18Z</time></trkpt>
<trkpt lat="51.281605" lon="7.828515"><ele>333.4</ele><time>2020-08-16T17:35:20Z</time></trkpt>
<trkpt lat="51.281913" lon="7.828382"><ele>334.2</ele><time>2020-08-16T17:35:22Z</time></trkpt>
<trkpt lat="51.282072" lon="7.828288"><ele>327.2</ele><time>2020-08-16T17:35:24Z</time></trkpt>
<trkpt lat="51.282198" lon="7.82816"><ele>327.2</ele><time>2020-08-16T17:35:25Z</time></trkpt>
<trkpt lat="51.282404" lon="7.827875"><ele>327.2</ele><time>2020-08-16T17:35:27Z</time></trkpt>
<trkpt lat="51.282522" lon="7.827771"><ele>325.8</ele><time>2020-08-16T17:35:28Z</time></trkpt>
<trkpt lat="51.28262" lon="7.827736"><ele>325.8</ele><time>2020-08-16T17:35:28Z</time></trkpt>
<trkpt lat="51.282774" lon="7.827772"><ele>325.8</ele><time>2020-08-16T17:35:30Z</time></trkpt>
<trkpt lat="51.28288" lon="7.827856"><ele>325.8</ele><time>2020-08-16T17:35:31Z</time></trkpt>
<trkpt lat="51.283104" lon="7.828113"><ele>325.8</ele><time>2020-08-16T17:35:33Z</time></trkpt>
<trkpt lat="51.283166" lon="7.828136"><ele>325.8</ele><time>2020-08-16T17:35:33Z</time></trkpt>
<trkpt lat="51.283217" lon="7.828104"><ele>325.8</ele><time>2020-08-16T17:35:34Z</time></trkpt>
<trkpt lat="51.283248" lon="7.827977"><ele>325.8</ele><time>2020-08-16T17:35:34Z</time></trkpt>
<trkpt lat="51.283228" lon="7.827826"><ele>325.8</ele><time>2020-08-16T17:35:35Z</time></trkpt>
<trkpt lat="51.282816" lon="7.825939"><ele>312.4</ele><time>2020-08-16T17:35:44Z</time></trkpt>
<trkpt lat="51.282796" lon="7.825761"><ele>308.2</ele><time>2020-08-16T17:35:45Z</time></trkpt>
<trkpt lat="51.282815" lon="7.825566"><ele>308.2</ele><time>2020-08-16T17:35:46Z</time></trkpt>
<trkpt lat="51.282875" lon="7.825395"><ele>308.2</ele><time>2020-08-16T17:35:47Z</time></trkpt>
<trkpt lat="51.283009" lon="7.825237"><ele>308.2</ele><time>2020-08-16T17:35:48Z</time></trkpt>
<trkpt lat="51.283048" lon="7.825216"><ele>308.2</ele><time>2020-08-16T17:35:49Z</time></trkpt>
<trkpt lat="51.283195" lon="7.825193"><ele>308.2</ele><time>2020-08-16T17:35:50Z</time></trkpt>
<trkpt lat="51.283425" lon="7.825246"><ele>303.4</ele><time>2020-08-16T17:35:52Z</time></trkpt>
<trkpt lat="51.283533" lon="7.82524"><ele>303.4</ele><time>2020-08-16T17:35:52Z</time></trkpt>
<trkpt lat="51.28363" lon="7.825168"><ele>303.4</ele><time>2020-08-16T17:35:54Z</time></trkpt>
<trkpt lat="51.283442" lon="7.824721"><ele>305.4</ele><time>2020-08-16T17:35:59Z</time></trkpt>
<trkpt lat="51.283329" lon="7.824369"><ele>309.0</ele><time>2020-08-16T17:36:02Z</time></trkpt>
<trkpt lat="51.283306" lon="7.824088"><ele>312.4</ele><time>2020-08-16T17:36:04Z</time></trkpt>
<trkpt lat="51.283328" lon="7.82392"><ele>312.4</ele><time>2020-08-16T17:36:06Z</time></trkpt>
<trkpt lat="51.283432" lon="7.823611"><ele>308.8</ele><time>2020-08-16T17:36:09Z</time></trkpt>
<trkpt lat="51.283612" lon="7.823241"><ele>312.4</ele><time>2020-08-16T17:36:13Z</time></trkpt>
<trkpt lat="51.283833" lon="7.822888"><ele>312.4</ele><time>2020-08-16T17:36:17Z</time></trkpt>
<trkpt lat="51.284174" lon="7.822412"><ele>309.8</ele><time>2020-08-16T17:36:23Z</time></trkpt>
<trkpt lat="51.284347" lon="7.822108"><ele>309.8</ele><time>2020-08-16T17:36:26Z</time></trkpt>
<trkpt lat="51.284458" lon="7.821848"><ele>309.8</ele><time>2020-08-16T17:36:28Z</time></trkpt>
<trkpt lat="51.284592" lon="7.821453"><ele>311.0</ele><time>2020-08-16T17:36:32Z</time></trkpt>
<trkpt lat="51.284671" lon="7.821077"><ele>311.0</ele><time>2020-08-16T17:36:35Z</time></trkpt>
<trkpt lat="51.284704" lon="7.82062"><ele>311.6</ele><time>2020-08-16T17:36:39Z</time></trkpt>
<trkpt lat="51.284697" lon="7.820232"><ele>311.6</ele><time>2020-08-16T17:36:42Z</time></trkpt>
<trkpt lat="51.284583" lon="7.819105"><ele>311.6</ele><time>2020-08-16T17:36:52Z</time></trkpt>
<trkpt lat="51.284476" lon="7.818268"><ele>311.2</ele><time>2020-08-16T17:36:59Z</time></trkpt>
<trkpt lat="51.284476" lon="7.818268"><ele>311.2</ele><time>2020-08-16T17:36:59Z</time></trkpt>
<trkpt lat="51.284477" lon="7.818275"><ele>311.2</ele><time>2020-08-16T17:36:59Z</time></trkpt>
<trkpt lat="51.284942" lon="7.817834"><ele>311.2</ele><time>2020-08-16T17:37:06Z</time></trkpt>
<trkpt lat="51.285362" lon="7.817585"><ele>303.8</ele><time>2020-08-16T17:37:11Z</time></trkpt>
<trkpt lat="51.285561" lon="7.817427"><ele>306.0</ele><time>2020-08-16T17:37:14Z</time></trkpt>
<trkpt lat="51.28655" lon="7.816433"><ele>306.6</ele><time>2020-08-16T17:37:29Z</time></trkpt>
<trkpt lat="51.287236" lon="7.815785"><ele>307.2</ele><time>2020-08-16T17:37:39Z</time></trkpt>
<trkpt lat="51.287822" lon="7.815312"><ele>304.8</ele><time>2020-08-16T17:37:47Z</time></trkpt>
<trkpt lat="51.288613" lon="7.814819"><ele>300.0</ele><time>2020-08-16T17:37:58Z</time></trkpt>
<trkpt lat="51.289819" lon="7.814228"><ele>295.2</ele><time>2020-08-16T17:38:14Z</time></trkpt>
<trkpt lat="51.290003" lon="7.814167"><ele>290.6</ele><time>2020-08-16T17:38:16Z</time></trkpt>
<trkpt lat="51.290132" lon="7.814156"><ele>290.0</ele><time>2020-08-16T17:38:18Z</time></trkpt>
<trkpt lat="51.290278" lon="7.814189"><ele>290.6</ele><time>2020-08-16T17:38:20Z</time></trkpt>
<trkpt lat="51.290426" lon="7.814273"><ele>290.6</ele><time>2020-08-16T17:38:22Z</time></trkpt>
<trkpt lat="51.291516" lon="7.815275"><ele>288.2</ele><time>2020-08-16T17:38:37Z</time></trkpt>
<trkpt lat="51.291655" lon="7.815375"><ele>288.2</ele><time>2020-08-16T17:38:39Z</time></trkpt>
<trkpt lat="51.29183" lon="7.815412"><ele>286.8</ele><time>2020-08-16T17:38:41Z</time></trkpt>
<trkpt lat="51.292312" lon="7.815357"><ele>286.8</ele><time>2020-08-16T17:38:48Z</time></trkpt>
<trkpt lat="51.292424" lon="7.815306"><ele>286.8</ele><time>2020-08-16T17:38:49Z</time></trkpt>
<trkpt lat="51.292527" lon="7.815232"><ele>287.4</ele><time>2020-08-16T17:38:50Z</time></trkpt>
<trkpt lat="51.293415" lon="7.814341"><ele>292.2</ele><time>2020-08-16T17:39:04Z</time></trkpt>
<trkpt lat="51.29361" lon="7.814251"><ele>292.2</ele><time>2020-08-16T17:39:07Z</time></trkpt>
<trkpt lat="51.293568" lon="7.814103"><ele>293.4</ele><time>2020-08-16T17:39:07Z</time></trkpt>
<trkpt lat="51.293568" lon="7.814103"><ele>293.4</ele><time>2020-08-16T17:39:07Z</time></trkpt>
<trkpt lat="51.29361" lon="7.814251"><ele>292.2</ele><time>2020-08-16T17:39:08Z</time></trkpt>
<trkpt lat="51.294139" lon="7.814807"><ele>292.2</ele><time>2020-08-16T17:39:12Z</time></trkpt>
<trkpt lat="51.294259" lon="7.81497"><ele>298.4</ele><time>2020-08-16T17:39:13Z</time></trkpt>
<trkpt lat="51.29436" lon="7.815173"><ele>295.4</ele><time>2020-08-16T17:39:14Z</time></trkpt>
<trkpt lat="51.29496" lon="7.817072"><ele>291.2</ele><time>2020-08-16T17:39:22Z</time></trkpt>
<trkpt lat="51.295109" lon="7.817479"><ele>296.6</ele><time>2020-08-16T17:39:24Z</time></trkpt>
<trkpt lat="51.295222" lon="7.817723"><ele>294.6</ele><time>2020-08-16T17:39:25Z</time></trkpt>
<trkpt lat="51.295612" lon="7.818435"><ele>292.6</ele><time>2020-08-16T17:39:29Z</time></trkpt>
<trkpt lat="51.295774" lon="7.818685"><ele>292.6</ele><time>2020-08-16T17:39:31Z</time></trkpt>
<trkpt lat="51.295946" lon="7.818899"><ele>296.8</ele><time>2020-08-16T17:39:32Z</time></trkpt>
<trkpt lat="51.296322" lon="7.819212"><ele>294.6</ele><time>2020-08-16T17:39:35Z</time></trkpt>
<trkpt lat="51.296457" lon="7.819352"><ele>294.6</ele><time>2020-08-16T17:39:36Z</time></trkpt>
<trkpt lat="51.296657" lon="7.819643"><ele>294.6</ele><time>2020-08-16T17:39:37Z</time></trkpt>
<trkpt lat="51.296893" lon="7.820103"><ele>295.0</ele><time>2020-08-16T17:39:40Z</time></trkpt>
<trkpt lat="51.297039" lon="7.820443"><ele>295.0</ele><time>2020-08-16T17:39:41Z</time></trkpt>
<trkpt lat="51.297179" lon="7.820857"><ele>293.2</ele><time>2020-08-16T17:39:43Z</time></trkpt>
<trkpt lat="51.297648" lon="7.822573"><ele>291.2</ele><time>2020-08-16T17:39:51Z</time></trkpt>
<trkpt lat="51.297739" lon="7.82285"><ele>291.2</ele><time>2020-08-16T17:39:52Z</time></trkpt>
<trkpt lat="51.298816" lon="7.825094"><ele>286.6</ele><time>2020-08-16T17:40:03Z</time></trkpt>
<trkpt lat="51.298923" lon="7.825276"><ele>286.6</ele><time>2020-08-16T17:40:04Z</time></trkpt>
<trkpt lat="51.299015" lon="7.82538"><ele>286.6</ele><time>2020-08-16T17:40:05Z</time></trkpt>
<trkpt lat="51.299139" lon="7.82547"><ele>286.6</ele><time>2020-08-16T17:40:06Z</time></trkpt>
<trkpt lat="51.299286" lon="7.825521"><ele>286.0</ele><time>2020-08-16T17:40:07Z</time></trkpt>
<trkpt lat="51.299432" lon="7.825518"><ele>286.0</ele><time>2020-08-16T17:40:08Z</time></trkpt>
<trkpt lat="51.300131" lon="7.825405"><ele>283.0</ele><time>2020-08-16T17:40:12Z</time></trkpt>
<trkpt lat="51.300271" lon="7.825404"><ele>283.0</ele><time>2020-08-16T17:40:13Z</time></trkpt>
<trkpt lat="51.300407" lon="7.825439"><ele>283.0</ele><time>2020-08-16T17:40:14Z</time></trkpt>
<trkpt lat="51.300743" lon="7.825589"><ele>283.0</ele><time>2020-08-16T17:40:16Z</time></trkpt>
<trkpt lat="51.301065" lon="7.825809"><ele>280.4</ele><time>2020-08-16T17:40:18Z</time></trkpt>
<trkpt lat="51.302653" lon="7.827476"><ele>279.0</ele><time>2020-08-16T17:40:31Z</time></trkpt>
<trkpt lat="51.302876" lon="7.827658"><ele>277.4</ele><time>2020-08-16T17:40:32Z</time></trkpt>
<trkpt lat="51.303291" lon="7.827759"><ele>277.4</ele><time>2020-08-16T17:40:35Z</time></trkpt>
<trkpt lat="51.304106" lon="7.827867"><ele>280.0</ele><time>2020-08-16T17:40:40Z</time></trkpt>
<trkpt lat="51.304547" lon="7.82803"><ele>283.8</ele><time>2020-08-16T17:40:43Z</time></trkpt>
<trkpt lat="51.305283" lon="7.828467"><ele>285.0</ele><time>2020-08-16T17:40:48Z</time></trkpt>
<trkpt lat="51.305619" lon="7.828638"><ele>285.0</ele><time>2020-08-16T17:40:50Z</time></trkpt>
<trkpt lat="51.306715" lon="7.829095"><ele>286.0</ele><time>2020-08-16T17:40:57Z</time></trkpt>
<trkpt lat="51.3069" lon="7.82921"><ele>283.2</ele><time>2020-08-16T17:40:59Z</time></trkpt>
<trkpt lat="51.307035" lon="7.829356"><ele>283.2</ele><time>2020-08-16T17:41:00Z</time></trkpt>
<trkpt lat="51.307162" lon="7.829553"><ele>283.2</ele><time>2020-08-16T17:41:01Z</time></trkpt>
<trkpt lat="51.30795" lon="7.831"><ele>280.6</ele><time>2020-08-16T17:41:09Z</time></trkpt>
<trkpt lat="51.308327" lon="7.831626"><ele>280.6</ele><time>2020-08-16T17:41:12Z</time></trkpt>
<trkpt lat="51.308542" lon="7.831894"><ele>280.8</ele><time>2020-08-16T17:41:14Z</time></trkpt>
<trkpt lat="51.308778" lon="7.832134"><ele>280.8</ele><time>2020-08-16T17:41:16Z</time></trkpt>
<trkpt lat="51.308952" lon="7.832271"><ele>280.8</ele><time>2020-08-16T17:41:17Z</time></trkpt>
<trkpt lat="51.309072" lon="7.832334"><ele>280.8</ele><time>2020-08-16T17:41:18Z</time></trkpt>
<trkpt lat="51.309255" lon="7.832409"><ele>282.2</ele><time>2020-08-16T17:41:19Z</time></trkpt>
<trkpt lat="51.309566" lon="7.832487"><ele>282.2</ele><time>2020-08-16T17:41:21Z</time></trkpt>
<trkpt lat="51.310887" lon="7.832974"><ele>274.4</ele><time>2020-08-16T17:41:29Z</time></trkpt>
<trkpt lat="51.311053" lon="7.83306"><ele>274.4</ele><time>2020-08-16T17:41:31Z</time></trkpt>
<trkpt lat="51.311384" lon="7.833329"><ele>274.4</ele><time>2020-08-16T17:41:33Z</time></trkpt>
<trkpt lat="51.311576" lon="7.83354"><ele>271.6</ele><time>2020-08-16T17:41:34Z</time></trkpt>
<trkpt lat="51.311782" lon="7.833834"><ele>272.0</ele><time>2020-08-16T17:41:36Z</time></trkpt>
<trkpt lat="51.31227" lon="7.834712"><ele>270.6</ele><time>2020-08-16T17:41:41Z</time></trkpt>
<trkpt lat="51.31259" lon="7.835114"><ele>272.8</ele><time>2020-08-16T17:41:43Z</time></trkpt>
<trkpt lat="51.312715" lon="7.835384"><ele>272.8</ele><time>2020-08-16T17:41:45Z</time></trkpt>
<trkpt lat="51.312727" lon="7.835495"><ele>272.8</ele><time>2020-08-16T17:41:46Z</time></trkpt>
<trkpt lat="51.312784" lon="7.835593"><ele>272.8</ele><time>2020-08-16T17:41:46Z</time></trkpt>
<trkpt lat="51.312784" lon="7.835593"><ele>272.8</ele><time>2020-08-16T17:41:46Z</time></trkpt>
<trkpt lat="51.312866" lon="7.835632"><ele>272.8</ele><time>2020-08-16T17:41:47Z</time></trkpt>
<trkpt lat="51.312949" lon="7.835582"><ele>272.8</ele><time>2020-08-16T17:41:48Z</time></trkpt>
<trkpt lat="51.312996" lon="7.835479"><ele>272.8</ele><time>2020-08-16T17:41:49Z</time></trkpt>
<trkpt lat="51.313012" lon="7.835264"><ele>272.8</ele><time>2020-08-16T17:41:50Z</time></trkpt>
<trkpt lat="51.313121" lon="7.835177"><ele>272.8</ele><time>2020-08-16T17:41:51Z</time></trkpt>
<trkpt lat="51.313293" lon="7.835183"><ele>272.8</ele><time>2020-08-16T17:41:52Z</time></trkpt>
<trkpt lat="51.313527" lon="7.835384"><ele>277.4</ele><time>2020-08-16T17:41:55Z</time></trkpt>
<trkpt lat="51.313614" lon="7.835433"><ele>277.4</ele><time>2020-08-16T17:41:56Z</time></trkpt>
<trkpt lat="51.313757" lon="7.835479"><ele>277.4</ele><time>2020-08-16T17:41:58Z</time></trkpt>
<trkpt lat="51.313915" lon="7.835488"><ele>277.4</ele><time>2020-08-16T17:42:00Z</time></trkpt>
<trkpt lat="51.314021" lon="7.835468"><ele>277.4</ele><time>2020-08-16T17:42:01Z</time></trkpt>
<trkpt lat="51.314258" lon="7.835377"><ele>280.8</ele><time>2020-08-16T17:42:04Z</time></trkpt>
<trkpt lat="51.314616" lon="7.835176"><ele>280.8</ele><time>2020-08-16T17:42:09Z</time></trkpt>
<trkpt lat="51.316135" lon="7.834169"><ele>276.6</ele><time>2020-08-16T17:42:28Z</time></trkpt>
<trkpt lat="51.31625" lon="7.834074"><ele>277.4</ele><time>2020-08-16T17:42:29Z</time></trkpt>
<trkpt lat="51.316368" lon="7.833925"><ele>277.4</ele><time>2020-08-16T17:42:31Z</time></trkpt>
<trkpt lat="51.31646" lon="7.833694"><ele>277.4</ele><time>2020-08-16T17:42:33Z</time></trkpt>
<trkpt lat="51.31671" lon="7.83242"><ele>271.2</ele><time>2020-08-16T17:42:43Z</time></trkpt>
<trkpt lat="51.316831" lon="7.832015"><ele>271.2</ele><time>2020-08-16T17:42:46Z</time></trkpt>
<trkpt lat="51.316976" lon="7.831746"><ele>271.2</ele><time>2020-08-16T17:42:49Z</time></trkpt>
<trkpt lat="51.317113" lon="7.83155"><ele>272.0</ele><time>2020-08-16T17:42:51Z</time></trkpt>
<trkpt lat="51.317292" lon="7.831343"><ele>272.0</ele><time>2020-08-16T17:42:53Z</time></trkpt>
<trkpt lat="51.317386" lon="7.831267"><ele>272.0</ele><time>2020-08-16T17:42:55Z</time></trkpt>
<trkpt lat="51.317442" lon="7.831255"><ele>272.0</ele><time>2020-08-16T17:42:55Z</time></trkpt>
<trkpt lat="51.317464" lon="7.831278"><ele>272.0</ele><time>2020-08-16T17:42:56Z</time></trkpt>
<trkpt lat="51.317451" lon="7.83122"><ele>272.0</ele><time>2020-08-16T17:42:57Z</time></trkpt>
<trkpt lat="51.317451" lon="7.83122"><ele>272.0</ele><time>2020-08-16T17:42:57Z</time></trkpt>
<trkpt lat="51.317285" lon="7.830435"><ele>273.0</ele><time>2020-08-16T17:43:00Z</time></trkpt>
<trkpt lat="51.317228" lon="7.830049"><ele>273.0</ele><time>2020-08-16T17:43:02Z</time></trkpt>
<trkpt lat="51.317208" lon="7.829769"><ele>273.8</ele><time>2020-08-16T17:43:03Z</time></trkpt>
<trkpt lat="51.317234" lon="7.829455"><ele>273.8</ele><time>2020-08-16T17:43:05Z</time></trkpt>
<trkpt lat="51.317322" lon="7.829283"><ele>273.8</ele><time>2020-08-16T17:43:05Z</time></trkpt>
<trkpt lat="51.317563" lon="7.829066"><ele>274.4</ele><time>2020-08-16T17:43:07Z</time></trkpt>
<trkpt lat="51.317594" lon="7.828963"><ele>274.4</ele><time>2020-08-16T17:43:08Z</time></trkpt>
<trkpt lat="51.317595" lon="7.8288"><ele>274.4</ele><time>2020-08-16T17:43:09Z</time></trkpt>
<trkpt lat="51.317585" lon="7.8287"><ele>274.4</ele><time>2020-08-16T17:43:09Z</time></trkpt>
<trkpt lat="51.317346" lon="7.827529"><ele>275.8</ele><time>2020-08-16T17:43:14Z</time></trkpt>
<trkpt lat="51.31727" lon="7.826994"><ele>277.4</ele><time>2020-08-16T17:43:17Z</time></trkpt>
<trkpt lat="51.317227" lon="7.826468"><ele>279.4</ele><time>2020-08-16T17:43:19Z</time></trkpt>
<trkpt lat="51.317207" lon="7.825817"><ele>281.6</ele><time>2020-08-16T17:43:22Z</time></trkpt>
<trkpt lat="51.317159" lon="7.825297"><ele>281.6</ele><time>2020-08-16T17:43:24Z</time></trkpt>
<trkpt lat="51.317126" lon="7.824691"><ele>284.8</ele><time>2020-08-16T17:43:27Z</time></trkpt>
<trkpt lat="51.317118" lon="7.824077"><ele>288.6</ele><time>2020-08-16T17:43:30Z</time></trkpt>
<trkpt lat="51.317146" lon="7.822887"><ele>292.4</ele><time>2020-08-16T17:43:35Z</time></trkpt>
<trkpt lat="51.31714" lon="7.819588"><ele>301.8</ele><time>2020-08-16T17:43:49Z</time></trkpt>
<trkpt lat="51.317128" lon="7.819491"><ele>301.8</ele><time>2020-08-16T17:43:50Z</time></trkpt>
<trkpt lat="51.31708" lon="7.819347"><ele>301.8</ele><time>2020-08-16T17:43:51Z</time></trkpt>
<trkpt lat="51.316859" lon="7.81894"><ele>304.6</ele><time>2020-08-16T17:43:53Z</time></trkpt>
<trkpt lat="51.316671" lon="7.818459"><ele>304.6</ele><time>2020-08-16T17:43:55Z</time></trkpt>
<trkpt lat="51.316515" lon="7.817693"><ele>311.6</ele><time>2020-08-16T17:43:59Z</time></trkpt>
<trkpt lat="51.316417" lon="7.817294"><ele>310.6</ele><time>2020-08-16T17:44:01Z</time></trkpt>
<trkpt lat="51.316418" lon="7.817142"><ele>310.6</ele><time>2020-08-16T17:44:02Z</time></trkpt>
<trkpt lat="51.31646" lon="7.817031"><ele>310.6</ele><time>2020-08-16T17:44:02Z</time></trkpt>
<trkpt lat="51.316516" lon="7.81698"><ele>310.6</ele><time>2020-08-16T17:44:03Z</time></trkpt>
<trkpt lat="51.316573" lon="7.816965"><ele>310.6</ele><time>2020-08-16T17:44:03Z</time></trkpt>
<trkpt lat="51.316635" lon="7.816988"><ele>310.6</ele><time>2020-08-16T17:44:03Z</time></trkpt>
<trkpt lat="51.316682" lon="7.817057"><ele>314.2</ele><time>2020-08-16T17:44:04Z</time></trkpt>
<trkpt lat="51.316727" lon="7.817245"><ele>314.2</ele><time>2020-08-16T17:44:05Z</time></trkpt>
<trkpt lat="51.316767" lon="7.817752"><ele>309.0</ele><time>2020-08-16T17:44:07Z</time></trkpt>
<trkpt lat="51.316804" lon="7.817857"><ele>309.0</ele><time>2020-08-16T17:44:08Z</time></trkpt>
<trkpt lat="51.31689" lon="7.817929"><ele>309.0</ele><time>2020-08-16T17:44:08Z</time></trkpt>
<trkpt lat="51.316991" lon="7.817911"><ele>309.0</ele><time>2020-08-16T17:44:09Z</time></trkpt>
<trkpt lat="51.317055" lon="7.817816"><ele>309.0</ele><time>2020-08-16T17:44:10Z</time></trkpt>
<trkpt lat="51.31707" lon="7.81772"><ele>309.0</ele><time>2020-08-16T17:44:10Z</time></trkpt>
<trkpt lat="51.317063" lon="7.817587"><ele>309.0</ele><time>2020-08-16T17:44:11Z</time></trkpt>
<trkpt lat="51.316923" lon="7.81712"><ele>314.2</ele><time>2020-08-16T17:44:13Z</time></trkpt>
<trkpt lat="51.316861" lon="7.816795"><ele>314.2</ele><time>2020-08-16T17:44:14Z</time></trkpt>
<trkpt lat="51.316726" lon="7.815104"><ele>326.6</ele><time>2020-08-16T17:44:22Z</time></trkpt>
<trkpt lat="51.316747" lon="7.81475"><ele>332.2</ele><time>2020-08-16T17:44:24Z</time></trkpt>
<trkpt lat="51.316871" lon="7.813849"><ele>338.2</ele><time>2020-08-16T17:44:28Z</time></trkpt>
<trkpt lat="51.316875" lon="7.813531"><ele>338.2</ele><time>2020-08-16T17:44:29Z</time></trkpt>
<trkpt lat="51.316848" lon="7.813345"><ele>338.2</ele><time>2020-08-16T17:44:30Z</time></trkpt>
<trkpt lat="51.316782" lon="7.8131"><ele>346.0</ele><time>2020-08-16T17:44:31Z</time></trkpt>
<trkpt lat="51.316465" lon="7.812157"><ele>337.2</ele><time>2020-08-16T17:44:36Z</time></trkpt>
<trkpt lat="51.316434" lon="7.811958"><ele>337.2</ele><time>2020-08-16T17:44:37Z</time></trkpt>
<trkpt lat="51.316418" lon="7.811481"><ele>347.2</ele><time>2020-08-16T17:44:39Z</time></trkpt>
<trkpt lat="51.316386" lon="7.811226"><ele>347.2</ele><time>2020-08-16T17:44:40Z</time></trkpt>
<trkpt lat="51.316093" lon="7.810076"><ele>358.6</ele><time>2020-08-16T17:44:46Z</time></trkpt>
<trkpt lat="51.316024" lon="7.809843"><ele>372.2</ele><time>2020-08-16T17:44:47Z</time></trkpt>
<trkpt lat="51.31546" lon="7.808262"><ele>385.0</ele><time>2020-08-16T17:44:55Z</time></trkpt>
<trkpt lat="51.315211" lon="7.807688"><ele>385.0</ele><time>2020-08-16T17:44:58Z</time></trkpt>
<trkpt lat="51.31503" lon="7.807356"><ele>394.2</ele><time>2020-08-16T17:45:00Z</time></trkpt>
<trkpt lat="51.314764" lon="7.806995"><ele>379.8</ele><time>2020-08-16T17:45:03Z</time></trkpt>
<trkpt lat="51.314289" lon="7.806605"><ele>385.0</ele><time>2020-08-16T17:45:06Z</time></trkpt>
<trkpt lat="51.314156" lon="7.806391"><ele>363.6</ele><time>2020-08-16T17:45:08Z</time></trkpt>
<trkpt lat="51.314062" lon="7.806098"><ele>363.6</ele><time>2020-08-16T17:45:10Z</time></trkpt>
<trkpt lat="51.31404" lon="7.805951"><ele>363.6</ele><time>2020-08-16T17:45:10Z</time></trkpt>
<trkpt lat="51.314036" lon="7.805668"><ele>366.2</ele><time>2020-08-16T17:45:12Z</time></trkpt>
<trkpt lat="51.314134" lon="7.804966"><ele>370.6</ele><time>2020-08-16T17:45:15Z</time></trkpt>
<trkpt lat="51.314146" lon="7.804446"><ele>370.6</ele><time>2020-08-16T17:45:17Z</time></trkpt>
<trkpt lat="51.313984" lon="7.802479"><ele>385.0</ele><time>2020-08-16T17:45:26Z</time></trkpt>
<trkpt lat="51.313954" lon="7.801725"><ele>385.0</ele><time>2020-08-16T17:45:29Z</time></trkpt>
<trkpt lat="51.313963" lon="7.801138"><ele>387.4</ele><time>2020-08-16T17:45:32Z</time></trkpt>
<trkpt lat="51.313988" lon="7.800788"><ele>388.6</ele><time>2020-08-16T17:45:33Z</time></trkpt>
<trkpt lat="51.31413" lon="7.800038"><ele>388.6</ele><time>2020-08-16T17:45:37Z</time></trkpt>
<trkpt lat="51.314161" lon="7.799783"><ele>389.6</ele><time>2020-08-16T17:45:38Z</time></trkpt>
<trkpt lat="51.314169" lon="7.798535"><ele>411.6</ele><time>2020-08-16T17:45:44Z</time></trkpt>
<trkpt lat="51.314203" lon="7.798239"><ele>403.0</ele><time>2020-08-16T17:45:45Z</time></trkpt>
<trkpt lat="51.314272" lon="7.798002"><ele>403.0</ele><time>2020-08-16T17:45:46Z</time></trkpt>
<trkpt lat="51.314364" lon="7.797821"><ele>403.0</ele><time>2020-08-16T17:45:47Z</time></trkpt>
<trkpt lat="51.314472" lon="7.797666"><ele>403.0</ele><time>2020-08-16T17:45:48Z</time></trkpt>
<trkpt lat="51.314903" lon="7.797183"><ele>395.2</ele><time>2020-08-16T17:45:52Z</time></trkpt>
<trkpt lat="51.31515" lon="7.796827"><ele>416.6</ele><time>2020-08-16T17:45:55Z</time></trkpt>
<trkpt lat="51.315429" lon="7.796152"><ele>410.4</ele><time>2020-08-16T17:45:58Z</time></trkpt>
<trkpt lat="51.31576" lon="7.795599"><ele>407.2</ele><time>2020-08-16T17:46:02Z</time></trkpt>
<trkpt lat="51.315812" lon="7.795486"><ele>407.2</ele><time>2020-08-16T17:46:02Z</time></trkpt>
<trkpt lat="51.315993" lon="7.794938"><ele>424.6</ele><time>2020-08-16T17:46:05Z</time></trkpt>
<trkpt lat="51.316158" lon="7.794647"><ele>424.6</ele><time>2020-08-16T17:46:07Z</time></trkpt>
<trkpt lat="51.316403" lon="7.794338"><ele>424.6</ele><time>2020-08-16T17:46:09Z</time></trkpt>
<trkpt lat="51.316583" lon="7.794183"><ele>424.6</ele><time>2020-08-16T17:46:10Z</time></trkpt>
<trkpt lat="51.317158" lon="7.793836"><ele>437.8</ele><time>2020-08-16T17:46:15Z</time></trkpt>
<trkpt lat="51.317231" lon="7.793743"><ele>437.8</ele><time>2020-08-16T17:46:15Z</time></trkpt>
<trkpt lat="51.317303" lon="7.793517"><ele>437.8</ele><time>2020-08-16T17:46:17Z</time></trkpt>
<trkpt lat="51.317319" lon="7.793329"><ele>433.4</ele><time>2020-08-16T17:46:17Z</time></trkpt>
<trkpt lat="51.317289" lon="7.792788"><ele>433.4</ele><time>2020-08-16T17:46:20Z</time></trkpt>
<trkpt lat="51.3173" lon="7.792562"><ele>433.4</ele><time>2020-08-16T17:46:21Z</time></trkpt>
<trkpt lat="51.31737" lon="7.792232"><ele>430.8</ele><time>2020-08-16T17:46:22Z</time></trkpt>
<trkpt lat="51.317497" lon="7.791832"><ele>430.8</ele><time>2020-08-16T17:46:24Z</time></trkpt>
<trkpt lat="51.31756" lon="7.791483"><ele>454.4</ele><time>2020-08-16T17:46:27Z</time></trkpt>
<trkpt lat="51.317579" lon="7.791275"><ele>454.4</ele><time>2020-08-16T17:46:27Z</time></trkpt>
<trkpt lat="51.317597" lon="7.790801"><ele>455.6</ele><time>2020-08-16T17:46:30Z</time></trkpt>
<trkpt lat="51.317557" lon="7.78979"><ele>458.0</ele><time>2020-08-16T17:46:34Z</time></trkpt>
<trkpt lat="51.317586" lon="7.789105"><ele>459.8</ele><time>2020-08-16T17:46:37Z</time></trkpt>
<trkpt lat="51.317633" lon="7.788442"><ele>459.8</ele><time>2020-08-16T17:46:40Z</time></trkpt>
<trkpt lat="51.317698" lon="7.787995"><ele>458.8</ele><time>2020-08-16T17:46:42Z</time></trkpt>
<trkpt lat="51.317734" lon="7.787827"><ele>458.8</ele><time>2020-08-16T17:46:43Z</time></trkpt>
<trkpt lat="51.317911" lon="7.787249"><ele>456.8</ele><time>2020-08-16T17:46:46Z</time></trkpt>
<trkpt lat="51.317973" lon="7.78683"><ele>456.8</ele><time>2020-08-16T17:46:47Z</time></trkpt>
<trkpt lat="51.317979" lon="7.786501"><ele>455.4</ele><time>2020-08-16T17:46:49Z</time></trkpt>
<trkpt lat="51.317962" lon="7.786232"><ele>455.4</ele><time>2020-08-16T17:46:50Z</time></trkpt>
<trkpt lat="51.317877" lon="7.785422"><ele>454.8</ele><time>2020-08-16T17:46:54Z</time></trkpt>
<trkpt lat="51.317698" lon="7.784381"><ele>455.8</ele><time>2020-08-16T17:46:58Z</time></trkpt>
<trkpt lat="51.31767" lon="7.784007"><ele>458.0</ele><time>2020-08-16T17:47:00Z</time></trkpt>
<trkpt lat="51.317686" lon="7.783876"><ele>458.0</ele><time>2020-08-16T17:47:01Z</time></trkpt>
<trkpt lat="51.317723" lon="7.783758"><ele>458.0</ele><time>2020-08-16T17:47:01Z</time></trkpt>
<trkpt lat="51.317802" lon="7.78362"><ele>458.0</ele><time>2020-08-16T17:47:02Z</time></trkpt>
<trkpt lat="51.317956" lon="7.783482"><ele>458.0</ele><time>2020-08-16T17:47:03Z</time></trkpt>
<trkpt lat="51.31813" lon="7.783285"><ele>463.2</ele><time>2020-08-16T17:47:05Z</time></trkpt>
<trkpt lat="51.318247" lon="7.783071"><ele>463.2</ele><time>2020-08-16T17:47:06Z</time></trkpt>
<trkpt lat="51.31831" lon="7.78278"><ele>463.2</ele><time>2020-08-16T17:47:07Z</time></trkpt>
<trkpt lat="51.318311" lon="7.782598"><ele>463.2</ele><time>2020-08-16T17:47:08Z</time></trkpt>
<trkpt lat="51.318263" lon="7.782376"><ele>469.0</ele><time>2020-08-16T17:47:09Z</time></trkpt>
<trkpt lat="51.318179" lon="7.782239"><ele>469.0</ele><time>2020-08-16T17:47:10Z</time></trkpt>
<trkpt lat="51.317424" lon="7.781675"><ele>463.6</ele><time>2020-08-16T17:47:16Z</time></trkpt>
<trkpt lat="51.317224" lon="7.781504"><ele>470.2</ele><time>2020-08-16T17:47:18Z</time></trkpt>
<trkpt lat="51.316871" lon="7.781115"><ele>470.2</ele><time>2020-08-16T17:47:21Z</time></trkpt>
<trkpt lat="51.316716" lon="7.780858"><ele>470.2</ele><time>2020-08-16T17:47:22Z</time></trkpt>
<trkpt lat="51.31663" lon="7.780647"><ele>474.6</ele><time>2020-08-16T17:47:23Z</time></trkpt>
<trkpt lat="51.316469" lon="7.780131"><ele>474.6</ele><time>2020-08-16T17:47:26Z</time></trkpt>
<trkpt lat="51.316304" lon="7.779291"><ele>476.0</ele><time>2020-08-16T17:47:30Z</time></trkpt>
<trkpt lat="51.316227" lon="7.779029"><ele>474.2</ele><time>2020-08-16T17:47:31Z</time></trkpt>
<trkpt lat="51.316183" lon="7.778939"><ele>474.2</ele><time>2020-08-16T17:47:31Z</time></trkpt>
<trkpt lat="51.315757" lon="7.778369"><ele>478.6</ele><time>2020-08-16T17:47:35Z</time></trkpt>
<trkpt lat="51.315635" lon="7.778159"><ele>472.6</ele><time>2020-08-16T17:47:37Z</time></trkpt>
<trkpt lat="51.315257" lon="7.777037"><ele>463.6</ele><time>2020-08-16T17:47:42Z</time></trkpt>
<trkpt lat="51.31516" lon="7.776792"><ele>463.6</ele><time>2020-08-16T17:47:44Z</time></trkpt>
<trkpt lat="51.315075" lon="7.77663"><ele>452.0</ele><time>2020-08-16T17:47:45Z</time></trkpt>
<trkpt lat="51.314688" lon="7.776036"><ele>456.2</ele><time>2020-08-16T17:47:49Z</time></trkpt>
<trkpt lat="51.314292" lon="7.775529"><ele>446.8</ele><time>2020-08-16T17:47:52Z</time></trkpt>
<trkpt lat="51.314186" lon="7.775431"><ele>446.8</ele><time>2020-08-16T17:47:53Z</time></trkpt>
<trkpt lat="51.313851" lon="7.775215"><ele>449.2</ele><time>2020-08-16T17:47:56Z</time></trkpt>
<trkpt lat="51.313632" lon="7.775016"><ele>449.2</ele><time>2020-08-16T17:47:57Z</time></trkpt>
<trkpt lat="51.31359" lon="7.774906"><ele>450.2</ele><time>2020-08-16T17:47:58Z</time></trkpt>
<trkpt lat="51.313566" lon="7.77476"><ele>450.2</ele><time>2020-08-16T17:47:59Z</time></trkpt>
<trkpt lat="51.313582" lon="7.774478"><ele>450.2</ele><time>2020-08-16T17:48:00Z</time></trkpt>
<trkpt lat="51.313622" lon="7.774359"><ele>450.2</ele><time>2020-08-16T17:48:00Z</time></trkpt>
<trkpt lat="51.313719" lon="7.774231"><ele>450.2</ele><time>2020-08-16T17:48:01Z</time></trkpt>
<trkpt lat="51.313947" lon="7.774059"><ele>453.8</ele><time>2020-08-16T17:48:03Z</time></trkpt>
<trkpt lat="51.314046" lon="7.773952"><ele>453.8</ele><time>2020-08-16T17:48:04Z</time></trkpt>
<trkpt lat="51.314218" lon="7.773648"><ele>447.0</ele><time>2020-08-16T17:48:06Z</time></trkpt>
<trkpt lat="51.314268" lon="7.773483"><ele>447.0</ele><time>2020-08-16T17:48:07Z</time></trkpt>
<trkpt lat="51.314302" lon="7.773269"><ele>449.2</ele><time>2020-08-16T17:48:07Z</time></trkpt>
<trkpt lat="51.31426" lon="7.772278"><ele>450.4</ele><time>2020-08-16T17:48:12Z</time></trkpt>
<trkpt lat="51.31419" lon="7.771556"><ele>447.8</ele><time>2020-08-16T17:48:15Z</time></trkpt>
<trkpt lat="51.314139" lon="7.771227"><ele>464.4</ele><time>2020-08-16T17:48:17Z</time></trkpt>
<trkpt lat="51.314078" lon="7.770971"><ele>464.4</ele><time>2020-08-16T17:48:18Z</time></trkpt>
<trkpt lat="51.313996" lon="7.770758"><ele>462.2</ele><time>2020-08-16T17:48:19Z</time></trkpt>
<trkpt lat="51.313825" lon="7.770407"><ele>462.2</ele><time>2020-08-16T17:48:21Z</time></trkpt>
<trkpt lat="51.313756" lon="7.770197"><ele>462.2</ele><time>2020-08-16T17:48:22Z</time></trkpt>
<trkpt lat="51.313432" lon="7.76878"><ele>451.8</ele><time>2020-08-16T17:48:29Z</time></trkpt>
<trkpt lat="51.313151" lon="7.767725"><ele>461.4</ele><time>2020-08-16T17:48:34Z</time></trkpt>
<trkpt lat="51.313072" lon="7.767337"><ele>455.2</ele><time>2020-08-16T17:48:36Z</time></trkpt>
<trkpt lat="51.312916" lon="7.766836"><ele>455.2</ele><time>2020-08-16T17:48:38Z</time></trkpt>
<trkpt lat="51.3129" lon="7.766633"><ele>455.0</ele><time>2020-08-16T17:48:39Z</time></trkpt>
<trkpt lat="51.312943" lon="7.766316"><ele>455.0</ele><time>2020-08-16T17:48:40Z</time></trkpt>
<trkpt lat="51.313084" lon="7.765651"><ele>458.0</ele><time>2020-08-16T17:48:44Z</time></trkpt>
<trkpt lat="51.313197" lon="7.76489"><ele>462.4</ele><time>2020-08-16T17:48:47Z</time></trkpt>
<trkpt lat="51.313242" lon="7.764688"><ele>462.4</ele><time>2020-08-16T17:48:48Z</time></trkpt>
<trkpt lat="51.313746" lon="7.763308"><ele>472.0</ele><time>2020-08-16T17:48:55Z</time></trkpt>
<trkpt lat="51.314095" lon="7.762554"><ele>472.0</ele><time>2020-08-16T17:48:59Z</time></trkpt>
<trkpt lat="51.314328" lon="7.762117"><ele>469.4</ele><time>2020-08-16T17:49:02Z</time></trkpt>
<trkpt lat="51.314559" lon="7.761734"><ele>469.4</ele><time>2020-08-16T17:49:04Z</time></trkpt>
<trkpt lat="51.31495" lon="7.76133"><ele>468.8</ele><time>2020-08-16T17:49:07Z</time></trkpt>
<trkpt lat="51.315511" lon="7.760419"><ele>463.6</ele><time>2020-08-16T17:49:13Z</time></trkpt>
<trkpt lat="51.315578" lon="7.760276"><ele>463.6</ele><time>2020-08-16T17:49:14Z</time></trkpt>
<trkpt lat="51.315653" lon="7.759998"><ele>465.4</ele><time>2020-08-16T17:49:15Z</time></trkpt>
<trkpt lat="51.315861" lon="7.75907"><ele>469.2</ele><time>2020-08-16T17:49:19Z</time></trkpt>
<trkpt lat="51.316085" lon="7.758345"><ele>469.2</ele><time>2020-08-16T17:49:23Z</time></trkpt>
<trkpt lat="51.316171" lon="7.758017"><ele>471.0</ele><time>2020-08-16T17:49:24Z</time></trkpt>
<trkpt lat="51.316386" lon="7.756896"><ele>474.4</ele><time>2020-08-16T17:49:30Z</time></trkpt>
<trkpt lat="51.316611" lon="7.755932"><ele>481.0</ele><time>2020-08-16T17:49:34Z</time></trkpt>
<trkpt lat="51.316668" lon="7.755592"><ele>492.2</ele><time>2020-08-16T17:49:36Z</time></trkpt>
<trkpt lat="51.316705" lon="7.755111"><ele>492.2</ele><time>2020-08-16T17:49:38Z</time></trkpt>
<trkpt lat="51.316687" lon="7.75443"><ele>497.0</ele><time>2020-08-16T17:49:41Z</time></trkpt>
<trkpt lat="51.316704" lon="7.753786"><ele>500.0</ele><time>2020-08-16T17:49:44Z</time></trkpt>
<trkpt lat="51.316739" lon="7.753466"><ele>500.0</ele><time>2020-08-16T17:49:45Z</time></trkpt>
<trkpt lat="51.316822" lon="7.753203"><ele>500.2</ele><time>2020-08-16T17:49:46Z</time></trkpt>
<trkpt lat="51.31685" lon="7.752941"><ele>500.2</ele><time>2020-08-16T17:49:48Z</time></trkpt>
<trkpt lat="51.316842" lon="7.750644"><ele>493.6</ele><time>2020-08-16T17:49:58Z</time></trkpt>
<trkpt lat="51.316852" lon="7.749871"><ele>488.2</ele><time>2020-08-16T17:50:01Z</time></trkpt>
<trkpt lat="51.316785" lon="7.749405"><ele>488.2</ele><time>2020-08-16T17:50:03Z</time></trkpt>
<trkpt lat="51.316779" lon="7.7489"><ele>481.6</ele><time>2020-08-16T17:50:05Z</time></trkpt>
<trkpt lat="51.316733" lon="7.748272"><ele>474.0</ele><time>2020-08-16T17:50:08Z</time></trkpt>
<trkpt lat="51.316688" lon="7.747886"><ele>474.0</ele><time>2020-08-16T17:50:10Z</time></trkpt>
<trkpt lat="51.316538" lon="7.747052"><ele>488.8</ele><time>2020-08-16T17:50:14Z</time></trkpt>
<trkpt lat="51.31623" lon="7.745774"><ele>460.0</ele><time>2020-08-16T17:50:20Z</time></trkpt>
<trkpt lat="51.315667" lon="7.744321"><ele>459.8</ele><time>2020-08-16T17:50:28Z</time></trkpt>
<trkpt lat="51.315278" lon="7.74351"><ele>448.0</ele><time>2020-08-16T17:50:32Z</time></trkpt>
<trkpt lat="51.31514" lon="7.743012"><ele>437.8</ele><time>2020-08-16T17:50:35Z</time></trkpt>
<trkpt lat="51.314982" lon="7.742724"><ele>435.8</ele><time>2020-08-16T17:50:36Z</time></trkpt>
<trkpt lat="51.314953" lon="7.74255"><ele>435.8</ele><time>2020-08-16T17:50:46Z</time></trkpt>
<trkpt lat="51.315327" lon="7.742201"><ele>428.2</ele><time>2020-08-16T17:50:48Z</time></trkpt>
<trkpt lat="51.316224" lon="7.741558"><ele>420.8</ele><time>2020-08-16T17:50:53Z</time></trkpt>
<trkpt lat="51.316384" lon="7.741317"><ele>420.8</ele><time>2020-08-16T17:50:54Z</time></trkpt>
<trkpt lat="51.316384" lon="7.741317"><ele>420.8</ele><time>2020-08-16T17:50:54Z</time></trkpt>
<trkpt lat="51.316399" lon="7.741292"><ele>420.8</ele><time>2020-08-16T17:50:54Z</time></trkpt>
<trkpt lat="51.316289" lon="7.741326"><ele>420.8</ele><time>2020-08-16T17:50:55Z</time></trkpt>
<trkpt lat="51.315997" lon="7.741355"><ele>420.8</ele><time>2020-08-16T17:50:58Z</time></trkpt>
<trkpt lat="51.315871" lon="7.741333"><ele>420.8</ele><time>2020-08-16T17:50:59Z</time></trkpt>
<trkpt lat="51.315633" lon="7.741244"><ele>418.4</ele><time>2020-08-16T17:51:01Z</time></trkpt>
<trkpt lat="51.315477" lon="7.741144"><ele>418.4</ele><time>2020-08-16T17:51:03Z</time></trkpt>
<trkpt lat="51.314697" lon="7.740391"><ele>404.4</ele><time>2020-08-16T17:51:11Z</time></trkpt>
<trkpt lat="51.314335" lon="7.73998"><ele>404.8</ele><time>2020-08-16T17:51:15Z</time></trkpt>
<trkpt lat="51.313786" lon="7.739219"><ele>399.8</ele><time>2020-08-16T17:51:22Z</time></trkpt>
<trkpt lat="51.31352" lon="7.738808"><ele>399.2</ele><time>2020-08-16T17:51:26Z</time></trkpt>
<trkpt lat="51.312939" lon="7.737706"><ele>400.8</ele><time>2020-08-16T17:51:34Z</time></trkpt>
<trkpt lat="51.312589" lon="7.736812"><ele>397.0</ele><time>2020-08-16T17:51:40Z</time></trkpt>
<trkpt lat="51.312407" lon="7.736407"><ele>392.6</ele><time>2020-08-16T17:51:43Z</time></trkpt>
<trkpt lat="51.312284" lon="7.736212"><ele>392.6</ele><time>2020-08-16T17:51:45Z</time></trkpt>
<trkpt lat="51.311409" lon="7.735053"><ele>392.2</ele><time>2020-08-16T17:51:55Z</time></trkpt>
<trkpt lat="51.311219" lon="7.734311"><ele>385.4</ele><time>2020-08-16T17:52:00Z</time></trkpt>
<trkpt lat="51.311066" lon="7.733393"><ele>379.4</ele><time>2020-08-16T17:52:05Z</time></trkpt>
<trkpt lat="51.310963" lon="7.732901"><ele>373.4</ele><time>2020-08-16T17:52:08Z</time></trkpt>
<trkpt lat="51.310823" lon="7.732452"><ele>373.2</ele><time>2020-08-16T17:52:11Z</time></trkpt>
<trkpt lat="51.309941" lon="7.730112"><ele>358.6</ele><time>2020-08-16T17:52:27Z</time></trkpt>
<trkpt lat="51.309834" lon="7.729937"><ele>344.0</ele><time>2020-08-16T17:52:29Z</time></trkpt>
<trkpt lat="51.309688" lon="7.729849"><ele>344.0</ele><time>2020-08-16T17:52:30Z</time></trkpt>
<trkpt lat="51.309529" lon="7.729809"><ele>344.0</ele><time>2020-08-16T17:52:32Z</time></trkpt>
<trkpt lat="51.30706" lon="7.729713"><ele>339.0</ele><time>2020-08-16T17:52:55Z</time></trkpt>
<trkpt lat="51.306828" lon="7.729664"><ele>339.0</ele><time>2020-08-16T17:52:57Z</time></trkpt>
<trkpt lat="51.306604" lon="7.729531"><ele>338.4</ele><time>2020-08-16T17:52:59Z</time></trkpt>
<trkpt lat="51.306504" lon="7.729411"><ele>338.4</ele><time>2020-08-16T17:53:00Z</time></trkpt>
<trkpt lat="51.30647" lon="7.729321"><ele>338.4</ele><time>2020-08-16T17:53:01Z</time></trkpt>
<trkpt lat="51.306461" lon="7.729242"><ele>338.4</ele><time>2020-08-16T17:53:01Z</time></trkpt>
<trkpt lat="51.306476" lon="7.7291"><ele>329.6</ele><time>2020-08-16T17:53:02Z</time></trkpt>
<trkpt lat="51.306505" lon="7.729018"><ele>329.6</ele><time>2020-08-16T17:53:03Z</time></trkpt>
<trkpt lat="51.306557" lon="7.728952"><ele>329.6</ele><time>2020-08-16T17:53:03Z</time></trkpt>
<trkpt lat="51.306608" lon="7.728922"><ele>329.6</ele><time>2020-08-16T17:53:04Z</time></trkpt>
<trkpt lat="51.30673" lon="7.728913"><ele>329.2</ele><time>2020-08-16T17:53:05Z</time></trkpt>
<trkpt lat="51.307177" lon="7.729033"><ele>329.2</ele><time>2020-08-16T17:53:09Z</time></trkpt>
<trkpt lat="51.307384" lon="7.729037"><ele>329.2</ele><time>2020-08-16T17:53:11Z</time></trkpt>
<trkpt lat="51.307788" lon="7.728923"><ele>326.2</ele><time>2020-08-16T17:53:15Z</time></trkpt>
<trkpt lat="51.308512" lon="7.729134"><ele>327.2</ele><time>2020-08-16T17:53:22Z</time></trkpt>
<trkpt lat="51.308756" lon="7.729151"><ele>327.2</ele><time>2020-08-16T17:53:24Z</time></trkpt>
<trkpt lat="51.310131" lon="7.728873"><ele>342.4</ele><time>2020-08-16T17:53:37Z</time></trkpt>
<trkpt lat="51.310185" lon="7.728838"><ele>342.4</ele><time>2020-08-16T17:53:37Z</time></trkpt>
<trkpt lat="51.310233" lon="7.72877"><ele>342.4</ele><time>2020-08-16T17:53:38Z</time></trkpt>
<trkpt lat="51.31026" lon="7.728667"><ele>342.4</ele><time>2020-08-16T17:53:39Z</time></trkpt>
<trkpt lat="51.31026" lon="7.728546"><ele>342.4</ele><time>2020-08-16T17:53:39Z</time></trkpt>
<trkpt lat="51.310233" lon="7.728452"><ele>342.4</ele><time>2020-08-16T17:53:40Z</time></trkpt>
<trkpt lat="51.310072" lon="7.728291"><ele>355.0</ele><time>2020-08-16T17:53:42Z</time></trkpt>
<trkpt lat="51.309817" lon="7.728152"><ele>340.0</ele><time>2020-08-16T17:53:45Z</time></trkpt>
<trkpt lat="51.308971" lon="7.727942"><ele>327.2</ele><time>2020-08-16T17:53:53Z</time></trkpt>
<trkpt lat="51.308204" lon="7.727505"><ele>320.6</ele><time>2020-08-16T17:54:00Z</time></trkpt>
<trkpt lat="51.307127" lon="7.726665"><ele>318.8</ele><time>2020-08-16T17:54:11Z</time></trkpt>
<trkpt lat="51.305818" lon="7.725681"><ele>310.6</ele><time>2020-08-16T17:54:25Z</time></trkpt>
<trkpt lat="51.305089" lon="7.725171"><ele>310.6</ele><time>2020-08-16T17:54:32Z</time></trkpt>
<trkpt lat="51.304781" lon="7.725084"><ele>309.6</ele><time>2020-08-16T17:54:35Z</time></trkpt>
<trkpt lat="51.304538" lon="7.725098"><ele>309.6</ele><time>2020-08-16T17:54:37Z</time></trkpt>
<trkpt lat="51.30437" lon="7.725222"><ele>309.6</ele><time>2020-08-16T17:54:39Z</time></trkpt>
<trkpt lat="51.304093" lon="7.72551"><ele>310.4</ele><time>2020-08-16T17:54:42Z</time></trkpt>
<trkpt lat="51.303783" lon="7.725696"><ele>310.4</ele><time>2020-08-16T17:54:45Z</time></trkpt>
<trkpt lat="51.303399" lon="7.725773"><ele>310.4</ele><time>2020-08-16T17:54:49Z</time></trkpt>
<trkpt lat="51.30297" lon="7.725728"><ele>308.0</ele><time>2020-08-16T17:54:53Z</time></trkpt>
<trkpt lat="51.302379" lon="7.72585"><ele>293.2</ele><time>2020-08-16T17:54:58Z</time></trkpt>
<trkpt lat="51.302157" lon="7.725814"><ele>298.0</ele><time>2020-08-16T17:55:00Z</time></trkpt>
<trkpt lat="51.302079" lon="7.725761"><ele>298.0</ele><time>2020-08-16T17:55:01Z</time></trkpt>
<trkpt lat="51.301965" lon="7.725634"><ele>298.0</ele><time>2020-08-16T17:55:03Z</time></trkpt>
<trkpt lat="51.30168" lon="7.72519"><ele>298.0</ele><time>2020-08-16T17:55:06Z</time></trkpt>
<trkpt lat="51.301179" lon="7.724288"><ele>300.2</ele><time>2020-08-16T17:55:13Z</time></trkpt>
<trkpt lat="51.300419" lon="7.723491"><ele>291.6</ele><time>2020-08-16T17:55:22Z</time></trkpt>
<trkpt lat="51.299595" lon="7.722826"><ele>279.6</ele><time>2020-08-16T17:55:30Z</time></trkpt>
<trkpt lat="51.2995" lon="7.72272"><ele>279.6</ele><time>2020-08-16T17:55:31Z</time></trkpt>
<trkpt lat="51.299424" lon="7.722545"><ele>282.4</ele><time>2020-08-16T17:55:34Z</time></trkpt>
<trkpt lat="51.299424" lon="7.722545"><ele>282.4</ele><time>2020-08-16T17:55:34Z</time></trkpt>
<trkpt lat="51.299205" lon="7.721771"><ele>285.2</ele><time>2020-08-16T17:55:40Z</time></trkpt>
<trkpt lat="51.298991" lon="7.72087"><ele>285.8</ele><time>2020-08-16T17:55:47Z</time></trkpt>
<trkpt lat="51.298889" lon="7.720168"><ele>286.0</ele><time>2020-08-16T17:55:52Z</time></trkpt>
<trkpt lat="51.298858" lon="7.719645"><ele>284.6</ele><time>2020-08-16T17:55:56Z</time></trkpt>
<trkpt lat="51.298907" lon="7.718861"><ele>284.4</ele><time>2020-08-16T17:56:01Z</time></trkpt>
<trkpt lat="51.299056" lon="7.717561"><ele>286.0</ele><time>2020-08-16T17:56:11Z</time></trkpt>
<trkpt lat="51.299076" lon="7.717277"><ele>287.6</ele><time>2020-08-16T17:56:13Z</time></trkpt>
<trkpt lat="51.299148" lon="7.714489"><ele>285.0</ele><time>2020-08-16T17:56:33Z</time></trkpt>
<trkpt lat="51.299129" lon="7.713059"><ele>276.0</ele><time>2020-08-16T17:56:43Z</time></trkpt>
<trkpt lat="51.299058" lon="7.71244"><ele>270.8</ele><time>2020-08-16T17:56:47Z</time></trkpt>
<trkpt lat="51.298902" lon="7.71158"><ele>265.2</ele><time>2020-08-16T17:56:54Z</time></trkpt>
<trkpt lat="51.298889" lon="7.711279"><ele>265.2</ele><time>2020-08-16T17:56:56Z</time></trkpt>
<trkpt lat="51.298925" lon="7.710954"><ele>265.2</ele><time>2020-08-16T17:56:58Z</time></trkpt>
<trkpt lat="51.299005" lon="7.710753"><ele>264.2</ele><time>2020-08-16T17:57:00Z</time></trkpt>
<trkpt lat="51.299229" lon="7.710339"><ele>254.2</ele><time>2020-08-16T17:57:04Z</time></trkpt>
<trkpt lat="51.300066" lon="7.708909"><ele>258.8</ele><time>2020-08-16T17:57:18Z</time></trkpt>
<trkpt lat="51.30021" lon="7.708344"><ele>258.8</ele><time>2020-08-16T17:57:22Z</time></trkpt>
<trkpt lat="51.300248" lon="7.708045"><ele>257.8</ele><time>2020-08-16T17:57:25Z</time></trkpt>
<trkpt lat="51.300298" lon="7.706616"><ele>256.2</ele><time>2020-08-16T17:57:35Z</time></trkpt>
<trkpt lat="51.300346" lon="7.706323"><ele>256.2</ele><time>2020-08-16T17:57:37Z</time></trkpt>
<trkpt lat="51.30055" lon="7.705556"><ele>253.2</ele><time>2020-08-16T17:57:43Z</time></trkpt>
<trkpt lat="51.300607" lon="7.70516"><ele>253.2</ele><time>2020-08-16T17:57:46Z</time></trkpt>
<trkpt lat="51.300594" lon="7.704839"><ele>248.8</ele><time>2020-08-16T17:57:48Z</time></trkpt>
<trkpt lat="51.300477" lon="7.703693"><ele>244.6</ele><time>2020-08-16T17:57:57Z</time></trkpt>
<trkpt lat="51.30045" lon="7.702734"><ele>245.8</ele><time>2020-08-16T17:58:03Z</time></trkpt>
<trkpt lat="51.300453" lon="7.702173"><ele>247.4</ele><time>2020-08-16T17:58:07Z</time></trkpt>
<trkpt lat="51.300409" lon="7.701832"><ele>247.4</ele><time>2020-08-16T17:58:10Z</time></trkpt>
<trkpt lat="51.300254" lon="7.701256"><ele>248.4</ele><time>2020-08-16T17:58:14Z</time></trkpt>
<trkpt lat="51.300177" lon="7.700835"><ele>248.4</ele><time>2020-08-16T17:58:17Z</time></trkpt>
<trkpt lat="51.300075" lon="7.69999"><ele>246.2</ele><time>2020-08-16T17:58:24Z</time></trkpt>
<trkpt lat="51.300054" lon="7.699404"><ele>246.2</ele><time>2020-08-16T17:58:28Z</time></trkpt>
<trkpt lat="51.300073" lon="7.69915"><ele>243.4</ele><time>2020-08-16T17:58:30Z</time></trkpt>
<trkpt lat="51.300144" lon="7.698672"><ele>243.4</ele><time>2020-08-16T17:58:33Z</time></trkpt>
<trkpt lat="51.300344" lon="7.697582"><ele>241.0</ele><time>2020-08-16T17:58:41Z</time></trkpt>
<trkpt lat="51.300422" lon="7.696963"><ele>239.6</ele><time>2020-08-16T17:58:46Z</time></trkpt>
<trkpt lat="51.300629" lon="7.693765"><ele>242.2</ele><time>2020-08-16T17:59:09Z</time></trkpt>
<trkpt lat="51.300624" lon="7.69295"><ele>240.6</ele><time>2020-08-16T17:59:15Z</time></trkpt>
<trkpt lat="51.30049" lon="7.691305"><ele>233.8</ele><time>2020-08-16T17:59:27Z</time></trkpt>
<trkpt lat="51.300405" lon="7.690496"><ele>230.2</ele><time>2020-08-16T17:59:32Z</time></trkpt>
<trkpt lat="51.300333" lon="7.690006"><ele>230.2</ele><time>2020-08-16T17:59:36Z</time></trkpt>
<trkpt lat="51.300261" lon="7.68964"><ele>226.6</ele><time>2020-08-16T17:59:39Z</time></trkpt>
<trkpt lat="51.300204" lon="7.689406"><ele>226.6</ele><time>2020-08-16T17:59:41Z</time></trkpt>
<trkpt lat="51.299988" lon="7.688754"><ele>225.8</ele><time>2020-08-16T17:59:46Z</time></trkpt>
<trkpt lat="51.299815" lon="7.688407"><ele>225.8</ele><time>2020-08-16T17:59:49Z</time></trkpt>
<trkpt lat="51.299601" lon="7.688205"><ele>223.0</ele><time>2020-08-16T17:59:52Z</time></trkpt>
<trkpt lat="51.299305" lon="7.687965"><ele>223.0</ele><time>2020-08-16T17:59:56Z</time></trkpt>
<trkpt lat="51.298839" lon="7.687654"><ele>226.8</ele><time>2020-08-16T18:00:01Z</time></trkpt>
<trkpt lat="51.298644" lon="7.68744"><ele>217.4</ele><time>2020-08-16T18:00:04Z</time></trkpt>
<trkpt lat="51.29794" lon="7.686558"><ele>217.2</ele><time>2020-08-16T18:00:15Z</time></trkpt>
<trkpt lat="51.297537" lon="7.686224"><ele>217.2</ele><time>2020-08-16T18:00:20Z</time></trkpt>
<trkpt lat="51.297012" lon="7.685827"><ele>213.6</ele><time>2020-08-16T18:00:26Z</time></trkpt>
<trkpt lat="51.29665" lon="7.68547"><ele>217.2</ele><time>2020-08-16T18:00:31Z</time></trkpt>
<trkpt lat="51.296557" lon="7.68532"><ele>217.2</ele><time>2020-08-16T18:00:33Z</time></trkpt>
<trkpt lat="51.296349" lon="7.684739"><ele>212.2</ele><time>2020-08-16T18:00:38Z</time></trkpt>
<trkpt lat="51.295952" lon="7.6834"><ele>209.6</ele><time>2020-08-16T18:00:48Z</time></trkpt>
<trkpt lat="51.295902" lon="7.683185"><ele>207.8</ele><time>2020-08-16T18:00:50Z</time></trkpt>
<trkpt lat="51.295859" lon="7.682789"><ele>207.8</ele><time>2020-08-16T18:00:53Z</time></trkpt>
<trkpt lat="51.295878" lon="7.681078"><ele>207.4</ele><time>2020-08-16T18:01:05Z</time></trkpt>
<trkpt lat="51.295976" lon="7.68064"><ele>211.3</ele><time>2020-08-16T18:01:09Z</time></trkpt>
<trkpt lat="51.295976" lon="7.68064"><ele>211.3</ele><time>2020-08-16T18:01:09Z</time></trkpt>
<trkpt lat="51.296334" lon="7.679261"><ele>213.6</ele><time>2020-08-16T18:01:21Z</time></trkpt>
<trkpt lat="51.296471" lon="7.678607"><ele>221.2</ele><time>2020-08-16T18:01:27Z</time></trkpt>
<trkpt lat="51.296581" lon="7.678357"><ele>221.2</ele><time>2020-08-16T18:01:29Z</time></trkpt>
<trkpt lat="51.296689" lon="7.67821"><ele>209.2</ele><time>2020-08-16T18:01:31Z</time></trkpt>
<trkpt lat="51.296742" lon="7.678187"><ele>209.2</ele><time>2020-08-16T18:01:32Z</time></trkpt>
<trkpt lat="51.29682" lon="7.678192"><ele>209.2</ele><time>2020-08-16T18:01:33Z</time></trkpt>
<trkpt lat="51.297045" lon="7.678312"><ele>209.2</ele><time>2020-08-16T18:01:36Z</time></trkpt>
<trkpt lat="51.2971" lon="7.678293"><ele>209.2</ele><time>2020-08-16T18:01:37Z</time></trkpt>
<trkpt lat="51.297196" lon="7.67819"><ele>209.2</ele><time>2020-08-16T18:01:38Z</time></trkpt>
<trkpt lat="51.297279" lon="7.678054"><ele>209.2</ele><time>2020-08-16T18:01:40Z</time></trkpt>
<trkpt lat="51.297358" lon="7.677962"><ele>209.2</ele><time>2020-08-16T18:01:41Z</time></trkpt>
<trkpt lat="51.297449" lon="7.677819"><ele>209.2</ele><time>2020-08-16T18:01:43Z</time></trkpt>
<trkpt lat="51.297648" lon="7.677393"><ele>202.0</ele><time>2020-08-16T18:01:47Z</time></trkpt>
<trkpt lat="51.297723" lon="7.677284"><ele>202.0</ele><time>2020-08-16T18:01:49Z</time></trkpt>
<trkpt lat="51.297822" lon="7.677186"><ele>202.0</ele><time>2020-08-16T18:01:50Z</time></trkpt>
<trkpt lat="51.297921" lon="7.677111"><ele>202.0</ele><time>2020-08-16T18:01:52Z</time></trkpt>
<trkpt lat="51.298182" lon="7.677003"><ele>202.0</ele><time>2020-08-16T18:01:55Z</time></trkpt>
<trkpt lat="51.299762" lon="7.676783"><ele>196.4</ele><time>2020-08-16T18:02:16Z</time></trkpt>
<trkpt lat="51.299997" lon="7.676814"><ele>196.4</ele><time>2020-08-16T18:02:19Z</time></trkpt>
<trkpt lat="51.300496" lon="7.676982"><ele>194.8</ele><time>2020-08-16T18:02:26Z</time></trkpt>
<trkpt lat="51.300722" lon="7.677007"><ele>194.8</ele><time>2020-08-16T18:02:29Z</time></trkpt>
<trkpt lat="51.300954" lon="7.676947"><ele>189.2</ele><time>2020-08-16T18:02:32Z</time></trkpt>
<trkpt lat="51.301215" lon="7.67682"><ele>189.2</ele><time>2020-08-16T18:02:35Z</time></trkpt>
<trkpt lat="51.301423" lon="7.676687"><ele>189.2</ele><time>2020-08-16T18:02:38Z</time></trkpt>
<trkpt lat="51.301559" lon="7.676487"><ele>195.0</ele><time>2020-08-16T18:02:41Z</time></trkpt>
<trkpt lat="51.301707" lon="7.676204"><ele>185.8</ele><time>2020-08-16T18:02:44Z</time></trkpt>
<trkpt lat="51.30178" lon="7.675952"><ele>185.8</ele><time>2020-08-16T18:02:46Z</time></trkpt>
<trkpt lat="51.301803" lon="7.675783"><ele>186.6</ele><time>2020-08-16T18:02:48Z</time></trkpt>
<trkpt lat="51.301805" lon="7.675442"><ele>186.6</ele><time>2020-08-16T18:02:50Z</time></trkpt>
<trkpt lat="51.301724" lon="7.674253"><ele>181.0</ele><time>2020-08-16T18:03:00Z</time></trkpt>
<trkpt lat="51.301721" lon="7.674052"><ele>174.6</ele><time>2020-08-16T18:03:02Z</time></trkpt>
<trkpt lat="51.301741" lon="7.673705"><ele>174.6</ele><time>2020-08-16T18:03:05Z</time></trkpt>
<trkpt lat="51.301789" lon="7.673467"><ele>174.6</ele><time>2020-08-16T18:03:07Z</time></trkpt>
<trkpt lat="51.301979" lon="7.673026"><ele>168.8</ele><time>2020-08-16T18:03:11Z</time></trkpt>
<trkpt lat="51.302038" lon="7.672857"><ele>168.8</ele><time>2020-08-16T18:03:13Z</time></trkpt>
<trkpt lat="51.302072" lon="7.672704"><ele>168.8</ele><time>2020-08-16T18:03:14Z</time></trkpt>
<trkpt lat="51.302109" lon="7.672483"><ele>164.2</ele><time>2020-08-16T18:03:16Z</time></trkpt>
<trkpt lat="51.302135" lon="7.672165"><ele>164.2</ele><time>2020-08-16T18:03:19Z</time></trkpt>
<trkpt lat="51.302117" lon="7.671881"><ele>164.2</ele><time>2020-08-16T18:03:21Z</time></trkpt>
<trkpt lat="51.302088" lon="7.671712"><ele>164.2</ele><time>2020-08-16T18:03:23Z</time></trkpt>
<trkpt lat="51.302029" lon="7.671493"><ele>162.2</ele><time>2020-08-16T18:03:25Z</time></trkpt>
<trkpt lat="51.30195" lon="7.671298"><ele>162.2</ele><time>2020-08-16T18:03:26Z</time></trkpt>
<trkpt lat="51.301593" lon="7.670727"><ele>171.0</ele><time>2020-08-16T18:03:33Z</time></trkpt>
<trkpt lat="51.301182" lon="7.670137"><ele>171.0</ele><time>2020-08-16T18:03:40Z</time></trkpt>
<trkpt lat="51.301006" lon="7.669967"><ele>181.6</ele><time>2020-08-16T18:03:43Z</time></trkpt>
<trkpt lat="51.300861" lon="7.669922"><ele>181.6</ele><time>2020-08-16T18:03:45Z</time></trkpt>
<trkpt lat="51.300722" lon="7.669949"><ele>203.2</ele><time>2020-08-16T18:03:48Z</time></trkpt>
<trkpt lat="51.300599" lon="7.670037"><ele>186.4</ele><time>2020-08-16T18:03:51Z</time></trkpt>
<trkpt lat="51.300545" lon="7.670102"><ele>186.4</ele><time>2020-08-16T18:03:52Z</time></trkpt>
<trkpt lat="51.300456" lon="7.670264"><ele>186.4</ele><time>2020-08-16T18:03:54Z</time></trkpt>
<trkpt lat="51.300401" lon="7.670466"><ele>186.4</ele><time>2020-08-16T18:03:55Z</time></trkpt>
<trkpt lat="51.300398" lon="7.670691"><ele>186.4</ele><time>2020-08-16T18:03:57Z</time></trkpt>
<trkpt lat="51.300449" lon="7.671011"><ele>174.6</ele><time>2020-08-16T18:04:00Z</time></trkpt>
<trkpt lat="51.300481" lon="7.671109"><ele>174.6</ele><time>2020-08-16T18:04:07Z</time></trkpt>
<trkpt lat="51.300787" lon="7.670733"><ele>186.4</ele><time>2020-08-16T18:04:11Z</time></trkpt>
<trkpt lat="51.300894" lon="7.670558"><ele>171.0</ele><time>2020-08-16T18:04:13Z</time></trkpt>
<trkpt lat="51.30097" lon="7.670384"><ele>171.0</ele><time>2020-08-16T18:04:15Z</time></trkpt>
<trkpt lat="51.302076" lon="7.667375"><ele>207.2</ele><time>2020-08-16T18:04:40Z</time></trkpt>
<trkpt lat="51.302234" lon="7.666997"><ele>207.2</ele><time>2020-08-16T18:04:43Z</time></trkpt>
<trkpt lat="51.302563" lon="7.666447"><ele>198.6</ele><time>2020-08-16T18:04:49Z</time></trkpt>
<trkpt lat="51.302739" lon="7.666201"><ele>198.6</ele><time>2020-08-16T18:04:52Z</time></trkpt>
<trkpt lat="51.303359" lon="7.665439"><ele>190.4</ele><time>2020-08-16T18:05:01Z</time></trkpt>
<trkpt lat="51.303839" lon="7.664953"><ele>215.8</ele><time>2020-08-16T18:05:07Z</time></trkpt>
<trkpt lat="51.304258" lon="7.664561"><ele>191.0</ele><time>2020-08-16T18:05:14Z</time></trkpt>
<trkpt lat="51.304996" lon="7.663993"><ele>212.0</ele><time>2020-08-16T18:05:23Z</time></trkpt>
<trkpt lat="51.305616" lon="7.663714"><ele>191.2</ele><time>2020-08-16T18:05:31Z</time></trkpt>
<trkpt lat="51.306299" lon="7.663588"><ele>177.2</ele><time>2020-08-16T18:05:39Z</time></trkpt>
<trkpt lat="51.306395" lon="7.663539"><ele>177.2</ele><time>2020-08-16T18:05:40Z</time></trkpt>
<trkpt lat="51.306929" lon="7.663167"><ele>172.8</ele><time>2020-08-16T18:05:47Z</time></trkpt>
<trkpt lat="51.30704" lon="7.663116"><ele>172.8</ele><time>2020-08-16T18:05:48Z</time></trkpt>
<trkpt lat="51.307363" lon="7.663032"><ele>172.8</ele><time>2020-08-16T18:05:58Z</time></trkpt>
<trkpt lat="51.307397" lon="7.663151"><ele>172.8</ele><time>2020-08-16T18:05:59Z</time></trkpt>
<trkpt lat="51.307442" lon="7.663203"><ele>172.8</ele><time>2020-08-16T18:06:00Z</time></trkpt>
<trkpt lat="51.307496" lon="7.663221"><ele>172.8</ele><time>2020-08-16T18:06:00Z</time></trkpt>
<trkpt lat="51.307528" lon="7.663215"><ele>165.0</ele><time>2020-08-16T18:06:01Z</time></trkpt>
<trkpt lat="51.307607" lon="7.663126"><ele>165.0</ele><time>2020-08-16T18:06:02Z</time></trkpt>
<trkpt lat="51.307629" lon="7.663028"><ele>165.0</ele><time>2020-08-16T18:06:03Z</time></trkpt>
<trkpt lat="51.307616" lon="7.662912"><ele>165.0</ele><time>2020-08-16T18:06:03Z</time></trkpt>
<trkpt lat="51.307593" lon="7.662858"><ele>165.0</ele><time>2020-08-16T18:06:04Z</time></trkpt>
<trkpt lat="51.307521" lon="7.662796"><ele>165.0</ele><time>2020-08-16T18:06:05Z</time></trkpt>
<trkpt lat="51.30748" lon="7.662793"><ele>172.8</ele><time>2020-08-16T18:06:06Z</time></trkpt>
<trkpt lat="51.30745" lon="7.66242"><ele>174.0</ele><time>2020-08-16T18:06:08Z</time></trkpt>
<trkpt lat="51.307388" lon="7.66218"><ele>174.0</ele><time>2020-08-16T18:06:10Z</time></trkpt>
<trkpt lat="51.307286" lon="7.661952"><ele>174.0</ele><time>2020-08-16T18:06:12Z</time></trkpt>
<trkpt lat="51.307133" lon="7.661738"><ele>174.0</ele><time>2020-08-16T18:06:14Z</time></trkpt>
<trkpt lat="51.306731" lon="7.661455"><ele>168.8</ele><time>2020-08-16T18:06:18Z</time></trkpt>
<trkpt lat="51.306619" lon="7.661332"><ele>182.6</ele><time>2020-08-16T18:06:20Z</time></trkpt>
<trkpt lat="51.306377" lon="7.66079"><ele>175.0</ele><time>2020-08-16T18:06:25Z</time></trkpt>
<trkpt lat="51.306046" lon="7.659949"><ele>168.8</ele><time>2020-08-16T18:06:31Z</time></trkpt>
<trkpt lat="51.305666" lon="7.658709"><ele>177.2</ele><time>2020-08-16T18:06:40Z</time></trkpt>
<trkpt lat="51.305622" lon="7.658502"><ele>177.2</ele><time>2020-08-16T18:06:41Z</time></trkpt>
<trkpt lat="51.30558" lon="7.658167"><ele>174.6</ele><time>2020-08-16T18:06:44Z</time></trkpt>
<trkpt lat="51.305573" lon="7.657514"><ele>174.6</ele><time>2020-08-16T18:06:48Z</time></trkpt>
<trkpt lat="51.305592" lon="7.657215"><ele>174.8</ele><time>2020-08-16T18:06:50Z</time></trkpt>
<trkpt lat="51.305679" lon="7.65685"><ele>174.8</ele><time>2020-08-16T18:06:52Z</time></trkpt>
<trkpt lat="51.306077" lon="7.655713"><ele>174.8</ele><time>2020-08-16T18:07:01Z</time></trkpt>
<trkpt lat="51.306511" lon="7.654139"><ele>191.2</ele><time>2020-08-16T18:07:12Z</time></trkpt>
<trkpt lat="51.306613" lon="7.653887"><ele>191.2</ele><time>2020-08-16T18:07:14Z</time></trkpt>
<trkpt lat="51.307012" lon="7.653125"><ele>188.2</ele><time>2020-08-16T18:07:21Z</time></trkpt>
<trkpt lat="51.307539" lon="7.652031"><ele>186.6</ele><time>2020-08-16T18:07:30Z</time></trkpt>
<trkpt lat="51.307792" lon="7.651653"><ele>197.2</ele><time>2020-08-16T18:07:34Z</time></trkpt>
<trkpt lat="51.307792" lon="7.651653"><ele>197.2</ele><time>2020-08-16T18:07:34Z</time></trkpt>
<trkpt lat="51.308037" lon="7.651325"><ele>207.8</ele><time>2020-08-16T18:07:36Z</time></trkpt>
<trkpt lat="51.308228" lon="7.651129"><ele>207.8</ele><time>2020-08-16T18:07:38Z</time></trkpt>
<trkpt lat="51.308448" lon="7.650999"><ele>188.8</ele><time>2020-08-16T18:07:40Z</time></trkpt>
<trkpt lat="51.308672" lon="7.650932"><ele>188.8</ele><time>2020-08-16T18:07:42Z</time></trkpt>
<trkpt lat="51.308974" lon="7.650904"><ele>188.8</ele><time>2020-08-16T18:07:44Z</time></trkpt>
<trkpt lat="51.309181" lon="7.650912"><ele>188.0</ele><time>2020-08-16T18:07:46Z</time></trkpt>
<trkpt lat="51.309471" lon="7.650973"><ele>188.0</ele><time>2020-08-16T18:07:48Z</time></trkpt>
<trkpt lat="51.309778" lon="7.651117"><ele>188.0</ele><time>2020-08-16T18:07:50Z</time></trkpt>
<trkpt lat="51.310108" lon="7.651422"><ele>197.4</ele><time>2020-08-16T18:07:53Z</time></trkpt>
<trkpt lat="51.311269" lon="7.652633"><ele>168.6</ele><time>2020-08-16T18:08:04Z</time></trkpt>
<trkpt lat="51.311829" lon="7.653174"><ele>173.0</ele><time>2020-08-16T18:08:09Z</time></trkpt>
<trkpt lat="51.312086" lon="7.6533"><ele>173.0</ele><time>2020-08-16T18:08:11Z</time></trkpt>
<trkpt lat="51.3123" lon="7.653354"><ele>161.8</ele><time>2020-08-16T18:08:13Z</time></trkpt>
<trkpt lat="51.312559" lon="7.653328"><ele>170.4</ele><time>2020-08-16T18:08:15Z</time></trkpt>
<trkpt lat="51.312833" lon="7.653249"><ele>170.4</ele><time>2020-08-16T18:08:17Z</time></trkpt>
<trkpt lat="51.313233" lon="7.653068"><ele>170.4</ele><time>2020-08-16T18:08:20Z</time></trkpt>
<trkpt lat="51.313689" lon="7.65267"><ele>162.2</ele><time>2020-08-16T18:08:24Z</time></trkpt>
<trkpt lat="51.31402" lon="7.652149"><ele>170.4</ele><time>2020-08-16T18:08:28Z</time></trkpt>
<trkpt lat="51.314227" lon="7.651597"><ele>163.2</ele><time>2020-08-16T18:08:31Z</time></trkpt>
<trkpt lat="51.314559" lon="7.650383"><ele>168.2</ele><time>2020-08-16T18:08:37Z</time></trkpt>
<trkpt lat="51.314608" lon="7.650163"><ele>168.2</ele><time>2020-08-16T18:08:38Z</time></trkpt>
<trkpt lat="51.315064" lon="7.647691"><ele>163.4</ele><time>2020-08-16T18:08:50Z</time></trkpt>
<trkpt lat="51.315296" lon="7.646935"><ele>167.0</ele><time>2020-08-16T18:08:54Z</time></trkpt>
<trkpt lat="51.315687" lon="7.646073"><ele>171.2</ele><time>2020-08-16T18:08:59Z</time></trkpt>
<trkpt lat="51.316105" lon="7.64546"><ele>163.8</ele><time>2020-08-16T18:09:04Z</time></trkpt>
<trkpt lat="51.316533" lon="7.645005"><ele>163.8</ele><time>2020-08-16T18:09:08Z</time></trkpt>
<trkpt lat="51.316925" lon="7.6447"><ele>166.0</ele><time>2020-08-16T18:09:11Z</time></trkpt>
<trkpt lat="51.317422" lon="7.644457"><ele>166.0</ele><time>2020-08-16T18:09:15Z</time></trkpt>
<trkpt lat="51.317906" lon="7.644369"><ele>162.2</ele><time>2020-08-16T18:09:19Z</time></trkpt>
<trkpt lat="51.318386" lon="7.64436"><ele>160.0</ele><time>2020-08-16T18:09:22Z</time></trkpt>
<trkpt lat="51.319166" lon="7.644503"><ele>160.0</ele><time>2020-08-16T18:09:28Z</time></trkpt>
<trkpt lat="51.319468" lon="7.64457"><ele>159.0</ele><time>2020-08-16T18:09:31Z</time></trkpt>
<trkpt lat="51.32033" lon="7.644868"><ele>159.2</ele><time>2020-08-16T18:09:37Z</time></trkpt>
<trkpt lat="51.320498" lon="7.644899"><ele>159.2</ele><time>2020-08-16T18:09:39Z</time></trkpt>
<trkpt lat="51.321153" lon="7.644903"><ele>159.8</ele><time>2020-08-16T18:09:44Z</time></trkpt>
<trkpt lat="51.321884" lon="7.644771"><ele>159.6</ele><time>2020-08-16T18:09:49Z</time></trkpt>
<trkpt lat="51.322669" lon="7.644656"><ele>158.6</ele><time>2020-08-16T18:09:55Z</time></trkpt>
<trkpt lat="51.322781" lon="7.644657"><ele>157.9</ele><time>2020-08-16T18:09:56Z</time></trkpt>
<trkpt lat="51.322781" lon="7.644657"><ele>157.9</ele><time>2020-08-16T18:09:56Z</time></trkpt>
<trkpt lat="51.323508" lon="7.644669"><ele>157.2</ele><time>2020-08-16T18:10:04Z</time></trkpt>
<trkpt lat="51.324778" lon="7.644806"><ele>156.0</ele><time>2020-08-16T18:10:17Z</time></trkpt>
<trkpt lat="51.32568" lon="7.644994"><ele>155.8</ele><time>2020-08-16T18:10:26Z</time></trkpt>
<trkpt lat="51.328283" lon="7.645478"><ele>153.6</ele><time>2020-08-16T18:10:53Z</time></trkpt>
<trkpt lat="51.328577" lon="7.645615"><ele>158.0</ele><time>2020-08-16T18:10:56Z</time></trkpt>
<trkpt lat="51.328789" lon="7.645757"><ele>158.0</ele><time>2020-08-16T18:10:58Z</time></trkpt>
<trkpt lat="51.329082" lon="7.645985"><ele>150.0</ele><time>2020-08-16T18:11:02Z</time></trkpt>
<trkpt lat="51.32963" lon="7.646634"><ele>156.4</ele><time>2020-08-16T18:11:09Z</time></trkpt>
<trkpt lat="51.32998" lon="7.647255"><ele>151.8</ele><time>2020-08-16T18:11:14Z</time></trkpt>
<trkpt lat="51.330225" lon="7.647911"><ele>159.2</ele><time>2020-08-16T18:11:19Z</time></trkpt>
<trkpt lat="51.330458" lon="7.64875"><ele>154.4</ele><time>2020-08-16T18:11:25Z</time></trkpt>
<trkpt lat="51.330674" lon="7.649868"><ele>154.8</ele><time>2020-08-16T18:11:32Z</time></trkpt>
<trkpt lat="51.33087" lon="7.650626"><ele>154.2</ele><time>2020-08-16T18:11:38Z</time></trkpt>
<trkpt lat="51.331237" lon="7.651665"><ele>152.0</ele><time>2020-08-16T18:11:45Z</time></trkpt>
<trkpt lat="51.331364" lon="7.651878"><ele>153.0</ele><time>2020-08-16T18:11:47Z</time></trkpt>
<trkpt lat="51.331534" lon="7.652032"><ele>153.0</ele><time>2020-08-16T18:11:49Z</time></trkpt>
<trkpt lat="51.331847" lon="7.652144"><ele>150.6</ele><time>2020-08-16T18:11:53Z</time></trkpt>
<trkpt lat="51.332066" lon="7.652186"><ele>150.6</ele><time>2020-08-16T18:11:55Z</time></trkpt>
<trkpt lat="51.332462" lon="7.652168"><ele>150.6</ele><time>2020-08-16T18:11:59Z</time></trkpt>
<trkpt lat="51.332635" lon="7.652138"><ele>150.4</ele><time>2020-08-16T18:12:01Z</time></trkpt>
<trkpt lat="51.332849" lon="7.652022"><ele>150.4</ele><time>2020-08-16T18:12:03Z</time></trkpt>
<trkpt lat="51.333001" lon="7.651849"><ele>150.4</ele><time>2020-08-16T18:12:05Z</time></trkpt>
<trkpt lat="51.33321" lon="7.651424"><ele>154.2</ele><time>2020-08-16T18:12:08Z</time></trkpt>
<trkpt lat="51.333261" lon="7.651254"><ele>154.2</ele><time>2020-08-16T18:12:10Z</time></trkpt>
<trkpt lat="51.333544" lon="7.649964"><ele>154.6</ele><time>2020-08-16T18:12:18Z</time></trkpt>
<trkpt lat="51.333978" lon="7.648201"><ele>169.0</ele><time>2020-08-16T18:12:30Z</time></trkpt>
<trkpt lat="51.334077" lon="7.647886"><ele>169.0</ele><time>2020-08-16T18:12:33Z</time></trkpt>
<trkpt lat="51.334442" lon="7.647039"><ele>163.6</ele><time>2020-08-16T18:12:39Z</time></trkpt>
<trkpt lat="51.334653" lon="7.646496"><ele>173.6</ele><time>2020-08-16T18:12:43Z</time></trkpt>
<trkpt lat="51.334937" lon="7.645969"><ele>173.6</ele><time>2020-08-16T18:12:48Z</time></trkpt>
<trkpt lat="51.335711" lon="7.644814"><ele>170.2</ele><time>2020-08-16T18:12:59Z</time></trkpt>
<trkpt lat="51.33633" lon="7.644199"><ele>157.4</ele><time>2020-08-16T18:13:06Z</time></trkpt>
<trkpt lat="51.336993" lon="7.643253"><ele>149.0</ele><time>2020-08-16T18:13:15Z</time></trkpt>
<trkpt lat="51.337088" lon="7.642965"><ele>149.0</ele><time>2020-08-16T18:13:18Z</time></trkpt>
<trkpt lat="51.337099" lon="7.64276"><ele>149.0</ele><time>2020-08-16T18:13:19Z</time></trkpt>
<trkpt lat="51.337091" lon="7.64263"><ele>149.0</ele><time>2020-08-16T18:13:20Z</time></trkpt>
<trkpt lat="51.337048" lon="7.642373"><ele>149.0</ele><time>2020-08-16T18:13:21Z</time></trkpt>
<trkpt lat="51.336917" lon="7.642103"><ele>149.0</ele><time>2020-08-16T18:13:24Z</time></trkpt>
<trkpt lat="51.336751" lon="7.641974"><ele>149.0</ele><time>2020-08-16T18:13:25Z</time></trkpt>
<trkpt lat="51.33627" lon="7.64187"><ele>148.0</ele><time>2020-08-16T18:13:30Z</time></trkpt>
<trkpt lat="51.335819" lon="7.641878"><ele>154.2</ele><time>2020-08-16T18:13:35Z</time></trkpt>
<trkpt lat="51.335395" lon="7.641856"><ele>154.2</ele><time>2020-08-16T18:13:39Z</time></trkpt>
<trkpt lat="51.335174" lon="7.641729"><ele>154.2</ele><time>2020-08-16T18:13:42Z</time></trkpt>
<trkpt lat="51.335101" lon="7.641603"><ele>149.6</ele><time>2020-08-16T18:13:43Z</time></trkpt>
<trkpt lat="51.33504" lon="7.641445"><ele>149.6</ele><time>2020-08-16T18:13:44Z</time></trkpt>
<trkpt lat="51.335036" lon="7.641132"><ele>149.6</ele><time>2020-08-16T18:13:46Z</time></trkpt>
<trkpt lat="51.335314" lon="7.638353"><ele>147.4</ele><time>2020-08-16T18:14:04Z</time></trkpt>
<trkpt lat="51.335498" lon="7.636167"><ele>149.6</ele><time>2020-08-16T18:14:18Z</time></trkpt>
<trkpt lat="51.335596" lon="7.635837"><ele>149.6</ele><time>2020-08-16T18:14:21Z</time></trkpt>
<trkpt lat="51.335894" lon="7.635462"><ele>149.0</ele><time>2020-08-16T18:14:24Z</time></trkpt>
<trkpt lat="51.336284" lon="7.63521"><ele>149.0</ele><time>2020-08-16T18:14:29Z</time></trkpt>
<trkpt lat="51.336566" lon="7.635154"><ele>149.0</ele><time>2020-08-16T18:14:32Z</time></trkpt>
<trkpt lat="51.336805" lon="7.635171"><ele>147.2</ele><time>2020-08-16T18:14:34Z</time></trkpt>
<trkpt lat="51.337978" lon="7.635592"><ele>147.6</ele><time>2020-08-16T18:14:46Z</time></trkpt>
<trkpt lat="51.340751" lon="7.636667"><ele>156.6</ele><time>2020-08-16T18:15:16Z</time></trkpt>
<trkpt lat="51.34212" lon="7.636903"><ele>152.2</ele><time>2020-08-16T18:15:30Z</time></trkpt>
<trkpt lat="51.342521" lon="7.637001"><ele>147.6</ele><time>2020-08-16T18:15:34Z</time></trkpt>
<trkpt lat="51.343151" lon="7.637373"><ele>147.6</ele><time>2020-08-16T18:15:41Z</time></trkpt>
<trkpt lat="51.343537" lon="7.637553"><ele>160.6</ele><time>2020-08-16T18:15:45Z</time></trkpt>
<trkpt lat="51.344869" lon="7.637968"><ele>153.2</ele><time>2020-08-16T18:15:59Z</time></trkpt>
<trkpt lat="51.345893" lon="7.638696"><ele>149.8</ele><time>2020-08-16T18:16:10Z</time></trkpt>
<trkpt lat="51.348757" lon="7.640367"><ele>151.0</ele><time>2020-08-16T18:16:42Z</time></trkpt>
<trkpt lat="51.349978" lon="7.641042"><ele>162.8</ele><time>2020-08-16T18:16:55Z</time></trkpt>
<trkpt lat="51.350523" lon="7.641309"><ele>154.6</ele><time>2020-08-16T18:17:01Z</time></trkpt>
<trkpt lat="51.351459" lon="7.641628"><ele>146.8</ele><time>2020-08-16T18:17:11Z</time></trkpt>
<trkpt lat="51.352503" lon="7.641917"><ele>150.0</ele><time>2020-08-16T18:17:21Z</time></trkpt>
<trkpt lat="51.353267" lon="7.641943"><ele>150.0</ele><time>2020-08-16T18:17:29Z</time></trkpt>
<trkpt lat="51.354594" lon="7.641545"><ele>142.8</ele><time>2020-08-16T18:17:43Z</time></trkpt>
<trkpt lat="51.356062" lon="7.640951"><ele>148.4</ele><time>2020-08-16T18:17:59Z</time></trkpt>
<trkpt lat="51.356504" lon="7.640645"><ele>137.2</ele><time>2020-08-16T18:18:04Z</time></trkpt>
<trkpt lat="51.357138" lon="7.640359"><ele>139.0</ele><time>2020-08-16T18:18:10Z</time></trkpt>
<trkpt lat="51.357749" lon="7.640034"><ele>142.0</ele><time>2020-08-16T18:18:17Z</time></trkpt>
<trkpt lat="51.358104" lon="7.639774"><ele>136.4</ele><time>2020-08-16T18:18:21Z</time></trkpt>
<trkpt lat="51.360231" lon="7.638438"><ele>138.0</ele><time>2020-08-16T18:18:44Z</time></trkpt>
<trkpt lat="51.361102" lon="7.637832"><ele>136.6</ele><time>2020-08-16T18:18:54Z</time></trkpt>
<trkpt lat="51.361638" lon="7.637274"><ele>133.8</ele><time>2020-08-16T18:19:01Z</time></trkpt>
<trkpt lat="51.363265" lon="7.635712"><ele>134.8</ele><time>2020-08-16T18:19:22Z</time></trkpt>
<trkpt lat="51.363133" lon="7.633974"><ele>133.8</ele><time>2020-08-16T18:19:32Z</time></trkpt>
<trkpt lat="51.363001" lon="7.633095"><ele>134.4</ele><time>2020-08-16T18:19:37Z</time></trkpt>
<trkpt lat="51.36299" lon="7.632822"><ele>134.4</ele><time>2020-08-16T18:19:38Z</time></trkpt>
<trkpt lat="51.363004" lon="7.632637"><ele>134.4</ele><time>2020-08-16T18:19:39Z</time></trkpt>
<trkpt lat="51.363031" lon="7.63249"><ele>135.2</ele><time>2020-08-16T18:19:40Z</time></trkpt>
<trkpt lat="51.363096" lon="7.632282"><ele>135.2</ele><time>2020-08-16T18:19:42Z</time></trkpt>
<trkpt lat="51.363147" lon="7.632176"><ele>135.2</ele><time>2020-08-16T18:19:42Z</time></trkpt>
<trkpt lat="51.363403" lon="7.631866"><ele>138.0</ele><time>2020-08-16T18:19:45Z</time></trkpt>
<trkpt lat="51.363619" lon="7.631527"><ele>136.0</ele><time>2020-08-16T18:19:48Z</time></trkpt>
<trkpt lat="51.363933" lon="7.63091"><ele>136.0</ele><time>2020-08-16T18:19:53Z</time></trkpt>
<trkpt lat="51.364459" lon="7.629787"><ele>138.8</ele><time>2020-08-16T18:20:01Z</time></trkpt>
<trkpt lat="51.364644" lon="7.629443"><ele>138.8</ele><time>2020-08-16T18:20:03Z</time></trkpt>
<trkpt lat="51.365259" lon="7.628619"><ele>149.8</ele><time>2020-08-16T18:20:11Z</time></trkpt>
<trkpt lat="51.365667" lon="7.628217"><ele>151.0</ele><time>2020-08-16T18:20:15Z</time></trkpt>
<trkpt lat="51.365935" lon="7.628029"><ele>172.2</ele><time>2020-08-16T18:20:18Z</time></trkpt>
<trkpt lat="51.366176" lon="7.627884"><ele>172.2</ele><time>2020-08-16T18:20:21Z</time></trkpt>
<trkpt lat="51.366751" lon="7.627656"><ele>176.1</ele><time>2020-08-16T18:20:26Z</time></trkpt>
</trkseg>
</trk>
</gpx>